GEFSSGP_prec_meanprecacc_102.txt.gz
Total_Precipitation_Accumulation
0.03 0.03 0.03 0.02 0.02 0.00 0.00 0.00 0.00 0.00 0.00 0.00 0.00 0.00 0.00 0.01 0.01 0.03 0.01 0.00 0.00 0.00 0.02 0.06 0.14 0.16 0.12 0.10 0.06 0.04 0.03 0.04 0.05 0.07 0.07 0.06 0.05 0.05 0.06 0.08 0.10 0.12 0.15 0.19 0.25 0.27 0.24 0.23 0.18
0.05 0.06 0.07 0.05 0.02 0.01 0.00 0.00 0.00 0.00 0.00 0.00 0.00 0.00 0.00 0.00 0.00 0.00 0.01 0.00 0.00 0.00 0.02 0.05 0.10 0.13 0.11 0.08 0.04 0.03 0.03 0.04 0.05 0.06 0.07 0.07 0.05 0.05 0.06 0.08 0.08 0.09 0.12 0.15 0.13 0.11 0.09 0.11 0.09
0.11 0.11 0.12 0.09 0.04 0.01 0.00 0.00 0.00 0.00 0.00 0.00 0.00 0.00 0.00 0.00 0.00 0.00 0.00 0.00 0.00 0.00 0.01 0.05 0.08 0.11 0.10 0.07 0.04 0.03 0.03 0.04 0.04 0.05 0.07 0.07 0.05 0.05 0.05 0.06 0.06 0.06 0.06 0.05 0.05 0.04 0.03 0.04 0.04
0.19 0.21 0.18 0.12 0.04 0.00 0.00 0.00 0.00 0.00 0.00 0.00 0.00 0.00 0.00 0.00 0.00 0.00 0.00 0.00 0.00 0.00 0.01 0.05 0.08 0.10 0.09 0.06 0.04 0.04 0.04 0.04 0.04 0.04 0.04 0.06 0.06 0.05 0.04 0.04 0.03 0.03 0.03 0.03 0.03 0.02 0.02 0.02 0.01
0.32 0.29 0.23 0.14 0.04 0.00 0.00 0.00 0.00 0.00 0.00 0.00 0.00 0.00 0.01 0.00 0.00 0.00 0.01 0.01 0.00 0.01 0.02 0.06 0.09 0.09 0.08 0.06 0.04 0.04 0.04 0.04 0.03 0.03 0.03 0.05 0.06 0.06 0.04 0.02 0.02 0.01 0.02 0.02 0.02 0.02 0.01 0.01 0.01
0.41 0.31 0.22 0.11 0.02 0.00 0.00 0.00 0.01 0.00 0.00 0.00 0.00 0.01 0.03 0.01 0.01 0.01 0.02 0.02 0.01 0.01 0.03 0.07 0.10 0.09 0.07 0.06 0.05 0.05 0.04 0.03 0.03 0.03 0.03 0.04 0.05 0.05 0.03 0.02 0.02 0.02 0.02 0.02 0.02 0.02 0.01 0.01 0.01
0.36 0.26 0.15 0.06 0.01 0.00 0.00 0.00 0.00 0.00 0.00 0.00 0.00 0.02 0.08 0.06 0.04 0.03 0.04 0.04 0.04 0.02 0.04 0.07 0.10 0.10 0.08 0.07 0.06 0.05 0.04 0.03 0.03 0.03 0.03 0.03 0.03 0.03 0.02 0.02 0.03 0.03 0.02 0.02 0.02 0.03 0.02 0.02 0.01
0.31 0.29 0.14 0.06 0.02 0.00 0.00 0.00 0.00 0.00 0.00 0.00 0.00 0.02 0.10 0.07 0.06 0.07 0.09 0.11 0.09 0.07 0.06 0.06 0.09 0.09 0.08 0.07 0.06 0.04 0.03 0.02 0.02 0.02 0.01 0.01 0.01 0.01 0.01 0.01 0.01 0.01 0.01 0.02 0.02 0.03 0.02 0.02 0.01
0.33 0.36 0.16 0.04 0.02 0.01 0.00 0.00 0.00 0.00 0.00 0.00 0.00 0.02 0.06 0.07 0.11 0.14 0.15 0.17 0.14 0.11 0.09 0.07 0.08 0.08 0.08 0.07 0.06 0.04 0.03 0.02 0.02 0.01 0.01 0.00 0.01 0.01 0.01 0.01 0.00 0.01 0.01 0.01 0.01 0.02 0.02 0.01 0.01
0.34 0.26 0.11 0.02 0.01 0.01 0.01 0.01 0.01 0.01 0.00 0.00 0.01 0.04 0.07 0.13 0.20 0.21 0.17 0.15 0.13 0.13 0.12 0.10 0.08 0.07 0.07 0.06 0.05 0.05 0.03 0.02 0.01 0.01 0.01 0.01 0.01 0.01 0.00 0.00 0.00 0.00 0.00 0.00 0.01 0.01 0.01 0.00 0.00
0.19 0.11 0.05 0.03 0.02 0.02 0.03 0.03 0.02 0.01 0.01 0.00 0.01 0.03 0.09 0.15 0.20 0.21 0.23 0.21 0.16 0.13 0.10 0.11 0.11 0.08 0.06 0.06 0.04 0.04 0.03 0.02 0.01 0.01 0.01 0.01 0.01 0.00 0.00 0.00 0.00 0.00 0.00 0.00 0.00 0.00 0.00 0.00 0.00
0.11 0.06 0.05 0.05 0.05 0.04 0.03 0.02 0.02 0.02 0.00 0.00 0.01 0.03 0.07 0.11 0.14 0.16 0.19 0.23 0.23 0.17 0.10 0.11 0.14 0.11 0.07 0.05 0.04 0.04 0.03 0.02 0.01 0.01 0.01 0.01 0.01 0.00 0.00 0.00 0.00 0.00 0.00 0.00 0.00 0.00 0.00 0.00 0.00
0.12 0.07 0.06 0.07 0.06 0.05 0.04 0.03 0.02 0.01 0.01 0.01 0.02 0.06 0.09 0.11 0.14 0.17 0.19 0.24 0.30 0.24 0.17 0.15 0.15 0.14 0.11 0.07 0.05 0.03 0.03 0.03 0.02 0.01 0.01 0.01 0.01 0.00 0.00 0.00 0.00 0.00 0.00 0.00 0.00 0.00 0.00 0.00 0.00
0.11 0.10 0.08 0.07 0.07 0.06 0.06 0.04 0.03 0.01 0.01 0.02 0.04 0.05 0.07 0.10 0.13 0.17 0.18 0.17 0.17 0.21 0.23 0.22 0.21 0.19 0.15 0.09 0.06 0.03 0.02 0.02 0.02 0.01 0.01 0.01 0.01 0.01 0.00 0.00 0.00 0.00 0.00 0.00 0.00 0.00 0.00 0.00 0.00
0.18 0.21 0.16 0.10 0.08 0.06 0.08 0.08 0.04 0.01 0.01 0.02 0.03 0.04 0.05 0.07 0.09 0.10 0.10 0.09 0.12 0.16 0.22 0.25 0.26 0.25 0.18 0.13 0.11 0.07 0.06 0.05 0.04 0.03 0.02 0.02 0.01 0.01 0.00 0.00 0.00 0.00 0.00 0.00 0.00 0.00 0.00 0.00 0.00
0.42 0.39 0.27 0.12 0.10 0.07 0.08 0.07 0.02 0.01 0.01 0.01 0.02 0.03 0.04 0.05 0.06 0.06 0.06 0.09 0.14 0.18 0.20 0.22 0.25 0.25 0.27 0.23 0.18 0.16 0.13 0.11 0.09 0.07 0.04 0.03 0.02 0.01 0.01 0.00 0.00 0.00 0.00 0.00 0.00 0.00 0.00 0.00 0.00
0.62 0.44 0.21 0.11 0.09 0.07 0.07 0.04 0.02 0.01 0.02 0.02 0.02 0.02 0.03 0.03 0.04 0.05 0.06 0.08 0.12 0.17 0.21 0.24 0.24 0.27 0.36 0.43 0.39 0.30 0.26 0.24 0.21 0.16 0.09 0.05 0.04 0.03 0.02 0.01 0.01 0.01 0.01 0.00 0.00 0.00 0.00 0.00 0.00
0.37 0.22 0.15 0.09 0.06 0.07 0.05 0.02 0.02 0.01 0.01 0.01 0.01 0.02 0.02 0.02 0.03 0.04 0.06 0.08 0.12 0.17 0.22 0.25 0.29 0.32 0.43 0.56 0.55 0.47 0.38 0.34 0.29 0.23 0.18 0.14 0.08 0.05 0.03 0.02 0.02 0.02 0.01 0.01 0.01 0.01 0.01 0.01 0.01
0.23 0.19 0.15 0.10 0.06 0.07 0.04 0.02 0.02 0.01 0.01 0.01 0.01 0.02 0.02 0.02 0.03 0.04 0.06 0.08 0.10 0.13 0.17 0.19 0.22 0.28 0.38 0.39 0.40 0.41 0.39 0.39 0.34 0.29 0.28 0.24 0.18 0.13 0.08 0.05 0.03 0.03 0.02 0.02 0.02 0.02 0.02 0.01 0.01
0.37 0.31 0.20 0.14 0.09 0.08 0.05 0.02 0.02 0.02 0.01 0.01 0.01 0.01 0.02 0.02 0.02 0.03 0.04 0.04 0.06 0.08 0.12 0.16 0.21 0.28 0.29 0.27 0.33 0.47 0.58 0.55 0.52 0.47 0.35 0.27 0.24 0.22 0.17 0.11 0.08 0.07 0.05 0.05 0.05 0.05 0.04 0.03 0.03
0.50 0.39 0.26 0.18 0.15 0.13 0.09 0.05 0.02 0.01 0.01 0.01 0.01 0.01 0.01 0.01 0.01 0.01 0.02 0.03 0.05 0.06 0.08 0.11 0.16 0.21 0.26 0.33 0.45 0.52 0.57 0.52 0.45 0.36 0.30 0.31 0.34 0.32 0.27 0.24 0.19 0.16 0.13 0.10 0.10 0.10 0.09 0.09 0.07
0.53 0.32 0.29 0.26 0.30 0.23 0.13 0.09 0.02 0.01 0.00 0.00 0.01 0.01 0.01 0.00 0.00 0.01 0.01 0.02 0.03 0.04 0.05 0.08 0.13 0.17 0.20 0.26 0.28 0.32 0.35 0.34 0.34 0.38 0.41 0.43 0.40 0.37 0.36 0.34 0.30 0.26 0.23 0.19 0.20 0.20 0.19 0.18 0.16
0.48 0.31 0.37 0.40 0.41 0.36 0.18 0.11 0.02 0.01 0.00 0.00 0.00 0.01 0.01 0.00 0.00 0.00 0.01 0.02 0.02 0.03 0.04 0.05 0.07 0.11 0.14 0.18 0.20 0.26 0.28 0.32 0.37 0.37 0.36 0.36 0.37 0.37 0.40 0.39 0.38 0.33 0.32 0.33 0.34 0.33 0.32 0.31 0.30
0.58 0.58 0.63 0.69 0.81 0.68 0.19 0.10 0.03 0.00 0.00 0.00 0.00 0.00 0.00 0.00 0.00 0.00 0.00 0.01 0.01 0.01 0.02 0.05 0.06 0.07 0.11 0.14 0.18 0.19 0.21 0.24 0.25 0.26 0.30 0.32 0.37 0.39 0.38 0.39 0.40 0.40 0.38 0.38 0.40 0.44 0.44 0.42 0.40
0.98 1.25 1.46 1.38 1.19 0.54 0.10 0.08 0.03 0.00 0.00 0.00 0.00 0.00 0.00 0.00 0.00 0.00 0.00 0.00 0.01 0.01 0.01 0.02 0.04 0.05 0.07 0.10 0.14 0.16 0.20 0.24 0.23 0.24 0.28 0.30 0.32 0.32 0.33 0.39 0.41 0.42 0.43 0.47 0.50 0.49 0.47 0.47 0.45
0.98 1.11 1.11 0.89 0.54 0.19 0.08 0.06 0.01 0.00 0.00 0.00 0.00 0.00 0.00 0.00 0.00 0.00 0.00 0.00 0.01 0.01 0.01 0.01 0.02 0.04 0.06 0.09 0.10 0.12 0.14 0.16 0.18 0.20 0.21 0.23 0.26 0.33 0.39 0.41 0.40 0.40 0.41 0.43 0.45 0.44 0.45 0.47 0.49
0.90 0.82 0.61 0.70 0.49 0.28 0.12 0.04 0.01 0.01 0.01 0.01 0.00 0.00 0.00 0.00 0.00 0.00 0.00 0.00 0.00 0.00 0.00 0.01 0.01 0.03 0.05 0.07 0.08 0.10 0.11 0.12 0.14 0.16 0.18 0.21 0.24 0.27 0.31 0.34 0.36 0.36 0.36 0.36 0.38 0.37 0.37 0.40 0.42
0.82 0.67 0.70 0.91 0.70 0.44 0.16 0.04 0.02 0.02 0.02 0.02 0.01 0.00 0.00 0.00 0.00 0.00 0.00 0.00 0.00 0.00 0.00 0.01 0.01 0.02 0.03 0.04 0.06 0.07 0.09 0.11 0.12 0.14 0.14 0.15 0.17 0.19 0.21 0.23 0.25 0.27 0.28 0.28 0.30 0.31 0.32 0.35 0.36
0.65 0.72 0.74 0.73 0.53 0.52 0.30 0.08 0.03 0.03 0.04 0.04 0.03 0.01 0.00 0.00 0.00 0.00 0.00 0.00 0.00 0.01 0.01 0.01 0.01 0.02 0.02 0.03 0.03 0.04 0.05 0.07 0.09 0.11 0.11 0.12 0.12 0.13 0.14 0.15 0.16 0.18 0.19 0.20 0.21 0.23 0.25 0.28 0.31
0.50 0.49 0.57 0.75 0.55 0.41 0.34 0.13 0.03 0.03 0.05 0.07 0.06 0.03 0.01 0.01 0.01 0.00 0.00 0.01 0.01 0.02 0.03 0.03 0.02 0.02 0.02 0.02 0.03 0.04 0.05 0.06 0.07 0.08 0.09 0.10 0.09 0.10 0.11 0.12 0.11 0.11 0.12 0.13 0.14 0.17 0.20 0.24 0.28

GEFSSGP_prec_meanprecacc_108.txt.gz
Total_Precipitation_Accumulation
0.08 0.08 0.09 0.12 0.08 0.03 0.01 0.00 0.00 0.00 0.00 0.00 0.01 0.01 0.01 0.01 0.02 0.05 0.01 0.00 0.00 0.00 0.02 0.07 0.14 0.16 0.13 0.10 0.06 0.04 0.04 0.04 0.06 0.08 0.08 0.07 0.06 0.06 0.08 0.11 0.13 0.15 0.18 0.22 0.28 0.29 0.25 0.24 0.19
0.11 0.14 0.20 0.19 0.09 0.03 0.01 0.00 0.00 0.00 0.00 0.00 0.00 0.01 0.01 0.01 0.02 0.02 0.01 0.00 0.00 0.00 0.02 0.05 0.10 0.13 0.12 0.09 0.05 0.03 0.03 0.04 0.06 0.07 0.08 0.08 0.07 0.07 0.09 0.11 0.11 0.12 0.15 0.18 0.16 0.12 0.10 0.11 0.10
0.22 0.27 0.31 0.21 0.10 0.04 0.01 0.00 0.00 0.00 0.00 0.00 0.00 0.01 0.01 0.03 0.03 0.02 0.02 0.01 0.00 0.00 0.01 0.05 0.08 0.11 0.10 0.07 0.04 0.03 0.03 0.04 0.05 0.06 0.08 0.08 0.07 0.07 0.08 0.08 0.07 0.08 0.09 0.08 0.06 0.04 0.04 0.04 0.04
0.37 0.45 0.38 0.23 0.10 0.02 0.00 0.00 0.00 0.00 0.00 0.00 0.00 0.01 0.02 0.02 0.03 0.03 0.03 0.02 0.00 0.01 0.02 0.05 0.08 0.10 0.09 0.06 0.04 0.04 0.04 0.04 0.04 0.04 0.05 0.07 0.07 0.06 0.06 0.05 0.04 0.04 0.04 0.04 0.03 0.03 0.02 0.02 0.01
0.54 0.54 0.42 0.23 0.07 0.01 0.00 0.01 0.00 0.00 0.00 0.00 0.00 0.01 0.03 0.02 0.03 0.06 0.05 0.03 0.01 0.01 0.02 0.06 0.09 0.09 0.08 0.06 0.05 0.04 0.05 0.04 0.03 0.03 0.04 0.05 0.07 0.06 0.04 0.03 0.02 0.02 0.02 0.02 0.02 0.02 0.01 0.01 0.01
0.65 0.56 0.41 0.20 0.05 0.01 0.00 0.01 0.01 0.01 0.00 0.00 0.00 0.03 0.07 0.05 0.05 0.08 0.10 0.05 0.02 0.01 0.03 0.08 0.11 0.09 0.08 0.06 0.05 0.05 0.05 0.04 0.03 0.03 0.04 0.05 0.05 0.05 0.03 0.03 0.03 0.02 0.02 0.02 0.02 0.02 0.01 0.01 0.01
0.61 0.48 0.31 0.14 0.03 0.01 0.00 0.01 0.01 0.01 0.00 0.00 0.01 0.06 0.14 0.12 0.10 0.08 0.12 0.10 0.05 0.03 0.04 0.08 0.12 0.11 0.09 0.07 0.06 0.05 0.04 0.03 0.03 0.04 0.03 0.03 0.03 0.03 0.02 0.03 0.03 0.03 0.02 0.02 0.03 0.03 0.02 0.02 0.01
0.55 0.55 0.27 0.14 0.05 0.02 0.01 0.01 0.01 0.01 0.01 0.00 0.01 0.05 0.15 0.13 0.13 0.12 0.16 0.20 0.15 0.08 0.07 0.08 0.10 0.10 0.09 0.08 0.07 0.05 0.03 0.03 0.03 0.02 0.01 0.01 0.01 0.02 0.01 0.01 0.02 0.01 0.01 0.02 0.02 0.03 0.02 0.02 0.01
0.53 0.64 0.31 0.09 0.06 0.02 0.01 0.02 0.02 0.02 0.02 0.01 0.02 0.04 0.11 0.11 0.18 0.21 0.23 0.25 0.22 0.16 0.11 0.09 0.09 0.09 0.08 0.08 0.06 0.05 0.03 0.03 0.02 0.02 0.01 0.00 0.01 0.01 0.01 0.01 0.00 0.01 0.01 0.01 0.01 0.02 0.02 0.01 0.01
0.52 0.48 0.27 0.08 0.05 0.04 0.04 0.04 0.03 0.04 0.04 0.04 0.06 0.10 0.18 0.26 0.31 0.31 0.22 0.21 0.19 0.18 0.16 0.12 0.09 0.08 0.08 0.07 0.06 0.05 0.04 0.02 0.01 0.01 0.01 0.01 0.01 0.01 0.00 0.00 0.00 0.00 0.00 0.00 0.01 0.01 0.01 0.00 0.00
0.32 0.25 0.17 0.11 0.08 0.07 0.08 0.08 0.06 0.07 0.06 0.04 0.05 0.10 0.22 0.34 0.39 0.36 0.35 0.30 0.22 0.18 0.15 0.15 0.13 0.09 0.07 0.06 0.05 0.04 0.03 0.02 0.01 0.01 0.01 0.01 0.01 0.00 0.00 0.00 0.00 0.00 0.00 0.00 0.00 0.00 0.00 0.00 0.00
0.20 0.14 0.15 0.15 0.14 0.11 0.09 0.09 0.08 0.06 0.05 0.04 0.05 0.09 0.18 0.27 0.32 0.32 0.35 0.35 0.32 0.25 0.17 0.17 0.19 0.14 0.08 0.06 0.04 0.04 0.04 0.03 0.02 0.01 0.01 0.01 0.01 0.00 0.00 0.00 0.00 0.00 0.00 0.00 0.00 0.00 0.00 0.00 0.00
0.17 0.14 0.16 0.18 0.16 0.13 0.11 0.09 0.10 0.06 0.05 0.07 0.10 0.15 0.19 0.23 0.30 0.36 0.38 0.42 0.44 0.35 0.26 0.25 0.23 0.20 0.14 0.09 0.06 0.04 0.04 0.03 0.03 0.02 0.01 0.01 0.01 0.00 0.00 0.00 0.00 0.00 0.00 0.00 0.00 0.00 0.00 0.00 0.00
0.16 0.17 0.19 0.19 0.19 0.14 0.15 0.12 0.11 0.07 0.05 0.09 0.12 0.15 0.17 0.21 0.26 0.34 0.39 0.36 0.36 0.38 0.39 0.36 0.33 0.28 0.21 0.13 0.08 0.04 0.03 0.02 0.02 0.02 0.01 0.01 0.01 0.01 0.00 0.00 0.00 0.00 0.00 0.00 0.00 0.00 0.00 0.00 0.00
0.23 0.28 0.26 0.22 0.21 0.18 0.17 0.17 0.10 0.07 0.07 0.09 0.10 0.11 0.14 0.17 0.21 0.24 0.28 0.27 0.29 0.33 0.41 0.44 0.43 0.40 0.30 0.21 0.18 0.11 0.08 0.07 0.05 0.04 0.02 0.02 0.02 0.01 0.00 0.00 0.00 0.00 0.00 0.00 0.00 0.00 0.00 0.00 0.00
0.46 0.45 0.36 0.21 0.19 0.19 0.20 0.16 0.07 0.07 0.09 0.08 0.09 0.09 0.10 0.13 0.16 0.19 0.21 0.27 0.31 0.37 0.39 0.43 0.49 0.46 0.45 0.38 0.31 0.25 0.18 0.15 0.12 0.08 0.05 0.03 0.02 0.01 0.01 0.01 0.00 0.00 0.00 0.00 0.00 0.00 0.00 0.00 0.00
0.68 0.49 0.27 0.18 0.16 0.18 0.17 0.12 0.05 0.07 0.10 0.08 0.08 0.09 0.08 0.10 0.14 0.17 0.17 0.20 0.27 0.35 0.43 0.44 0.44 0.50 0.60 0.65 0.59 0.46 0.38 0.33 0.28 0.22 0.12 0.07 0.05 0.03 0.02 0.02 0.01 0.01 0.01 0.00 0.00 0.00 0.00 0.00 0.00
0.41 0.26 0.18 0.15 0.13 0.13 0.11 0.08 0.06 0.05 0.08 0.07 0.07 0.09 0.09 0.08 0.10 0.13 0.15 0.19 0.23 0.32 0.43 0.47 0.50 0.57 0.71 0.86 0.85 0.74 0.59 0.48 0.38 0.30 0.23 0.18 0.12 0.08 0.05 0.04 0.03 0.03 0.02 0.01 0.01 0.01 0.01 0.01 0.01
0.27 0.22 0.18 0.13 0.10 0.11 0.08 0.06 0.05 0.05 0.05 0.05 0.05 0.06 0.08 0.08 0.09 0.12 0.14 0.19 0.23 0.27 0.35 0.42 0.43 0.48 0.61 0.64 0.63 0.63 0.59 0.54 0.45 0.39 0.37 0.30 0.22 0.16 0.10 0.07 0.05 0.04 0.03 0.02 0.02 0.02 0.02 0.01 0.01
0.41 0.34 0.23 0.17 0.14 0.12 0.08 0.05 0.04 0.04 0.03 0.03 0.04 0.03 0.05 0.07 0.08 0.09 0.11 0.12 0.16 0.20 0.27 0.33 0.39 0.47 0.47 0.46 0.54 0.68 0.81 0.80 0.73 0.65 0.48 0.35 0.29 0.25 0.20 0.14 0.10 0.08 0.06 0.05 0.05 0.06 0.04 0.03 0.03
0.53 0.42 0.28 0.21 0.20 0.18 0.13 0.08 0.04 0.03 0.02 0.02 0.03 0.03 0.03 0.04 0.05 0.07 0.08 0.09 0.11 0.15 0.19 0.23 0.31 0.38 0.42 0.50 0.64 0.73 0.78 0.74 0.64 0.52 0.44 0.42 0.43 0.40 0.33 0.28 0.22 0.18 0.14 0.11 0.11 0.11 0.10 0.10 0.08
0.55 0.34 0.31 0.29 0.34 0.30 0.18 0.13 0.04 0.02 0.02 0.01 0.02 0.03 0.02 0.02 0.03 0.05 0.06 0.07 0.08 0.10 0.13 0.17 0.23 0.28 0.33 0.39 0.44 0.47 0.49 0.47 0.45 0.48 0.51 0.55 0.53 0.49 0.46 0.42 0.36 0.30 0.26 0.22 0.22 0.22 0.20 0.19 0.17
0.50 0.32 0.38 0.43 0.45 0.40 0.21 0.14 0.04 0.02 0.01 0.01 0.01 0.02 0.02 0.02 0.02 0.03 0.04 0.06 0.06 0.07 0.10 0.14 0.16 0.18 0.22 0.29 0.35 0.44 0.44 0.45 0.49 0.50 0.50 0.49 0.49 0.50 0.51 0.47 0.44 0.38 0.36 0.36 0.38 0.36 0.35 0.34 0.32
0.60 0.60 0.67 0.72 0.86 0.73 0.21 0.12 0.05 0.01 0.01 0.00 0.00 0.01 0.01 0.01 0.01 0.01 0.02 0.04 0.05 0.05 0.07 0.11 0.13 0.15 0.19 0.23 0.29 0.33 0.35 0.38 0.38 0.39 0.44 0.46 0.48 0.49 0.48 0.48 0.46 0.46 0.44 0.44 0.46 0.50 0.49 0.48 0.47
1.00 1.27 1.51 1.45 1.25 0.58 0.11 0.09 0.04 0.01 0.00 0.00 0.00 0.01 0.01 0.01 0.00 0.01 0.01 0.02 0.03 0.04 0.05 0.07 0.10 0.11 0.13 0.17 0.22 0.26 0.32 0.36 0.34 0.33 0.36 0.39 0.40 0.40 0.42 0.48 0.49 0.50 0.50 0.53 0.56 0.55 0.53 0.53 0.51
1.01 1.14 1.14 0.94 0.57 0.22 0.09 0.07 0.03 0.00 0.00 0.01 0.00 0.00 0.01 0.01 0.00 0.00 0.01 0.01 0.02 0.03 0.03 0.04 0.05 0.07 0.10 0.14 0.17 0.20 0.24 0.26 0.28 0.29 0.27 0.28 0.31 0.38 0.46 0.48 0.49 0.48 0.47 0.49 0.51 0.50 0.49 0.52 0.54
0.94 0.85 0.64 0.73 0.52 0.31 0.14 0.04 0.01 0.01 0.01 0.01 0.01 0.00 0.00 0.01 0.00 0.00 0.00 0.01 0.01 0.01 0.02 0.02 0.03 0.05 0.07 0.10 0.12 0.15 0.17 0.18 0.20 0.22 0.24 0.27 0.29 0.33 0.36 0.38 0.41 0.43 0.42 0.43 0.45 0.44 0.43 0.46 0.48
0.85 0.70 0.73 0.95 0.74 0.47 0.17 0.04 0.03 0.03 0.03 0.02 0.01 0.00 0.00 0.01 0.01 0.00 0.00 0.00 0.01 0.01 0.01 0.02 0.02 0.03 0.05 0.06 0.08 0.10 0.13 0.15 0.17 0.19 0.19 0.21 0.22 0.24 0.26 0.27 0.29 0.31 0.32 0.34 0.36 0.37 0.38 0.41 0.40
0.66 0.74 0.77 0.77 0.59 0.56 0.32 0.09 0.04 0.04 0.05 0.04 0.03 0.01 0.01 0.00 0.01 0.01 0.00 0.00 0.01 0.02 0.02 0.02 0.02 0.03 0.03 0.04 0.05 0.07 0.09 0.12 0.14 0.16 0.16 0.17 0.16 0.17 0.17 0.18 0.19 0.19 0.20 0.22 0.24 0.26 0.28 0.31 0.34
0.51 0.50 0.59 0.79 0.59 0.47 0.39 0.14 0.03 0.04 0.06 0.07 0.07 0.03 0.02 0.01 0.01 0.01 0.01 0.01 0.01 0.03 0.03 0.03 0.03 0.03 0.03 0.03 0.04 0.05 0.07 0.09 0.11 0.13 0.14 0.13 0.13 0.12 0.12 0.13 0.12 0.12 0.13 0.14 0.15 0.17 0.21 0.25 0.29

GEFSSGP_prec_meanprecacc_114.txt.gz
Total_Precipitation_Accumulation
0.17 0.18 0.19 0.23 0.16 0.08 0.03 0.01 0.00 0.00 0.00 0.00 0.01 0.01 0.01 0.02 0.03 0.05 0.02 0.00 0.00 0.01 0.03 0.08 0.16 0.18 0.14 0.11 0.07 0.04 0.04 0.05 0.06 0.09 0.09 0.09 0.08 0.08 0.11 0.14 0.15 0.18 0.21 0.24 0.29 0.30 0.26 0.24 0.19
0.21 0.26 0.34 0.33 0.17 0.08 0.03 0.01 0.00 0.00 0.01 0.00 0.01 0.01 0.01 0.01 0.02 0.02 0.02 0.00 0.00 0.00 0.02 0.06 0.12 0.15 0.13 0.10 0.05 0.03 0.03 0.05 0.06 0.08 0.09 0.10 0.09 0.10 0.13 0.13 0.14 0.15 0.18 0.20 0.17 0.12 0.11 0.12 0.10
0.33 0.43 0.49 0.37 0.21 0.09 0.03 0.00 0.00 0.00 0.01 0.01 0.01 0.01 0.02 0.03 0.03 0.03 0.03 0.01 0.00 0.01 0.02 0.06 0.10 0.12 0.11 0.08 0.05 0.04 0.04 0.05 0.06 0.07 0.09 0.10 0.09 0.10 0.11 0.11 0.10 0.10 0.11 0.09 0.06 0.05 0.04 0.04 0.04
0.51 0.66 0.60 0.43 0.22 0.07 0.02 0.01 0.00 0.00 0.01 0.00 0.01 0.03 0.04 0.03 0.03 0.04 0.05 0.03 0.01 0.01 0.03 0.08 0.10 0.11 0.10 0.07 0.05 0.04 0.05 0.05 0.05 0.05 0.06 0.09 0.10 0.09 0.08 0.07 0.05 0.05 0.04 0.04 0.03 0.03 0.03 0.02 0.01
0.71 0.77 0.65 0.44 0.18 0.05 0.01 0.01 0.01 0.00 0.01 0.01 0.02 0.05 0.08 0.05 0.04 0.08 0.08 0.06 0.02 0.02 0.04 0.09 0.12 0.11 0.08 0.06 0.05 0.05 0.05 0.05 0.04 0.04 0.05 0.07 0.09 0.08 0.05 0.03 0.03 0.02 0.03 0.03 0.03 0.02 0.01 0.01 0.01
0.84 0.83 0.66 0.37 0.13 0.03 0.01 0.02 0.02 0.01 0.01 0.02 0.04 0.09 0.14 0.10 0.08 0.11 0.13 0.08 0.04 0.03 0.06 0.12 0.15 0.11 0.08 0.07 0.05 0.05 0.05 0.04 0.04 0.04 0.05 0.06 0.07 0.06 0.04 0.03 0.03 0.03 0.03 0.03 0.03 0.02 0.01 0.01 0.01
0.80 0.74 0.52 0.26 0.09 0.03 0.02 0.03 0.03 0.02 0.02 0.02 0.04 0.11 0.21 0.21 0.18 0.15 0.18 0.15 0.09 0.06 0.09 0.14 0.18 0.14 0.10 0.07 0.06 0.05 0.05 0.04 0.04 0.04 0.04 0.04 0.03 0.03 0.03 0.03 0.03 0.03 0.03 0.02 0.03 0.03 0.02 0.02 0.01
0.74 0.82 0.44 0.24 0.10 0.05 0.03 0.04 0.04 0.04 0.02 0.03 0.05 0.11 0.21 0.23 0.25 0.22 0.24 0.27 0.22 0.14 0.14 0.14 0.17 0.14 0.11 0.09 0.07 0.05 0.04 0.03 0.03 0.03 0.02 0.01 0.01 0.02 0.02 0.01 0.02 0.02 0.02 0.02 0.02 0.03 0.02 0.02 0.01
0.70 0.89 0.47 0.18 0.12 0.06 0.05 0.05 0.06 0.05 0.05 0.05 0.07 0.11 0.20 0.25 0.32 0.31 0.31 0.35 0.35 0.28 0.20 0.17 0.15 0.13 0.10 0.09 0.07 0.05 0.04 0.03 0.02 0.02 0.01 0.01 0.01 0.01 0.01 0.01 0.01 0.01 0.01 0.01 0.01 0.02 0.02 0.01 0.01
0.66 0.68 0.42 0.17 0.11 0.10 0.10 0.09 0.09 0.10 0.09 0.09 0.13 0.21 0.33 0.45 0.48 0.42 0.29 0.26 0.29 0.31 0.27 0.21 0.16 0.12 0.09 0.09 0.07 0.06 0.04 0.03 0.02 0.01 0.01 0.01 0.01 0.01 0.00 0.00 0.00 0.01 0.01 0.01 0.01 0.01 0.01 0.00 0.00
0.43 0.39 0.30 0.23 0.17 0.15 0.16 0.14 0.12 0.14 0.12 0.09 0.10 0.20 0.37 0.57 0.60 0.52 0.44 0.35 0.27 0.28 0.29 0.28 0.22 0.14 0.09 0.08 0.06 0.05 0.04 0.03 0.02 0.01 0.01 0.01 0.01 0.00 0.00 0.00 0.00 0.00 0.00 0.00 0.00 0.00 0.00 0.00 0.00
0.30 0.25 0.25 0.28 0.26 0.20 0.17 0.16 0.15 0.14 0.12 0.08 0.10 0.18 0.33 0.47 0.53 0.53 0.51 0.46 0.40 0.32 0.27 0.30 0.29 0.20 0.12 0.08 0.05 0.05 0.04 0.03 0.02 0.01 0.01 0.01 0.01 0.00 0.00 0.00 0.00 0.00 0.00 0.00 0.00 0.00 0.00 0.00 0.00
0.25 0.24 0.24 0.28 0.28 0.22 0.19 0.17 0.17 0.12 0.12 0.14 0.16 0.24 0.35 0.45 0.53 0.61 0.63 0.62 0.58 0.42 0.34 0.36 0.33 0.25 0.18 0.11 0.07 0.04 0.04 0.03 0.03 0.02 0.01 0.01 0.01 0.00 0.00 0.00 0.00 0.00 0.00 0.00 0.00 0.00 0.00 0.00 0.00
0.22 0.25 0.26 0.26 0.29 0.24 0.24 0.20 0.17 0.13 0.13 0.20 0.21 0.23 0.31 0.41 0.50 0.60 0.66 0.62 0.57 0.52 0.49 0.48 0.45 0.35 0.25 0.16 0.10 0.05 0.04 0.03 0.02 0.02 0.02 0.01 0.01 0.01 0.00 0.00 0.00 0.00 0.00 0.00 0.00 0.00 0.00 0.00 0.00
0.27 0.34 0.34 0.30 0.30 0.28 0.26 0.25 0.16 0.12 0.14 0.20 0.21 0.20 0.23 0.32 0.43 0.51 0.54 0.54 0.56 0.54 0.58 0.59 0.59 0.52 0.38 0.25 0.20 0.13 0.10 0.09 0.06 0.04 0.02 0.02 0.02 0.01 0.01 0.00 0.00 0.00 0.00 0.00 0.00 0.00 0.00 0.00 0.00
0.51 0.52 0.42 0.28 0.28 0.29 0.30 0.24 0.11 0.11 0.15 0.18 0.20 0.19 0.19 0.23 0.33 0.45 0.50 0.57 0.64 0.64 0.61 0.63 0.69 0.63 0.56 0.45 0.35 0.27 0.21 0.18 0.13 0.09 0.05 0.04 0.03 0.02 0.01 0.01 0.00 0.00 0.00 0.00 0.00 0.00 0.00 0.00 0.00
0.73 0.54 0.31 0.23 0.24 0.27 0.26 0.19 0.09 0.10 0.16 0.15 0.18 0.19 0.17 0.19 0.25 0.37 0.46 0.49 0.58 0.65 0.69 0.69 0.69 0.73 0.75 0.77 0.69 0.52 0.42 0.35 0.30 0.23 0.13 0.07 0.05 0.04 0.03 0.02 0.02 0.01 0.01 0.00 0.00 0.00 0.00 0.00 0.00
0.44 0.29 0.21 0.20 0.20 0.19 0.18 0.14 0.10 0.09 0.14 0.13 0.13 0.18 0.18 0.19 0.19 0.24 0.35 0.43 0.54 0.67 0.76 0.78 0.81 0.89 1.02 1.10 1.05 0.89 0.69 0.55 0.44 0.34 0.27 0.20 0.14 0.10 0.07 0.05 0.04 0.03 0.02 0.02 0.02 0.01 0.01 0.01 0.01
0.31 0.24 0.20 0.17 0.17 0.16 0.13 0.12 0.11 0.10 0.10 0.10 0.10 0.12 0.15 0.16 0.18 0.21 0.28 0.39 0.49 0.62 0.75 0.81 0.80 0.89 1.06 1.00 0.89 0.81 0.73 0.67 0.57 0.48 0.44 0.36 0.27 0.20 0.13 0.10 0.08 0.06 0.05 0.04 0.03 0.03 0.02 0.02 0.02
0.44 0.36 0.25 0.20 0.18 0.17 0.13 0.10 0.09 0.08 0.08 0.08 0.08 0.08 0.09 0.12 0.13 0.17 0.21 0.26 0.33 0.46 0.63 0.74 0.82 0.92 0.98 0.92 0.90 0.96 1.06 1.03 0.94 0.84 0.63 0.48 0.39 0.31 0.24 0.17 0.13 0.11 0.09 0.08 0.07 0.07 0.06 0.04 0.04
0.56 0.44 0.30 0.24 0.24 0.22 0.17 0.13 0.07 0.05 0.05 0.05 0.07 0.06 0.05 0.06 0.09 0.11 0.14 0.18 0.23 0.30 0.42 0.56 0.70 0.81 0.91 1.01 1.18 1.23 1.22 1.08 0.90 0.76 0.69 0.64 0.62 0.54 0.44 0.39 0.30 0.24 0.18 0.14 0.14 0.14 0.12 0.11 0.09
0.57 0.35 0.32 0.31 0.37 0.34 0.22 0.18 0.07 0.04 0.03 0.03 0.04 0.06 0.04 0.03 0.05 0.08 0.10 0.13 0.17 0.21 0.29 0.39 0.54 0.66 0.76 0.86 0.94 0.97 0.93 0.82 0.73 0.75 0.79 0.83 0.79 0.72 0.67 0.58 0.48 0.39 0.33 0.27 0.27 0.25 0.23 0.22 0.20
0.51 0.33 0.39 0.44 0.47 0.43 0.24 0.17 0.06 0.04 0.03 0.02 0.02 0.03 0.03 0.02 0.03 0.05 0.07 0.10 0.11 0.16 0.23 0.32 0.42 0.50 0.59 0.68 0.73 0.84 0.86 0.83 0.85 0.83 0.80 0.76 0.74 0.72 0.71 0.65 0.59 0.49 0.45 0.43 0.43 0.40 0.39 0.37 0.35
0.61 0.61 0.68 0.74 0.88 0.75 0.23 0.14 0.06 0.02 0.02 0.01 0.01 0.02 0.03 0.02 0.02 0.03 0.04 0.07 0.09 0.11 0.16 0.24 0.35 0.45 0.51 0.58 0.63 0.69 0.72 0.75 0.74 0.73 0.74 0.73 0.73 0.70 0.67 0.65 0.62 0.60 0.55 0.52 0.52 0.55 0.53 0.51 0.49
1.02 1.29 1.53 1.48 1.28 0.60 0.11 0.10 0.05 0.01 0.01 0.01 0.01 0.01 0.02 0.01 0.01 0.02 0.02 0.03 0.05 0.08 0.10 0.16 0.20 0.28 0.36 0.46 0.55 0.58 0.66 0.70 0.64 0.62 0.64 0.69 0.68 0.62 0.61 0.66 0.66 0.65 0.64 0.65 0.65 0.61 0.57 0.57 0.55
1.03 1.15 1.15 0.95 0.59 0.24 0.10 0.08 0.03 0.01 0.01 0.01 0.01 0.01 0.02 0.02 0.01 0.01 0.01 0.02 0.04 0.05 0.07 0.09 0.12 0.15 0.21 0.29 0.35 0.40 0.48 0.52 0.53 0.52 0.48 0.49 0.52 0.57 0.64 0.66 0.65 0.63 0.61 0.61 0.61 0.57 0.55 0.57 0.59
0.96 0.86 0.64 0.74 0.53 0.32 0.15 0.05 0.02 0.01 0.01 0.02 0.01 0.00 0.01 0.02 0.01 0.01 0.01 0.01 0.02 0.03 0.04 0.05 0.07 0.10 0.14 0.19 0.23 0.27 0.30 0.32 0.34 0.36 0.37 0.40 0.43 0.47 0.49 0.51 0.53 0.54 0.53 0.54 0.57 0.54 0.52 0.53 0.54
0.87 0.71 0.74 0.96 0.75 0.48 0.18 0.05 0.03 0.03 0.04 0.04 0.03 0.01 0.01 0.01 0.01 0.01 0.01 0.01 0.02 0.02 0.03 0.04 0.05 0.07 0.09 0.12 0.14 0.17 0.22 0.25 0.28 0.30 0.29 0.32 0.34 0.36 0.37 0.37 0.38 0.39 0.40 0.42 0.45 0.46 0.47 0.49 0.47
0.68 0.76 0.79 0.78 0.60 0.57 0.33 0.10 0.04 0.05 0.07 0.07 0.06 0.03 0.01 0.01 0.01 0.01 0.01 0.01 0.01 0.02 0.03 0.04 0.04 0.05 0.06 0.07 0.09 0.10 0.12 0.17 0.21 0.24 0.24 0.25 0.25 0.25 0.26 0.26 0.26 0.26 0.27 0.28 0.30 0.33 0.35 0.39 0.42
0.52 0.51 0.61 0.81 0.61 0.48 0.40 0.15 0.04 0.05 0.08 0.09 0.10 0.06 0.02 0.01 0.01 0.01 0.01 0.01 0.02 0.03 0.04 0.04 0.04 0.05 0.05 0.06 0.06 0.08 0.10 0.12 0.14 0.17 0.19 0.18 0.19 0.19 0.18 0.18 0.17 0.17 0.17 0.17 0.18 0.21 0.24 0.29 0.34

GEFSSGP_prec_meanprecacc_120.txt.gz
Total_Precipitation_Accumulation
0.20 0.24 0.28 0.34 0.27 0.16 0.07 0.02 0.00 0.01 0.01 0.01 0.01 0.02 0.01 0.02 0.03 0.05 0.02 0.00 0.00 0.01 0.04 0.09 0.17 0.19 0.15 0.11 0.07 0.04 0.04 0.05 0.07 0.10 0.11 0.11 0.09 0.10 0.13 0.16 0.19 0.21 0.22 0.26 0.30 0.31 0.27 0.25 0.20
0.25 0.33 0.46 0.49 0.31 0.17 0.06 0.02 0.01 0.01 0.01 0.01 0.01 0.01 0.01 0.02 0.02 0.03 0.02 0.01 0.00 0.01 0.03 0.07 0.13 0.16 0.14 0.10 0.05 0.04 0.04 0.05 0.07 0.09 0.11 0.12 0.11 0.12 0.15 0.16 0.17 0.17 0.20 0.21 0.18 0.13 0.11 0.12 0.10
0.39 0.52 0.63 0.54 0.37 0.19 0.07 0.01 0.01 0.01 0.01 0.01 0.01 0.01 0.03 0.04 0.03 0.03 0.03 0.02 0.01 0.01 0.02 0.07 0.11 0.14 0.12 0.08 0.05 0.04 0.05 0.05 0.06 0.08 0.11 0.12 0.11 0.12 0.13 0.14 0.13 0.13 0.13 0.10 0.06 0.05 0.05 0.05 0.04
0.58 0.78 0.77 0.58 0.36 0.16 0.05 0.02 0.01 0.01 0.01 0.01 0.02 0.03 0.05 0.04 0.04 0.05 0.06 0.04 0.01 0.02 0.04 0.09 0.12 0.13 0.11 0.07 0.05 0.05 0.05 0.05 0.06 0.06 0.08 0.11 0.12 0.11 0.11 0.09 0.07 0.07 0.06 0.05 0.03 0.03 0.03 0.02 0.01
0.79 0.92 0.84 0.57 0.27 0.12 0.05 0.03 0.02 0.02 0.02 0.02 0.04 0.05 0.10 0.07 0.06 0.09 0.10 0.07 0.03 0.03 0.06 0.12 0.14 0.13 0.10 0.07 0.05 0.05 0.06 0.05 0.05 0.05 0.07 0.09 0.12 0.11 0.08 0.05 0.04 0.04 0.03 0.03 0.03 0.02 0.02 0.01 0.01
0.94 1.02 0.84 0.49 0.19 0.07 0.05 0.04 0.04 0.03 0.02 0.04 0.06 0.10 0.16 0.14 0.11 0.14 0.17 0.11 0.05 0.05 0.08 0.16 0.20 0.15 0.10 0.07 0.06 0.06 0.06 0.05 0.05 0.06 0.07 0.09 0.10 0.08 0.06 0.04 0.04 0.04 0.03 0.03 0.03 0.02 0.02 0.01 0.01
0.89 0.91 0.66 0.35 0.13 0.07 0.05 0.06 0.07 0.06 0.04 0.05 0.07 0.14 0.25 0.26 0.23 0.21 0.23 0.20 0.13 0.10 0.13 0.20 0.24 0.21 0.14 0.10 0.08 0.06 0.05 0.05 0.06 0.06 0.07 0.06 0.06 0.05 0.04 0.04 0.04 0.04 0.03 0.03 0.03 0.03 0.02 0.02 0.01
0.83 0.98 0.58 0.32 0.14 0.09 0.06 0.07 0.08 0.08 0.06 0.06 0.10 0.16 0.26 0.31 0.35 0.34 0.34 0.37 0.31 0.23 0.21 0.23 0.25 0.21 0.15 0.11 0.09 0.06 0.05 0.04 0.05 0.04 0.03 0.04 0.04 0.03 0.03 0.02 0.02 0.02 0.02 0.02 0.03 0.03 0.03 0.02 0.01
0.79 1.02 0.61 0.27 0.17 0.10 0.09 0.10 0.10 0.09 0.10 0.10 0.11 0.16 0.26 0.36 0.47 0.48 0.49 0.51 0.50 0.42 0.32 0.27 0.26 0.21 0.14 0.11 0.09 0.07 0.05 0.04 0.03 0.03 0.02 0.02 0.03 0.02 0.02 0.01 0.01 0.01 0.01 0.01 0.02 0.02 0.02 0.01 0.01
0.74 0.77 0.52 0.28 0.20 0.16 0.15 0.15 0.16 0.17 0.16 0.15 0.18 0.27 0.41 0.60 0.69 0.63 0.49 0.47 0.45 0.46 0.42 0.33 0.27 0.21 0.16 0.12 0.10 0.09 0.07 0.04 0.03 0.02 0.02 0.02 0.03 0.02 0.01 0.01 0.01 0.01 0.01 0.01 0.01 0.01 0.01 0.00 0.00
0.50 0.44 0.37 0.34 0.29 0.24 0.24 0.21 0.18 0.22 0.20 0.16 0.16 0.26 0.45 0.74 0.87 0.81 0.73 0.57 0.46 0.43 0.45 0.44 0.35 0.24 0.17 0.13 0.09 0.07 0.06 0.04 0.03 0.02 0.02 0.02 0.02 0.01 0.01 0.01 0.01 0.01 0.01 0.01 0.01 0.00 0.00 0.00 0.00
0.34 0.29 0.34 0.41 0.37 0.30 0.27 0.24 0.21 0.21 0.19 0.14 0.16 0.22 0.39 0.65 0.82 0.83 0.90 0.80 0.66 0.53 0.45 0.48 0.44 0.32 0.21 0.14 0.09 0.07 0.05 0.04 0.02 0.02 0.01 0.02 0.01 0.01 0.01 0.01 0.01 0.01 0.01 0.01 0.01 0.00 0.00 0.00 0.00
0.28 0.28 0.32 0.37 0.38 0.31 0.28 0.26 0.24 0.17 0.18 0.20 0.22 0.31 0.41 0.62 0.83 0.93 1.05 1.12 0.94 0.69 0.56 0.55 0.50 0.39 0.30 0.22 0.14 0.08 0.05 0.04 0.03 0.02 0.02 0.01 0.01 0.01 0.00 0.00 0.01 0.01 0.00 0.01 0.00 0.00 0.00 0.00 0.00
0.24 0.29 0.33 0.35 0.37 0.32 0.32 0.29 0.25 0.18 0.19 0.27 0.28 0.31 0.38 0.60 0.79 0.94 1.10 1.14 0.99 0.84 0.75 0.70 0.64 0.51 0.39 0.30 0.20 0.11 0.05 0.04 0.03 0.02 0.02 0.02 0.01 0.01 0.01 0.00 0.01 0.00 0.01 0.00 0.00 0.00 0.00 0.00 0.00
0.30 0.38 0.41 0.40 0.38 0.35 0.34 0.34 0.22 0.16 0.20 0.27 0.28 0.28 0.31 0.46 0.68 0.82 0.96 1.01 1.01 0.91 0.89 0.83 0.79 0.71 0.54 0.41 0.35 0.22 0.14 0.10 0.07 0.05 0.04 0.03 0.02 0.02 0.01 0.01 0.01 0.01 0.01 0.01 0.01 0.01 0.00 0.00 0.00
0.54 0.56 0.48 0.36 0.37 0.35 0.38 0.33 0.16 0.15 0.21 0.24 0.27 0.27 0.28 0.35 0.54 0.74 0.87 1.03 1.11 1.03 0.95 0.91 0.91 0.83 0.75 0.61 0.52 0.40 0.27 0.21 0.14 0.10 0.06 0.05 0.03 0.02 0.02 0.02 0.01 0.02 0.02 0.02 0.01 0.01 0.01 0.01 0.01
0.76 0.57 0.34 0.28 0.31 0.32 0.32 0.27 0.15 0.15 0.21 0.21 0.25 0.27 0.26 0.31 0.42 0.62 0.80 0.94 1.09 1.09 1.07 1.00 0.93 0.96 1.01 0.98 0.85 0.69 0.50 0.40 0.33 0.25 0.15 0.09 0.06 0.05 0.04 0.04 0.03 0.02 0.02 0.01 0.01 0.01 0.01 0.01 0.01
0.47 0.31 0.23 0.24 0.25 0.24 0.23 0.22 0.17 0.15 0.19 0.19 0.22 0.26 0.27 0.29 0.33 0.44 0.64 0.84 1.09 1.24 1.24 1.15 1.12 1.13 1.28 1.37 1.24 1.08 0.81 0.63 0.49 0.37 0.30 0.22 0.16 0.12 0.08 0.06 0.05 0.04 0.03 0.03 0.03 0.02 0.02 0.01 0.02
0.35 0.28 0.23 0.22 0.20 0.21 0.19 0.20 0.19 0.17 0.16 0.16 0.18 0.21 0.24 0.25 0.31 0.39 0.49 0.72 1.01 1.21 1.32 1.28 1.16 1.18 1.34 1.31 1.13 0.99 0.86 0.78 0.66 0.56 0.49 0.40 0.30 0.23 0.16 0.12 0.10 0.08 0.07 0.06 0.05 0.04 0.03 0.03 0.02
0.48 0.40 0.29 0.25 0.22 0.23 0.19 0.19 0.17 0.16 0.14 0.13 0.15 0.15 0.17 0.20 0.25 0.34 0.39 0.52 0.73 0.99 1.17 1.24 1.24 1.27 1.31 1.27 1.23 1.21 1.24 1.18 1.06 0.93 0.71 0.54 0.44 0.35 0.28 0.21 0.17 0.15 0.14 0.13 0.12 0.11 0.08 0.06 0.06
0.60 0.48 0.34 0.28 0.30 0.28 0.23 0.22 0.14 0.11 0.09 0.09 0.12 0.13 0.13 0.15 0.20 0.25 0.29 0.37 0.50 0.67 0.89 1.00 1.11 1.16 1.22 1.38 1.62 1.64 1.54 1.32 1.08 0.87 0.78 0.74 0.71 0.63 0.52 0.46 0.36 0.29 0.24 0.20 0.20 0.19 0.16 0.14 0.11
0.60 0.38 0.35 0.34 0.43 0.41 0.28 0.27 0.12 0.08 0.06 0.05 0.08 0.11 0.10 0.11 0.15 0.19 0.21 0.25 0.35 0.44 0.62 0.79 0.97 1.08 1.08 1.17 1.33 1.41 1.37 1.12 0.94 0.92 0.95 0.98 0.94 0.87 0.80 0.70 0.58 0.47 0.39 0.33 0.34 0.32 0.29 0.27 0.23
0.53 0.35 0.42 0.48 0.52 0.48 0.29 0.23 0.13 0.07 0.06 0.04 0.05 0.07 0.07 0.08 0.11 0.13 0.13 0.16 0.20 0.30 0.47 0.63 0.77 0.95 0.98 1.00 1.08 1.27 1.36 1.31 1.23 1.13 1.05 0.97 0.94 0.91 0.88 0.81 0.74 0.62 0.55 0.51 0.50 0.47 0.46 0.43 0.40
0.62 0.63 0.71 0.77 0.91 0.78 0.26 0.18 0.11 0.05 0.05 0.04 0.03 0.04 0.04 0.06 0.08 0.08 0.08 0.11 0.14 0.19 0.28 0.42 0.58 0.78 0.92 0.98 1.04 1.11 1.20 1.27 1.23 1.12 1.06 1.02 0.98 0.92 0.88 0.85 0.80 0.76 0.70 0.64 0.63 0.64 0.60 0.56 0.53
1.03 1.31 1.56 1.51 1.31 0.64 0.14 0.12 0.09 0.03 0.03 0.04 0.03 0.03 0.04 0.04 0.05 0.06 0.06 0.07 0.10 0.13 0.17 0.24 0.32 0.45 0.65 0.83 0.95 1.01 1.08 1.15 1.14 1.10 1.07 1.07 1.00 0.90 0.86 0.91 0.88 0.85 0.82 0.79 0.78 0.71 0.65 0.64 0.61
1.03 1.17 1.17 0.97 0.61 0.27 0.12 0.11 0.07 0.02 0.02 0.03 0.02 0.03 0.04 0.03 0.03 0.04 0.05 0.07 0.08 0.09 0.10 0.14 0.19 0.25 0.36 0.53 0.63 0.72 0.85 0.95 0.95 0.95 0.91 0.90 0.88 0.86 0.89 0.92 0.92 0.88 0.84 0.81 0.77 0.72 0.67 0.67 0.68
0.96 0.86 0.65 0.74 0.53 0.34 0.17 0.07 0.04 0.02 0.03 0.04 0.04 0.03 0.03 0.04 0.03 0.03 0.04 0.05 0.06 0.06 0.06 0.08 0.10 0.15 0.22 0.31 0.41 0.50 0.58 0.65 0.69 0.69 0.68 0.71 0.72 0.71 0.70 0.71 0.76 0.76 0.73 0.73 0.74 0.70 0.66 0.66 0.64
0.87 0.72 0.75 0.96 0.76 0.49 0.20 0.07 0.06 0.05 0.06 0.07 0.06 0.04 0.03 0.03 0.03 0.03 0.03 0.03 0.04 0.04 0.04 0.05 0.06 0.09 0.14 0.19 0.26 0.33 0.42 0.46 0.52 0.57 0.55 0.53 0.55 0.56 0.56 0.56 0.56 0.57 0.57 0.58 0.61 0.60 0.60 0.61 0.57
0.68 0.77 0.80 0.79 0.61 0.58 0.35 0.14 0.07 0.07 0.10 0.11 0.09 0.05 0.03 0.03 0.03 0.03 0.03 0.02 0.02 0.03 0.05 0.05 0.05 0.06 0.08 0.12 0.17 0.19 0.24 0.29 0.35 0.40 0.41 0.40 0.39 0.39 0.40 0.39 0.40 0.40 0.41 0.41 0.42 0.44 0.47 0.50 0.51
0.52 0.52 0.62 0.82 0.62 0.49 0.42 0.19 0.06 0.07 0.10 0.13 0.13 0.09 0.05 0.03 0.03 0.03 0.03 0.02 0.03 0.04 0.05 0.05 0.05 0.06 0.07 0.08 0.10 0.13 0.17 0.20 0.22 0.26 0.28 0.27 0.27 0.28 0.28 0.28 0.27 0.27 0.27 0.27 0.27 0.30 0.33 0.37 0.41

GEFSSGP_prec_meanprecacc_126.txt.gz
Total_Precipitation_Accumulation
0.23 0.27 0.31 0.39 0.33 0.23 0.10 0.03 0.01 0.01 0.01 0.01 0.02 0.02 0.02 0.03 0.04 0.06 0.03 0.00 0.00 0.01 0.04 0.09 0.17 0.19 0.15 0.11 0.07 0.05 0.05 0.06 0.08 0.11 0.12 0.12 0.11 0.12 0.17 0.20 0.21 0.22 0.23 0.27 0.33 0.33 0.27 0.25 0.20
0.27 0.37 0.50 0.55 0.37 0.23 0.11 0.03 0.01 0.01 0.01 0.01 0.02 0.02 0.01 0.02 0.03 0.04 0.03 0.01 0.00 0.01 0.03 0.07 0.13 0.16 0.14 0.10 0.06 0.04 0.05 0.06 0.08 0.11 0.13 0.14 0.13 0.15 0.19 0.21 0.19 0.19 0.21 0.23 0.20 0.14 0.11 0.12 0.11
0.43 0.57 0.70 0.60 0.43 0.24 0.11 0.03 0.01 0.02 0.02 0.01 0.02 0.02 0.03 0.04 0.04 0.05 0.04 0.02 0.01 0.01 0.03 0.08 0.11 0.14 0.13 0.09 0.05 0.05 0.05 0.06 0.08 0.10 0.13 0.14 0.14 0.15 0.17 0.17 0.15 0.14 0.14 0.12 0.07 0.05 0.05 0.05 0.04
0.66 0.86 0.85 0.66 0.40 0.18 0.08 0.04 0.02 0.02 0.02 0.02 0.02 0.04 0.06 0.04 0.05 0.06 0.06 0.04 0.02 0.04 0.05 0.11 0.13 0.14 0.12 0.08 0.06 0.06 0.06 0.06 0.07 0.08 0.10 0.14 0.14 0.14 0.14 0.12 0.09 0.09 0.07 0.06 0.04 0.03 0.03 0.02 0.02
0.89 1.00 0.91 0.64 0.30 0.13 0.06 0.05 0.04 0.03 0.03 0.04 0.04 0.06 0.11 0.08 0.07 0.10 0.10 0.08 0.05 0.06 0.09 0.15 0.16 0.15 0.13 0.09 0.07 0.07 0.07 0.07 0.07 0.07 0.10 0.13 0.15 0.14 0.11 0.07 0.06 0.05 0.05 0.04 0.03 0.03 0.02 0.01 0.01
1.03 1.09 0.90 0.54 0.22 0.09 0.06 0.06 0.06 0.05 0.04 0.06 0.09 0.13 0.18 0.16 0.14 0.16 0.18 0.13 0.08 0.08 0.14 0.21 0.23 0.18 0.13 0.10 0.09 0.08 0.08 0.08 0.08 0.09 0.11 0.13 0.13 0.11 0.09 0.07 0.06 0.05 0.05 0.04 0.03 0.03 0.02 0.01 0.01
0.96 0.97 0.71 0.39 0.18 0.09 0.06 0.08 0.09 0.09 0.07 0.07 0.11 0.18 0.28 0.29 0.27 0.24 0.26 0.24 0.18 0.16 0.23 0.27 0.29 0.25 0.18 0.15 0.13 0.10 0.09 0.08 0.09 0.11 0.12 0.11 0.10 0.09 0.07 0.07 0.06 0.05 0.04 0.04 0.03 0.03 0.02 0.02 0.01
0.90 1.04 0.61 0.36 0.19 0.11 0.08 0.09 0.11 0.13 0.11 0.09 0.14 0.22 0.30 0.35 0.41 0.40 0.40 0.43 0.38 0.33 0.35 0.34 0.32 0.27 0.20 0.16 0.14 0.11 0.08 0.08 0.09 0.09 0.08 0.08 0.07 0.07 0.06 0.05 0.04 0.04 0.03 0.03 0.03 0.03 0.03 0.02 0.01
0.86 1.09 0.65 0.30 0.22 0.14 0.11 0.13 0.13 0.14 0.16 0.15 0.16 0.22 0.31 0.41 0.55 0.59 0.62 0.63 0.62 0.57 0.50 0.45 0.39 0.31 0.21 0.17 0.13 0.11 0.08 0.07 0.07 0.07 0.06 0.07 0.08 0.06 0.04 0.03 0.02 0.02 0.02 0.03 0.02 0.02 0.02 0.01 0.01
0.82 0.83 0.55 0.31 0.26 0.22 0.20 0.21 0.22 0.24 0.25 0.24 0.24 0.34 0.48 0.68 0.80 0.76 0.62 0.60 0.61 0.64 0.64 0.55 0.45 0.35 0.28 0.20 0.16 0.14 0.10 0.08 0.07 0.06 0.06 0.07 0.08 0.06 0.03 0.03 0.02 0.02 0.02 0.02 0.02 0.01 0.01 0.00 0.00
0.56 0.48 0.40 0.38 0.34 0.30 0.30 0.28 0.25 0.31 0.30 0.27 0.24 0.34 0.54 0.83 0.98 0.97 0.90 0.72 0.63 0.62 0.68 0.69 0.57 0.43 0.31 0.24 0.19 0.15 0.11 0.08 0.07 0.05 0.06 0.08 0.08 0.05 0.04 0.03 0.03 0.02 0.02 0.02 0.02 0.01 0.00 0.00 0.00
0.38 0.32 0.37 0.45 0.42 0.35 0.35 0.33 0.30 0.32 0.29 0.25 0.26 0.31 0.48 0.75 0.93 0.98 1.10 1.00 0.87 0.76 0.69 0.75 0.69 0.55 0.39 0.28 0.22 0.19 0.14 0.09 0.06 0.05 0.05 0.06 0.06 0.04 0.03 0.02 0.02 0.02 0.02 0.02 0.02 0.01 0.00 0.00 0.00
0.31 0.32 0.36 0.42 0.43 0.36 0.36 0.37 0.36 0.31 0.29 0.33 0.37 0.44 0.51 0.74 0.95 1.07 1.24 1.32 1.18 0.95 0.84 0.86 0.80 0.65 0.52 0.39 0.27 0.23 0.20 0.13 0.08 0.06 0.05 0.04 0.04 0.03 0.02 0.02 0.01 0.01 0.01 0.02 0.01 0.01 0.00 0.00 0.00
0.27 0.33 0.39 0.43 0.44 0.38 0.40 0.37 0.35 0.31 0.33 0.43 0.44 0.45 0.52 0.75 0.95 1.08 1.29 1.38 1.26 1.16 1.09 1.07 0.99 0.82 0.67 0.53 0.34 0.24 0.22 0.18 0.13 0.09 0.07 0.06 0.04 0.03 0.02 0.02 0.01 0.01 0.01 0.01 0.01 0.01 0.01 0.01 0.01
0.33 0.42 0.48 0.48 0.46 0.41 0.42 0.43 0.32 0.28 0.36 0.43 0.42 0.42 0.47 0.65 0.90 0.99 1.12 1.24 1.28 1.21 1.24 1.24 1.18 1.08 0.85 0.70 0.53 0.34 0.27 0.23 0.18 0.13 0.09 0.06 0.05 0.04 0.03 0.03 0.02 0.02 0.03 0.02 0.02 0.02 0.02 0.01 0.01
0.57 0.62 0.56 0.42 0.44 0.42 0.46 0.41 0.23 0.25 0.33 0.37 0.42 0.42 0.45 0.55 0.78 0.97 1.08 1.25 1.38 1.34 1.29 1.36 1.34 1.26 1.11 0.95 0.78 0.55 0.40 0.31 0.24 0.18 0.12 0.09 0.06 0.04 0.04 0.03 0.03 0.03 0.03 0.03 0.02 0.01 0.01 0.01 0.01
0.81 0.63 0.40 0.33 0.38 0.40 0.39 0.35 0.22 0.22 0.28 0.30 0.38 0.41 0.42 0.48 0.64 0.89 1.05 1.19 1.37 1.41 1.42 1.44 1.42 1.43 1.42 1.34 1.18 0.90 0.66 0.52 0.41 0.32 0.20 0.13 0.09 0.07 0.06 0.05 0.04 0.04 0.03 0.02 0.01 0.01 0.01 0.01 0.01
0.51 0.35 0.27 0.30 0.32 0.30 0.29 0.28 0.23 0.20 0.24 0.25 0.31 0.41 0.42 0.44 0.49 0.66 0.89 1.12 1.42 1.60 1.63 1.58 1.56 1.59 1.73 1.77 1.61 1.37 1.05 0.80 0.60 0.44 0.35 0.27 0.20 0.15 0.11 0.09 0.07 0.06 0.05 0.04 0.03 0.03 0.02 0.02 0.02
0.38 0.31 0.26 0.27 0.26 0.28 0.25 0.27 0.27 0.23 0.22 0.24 0.29 0.36 0.40 0.40 0.45 0.58 0.70 0.98 1.34 1.62 1.72 1.74 1.64 1.66 1.85 1.74 1.53 1.30 1.10 1.01 0.85 0.66 0.55 0.45 0.35 0.27 0.20 0.15 0.13 0.11 0.10 0.09 0.08 0.07 0.06 0.05 0.04
0.52 0.45 0.34 0.31 0.27 0.29 0.26 0.26 0.23 0.22 0.21 0.21 0.26 0.31 0.32 0.31 0.37 0.51 0.59 0.76 1.02 1.41 1.63 1.69 1.73 1.76 1.83 1.75 1.62 1.53 1.49 1.39 1.27 1.11 0.81 0.60 0.48 0.38 0.30 0.24 0.20 0.18 0.18 0.16 0.15 0.14 0.13 0.11 0.09
0.63 0.52 0.39 0.34 0.35 0.32 0.30 0.30 0.20 0.18 0.17 0.18 0.24 0.28 0.27 0.25 0.30 0.40 0.48 0.59 0.75 0.97 1.32 1.48 1.54 1.60 1.64 1.83 2.07 1.99 1.83 1.56 1.29 1.05 0.94 0.84 0.77 0.66 0.54 0.48 0.39 0.32 0.28 0.24 0.24 0.23 0.20 0.19 0.16
0.63 0.41 0.39 0.38 0.48 0.48 0.36 0.40 0.22 0.19 0.18 0.17 0.23 0.26 0.24 0.23 0.25 0.31 0.36 0.42 0.56 0.66 0.92 1.24 1.42 1.49 1.48 1.58 1.79 1.83 1.67 1.35 1.14 1.08 1.09 1.11 1.03 0.92 0.84 0.74 0.62 0.51 0.43 0.37 0.38 0.37 0.34 0.33 0.30
0.56 0.38 0.46 0.52 0.57 0.55 0.37 0.35 0.24 0.18 0.20 0.18 0.19 0.20 0.18 0.20 0.23 0.24 0.23 0.27 0.35 0.47 0.69 1.01 1.23 1.39 1.39 1.37 1.46 1.64 1.68 1.60 1.47 1.34 1.21 1.13 1.09 1.01 0.95 0.86 0.80 0.68 0.61 0.56 0.55 0.52 0.51 0.49 0.46
0.64 0.66 0.76 0.82 0.97 0.89 0.35 0.28 0.21 0.15 0.17 0.15 0.13 0.14 0.14 0.15 0.17 0.18 0.18 0.20 0.24 0.32 0.46 0.74 0.99 1.19 1.32 1.34 1.37 1.43 1.47 1.57 1.49 1.34 1.27 1.19 1.13 1.05 0.98 0.94 0.88 0.83 0.77 0.72 0.70 0.70 0.66 0.62 0.60
1.05 1.36 1.63 1.59 1.39 0.73 0.18 0.17 0.18 0.11 0.12 0.12 0.11 0.12 0.12 0.11 0.12 0.12 0.13 0.15 0.18 0.23 0.30 0.48 0.61 0.78 1.00 1.18 1.27 1.32 1.35 1.42 1.42 1.34 1.28 1.26 1.15 1.02 0.95 1.00 0.97 0.93 0.88 0.86 0.86 0.80 0.74 0.73 0.70
1.05 1.21 1.23 1.04 0.67 0.30 0.15 0.19 0.18 0.10 0.10 0.11 0.10 0.11 0.13 0.13 0.11 0.10 0.11 0.14 0.16 0.18 0.21 0.29 0.37 0.47 0.62 0.83 0.93 1.00 1.11 1.17 1.19 1.21 1.16 1.13 1.07 1.02 1.02 1.03 1.02 0.98 0.93 0.88 0.85 0.81 0.76 0.76 0.75
0.98 0.89 0.67 0.77 0.56 0.37 0.22 0.15 0.13 0.11 0.11 0.12 0.11 0.11 0.13 0.13 0.10 0.10 0.13 0.15 0.14 0.15 0.14 0.18 0.22 0.29 0.38 0.52 0.66 0.73 0.79 0.83 0.88 0.91 0.89 0.93 0.95 0.93 0.90 0.87 0.88 0.88 0.85 0.84 0.83 0.78 0.73 0.73 0.72
0.88 0.74 0.77 0.99 0.78 0.53 0.24 0.14 0.18 0.16 0.15 0.14 0.11 0.10 0.12 0.13 0.12 0.13 0.16 0.15 0.12 0.11 0.11 0.12 0.13 0.16 0.21 0.29 0.41 0.51 0.58 0.62 0.69 0.75 0.72 0.69 0.73 0.76 0.78 0.76 0.74 0.73 0.72 0.73 0.74 0.72 0.70 0.71 0.66
0.69 0.77 0.81 0.80 0.62 0.61 0.39 0.23 0.19 0.17 0.18 0.16 0.15 0.12 0.11 0.11 0.12 0.14 0.15 0.13 0.11 0.11 0.12 0.10 0.09 0.10 0.12 0.17 0.25 0.32 0.38 0.44 0.53 0.56 0.56 0.57 0.56 0.55 0.58 0.58 0.57 0.57 0.58 0.58 0.58 0.59 0.60 0.61 0.60
0.53 0.52 0.63 0.83 0.63 0.51 0.45 0.26 0.14 0.14 0.16 0.17 0.18 0.14 0.11 0.10 0.11 0.13 0.13 0.10 0.10 0.11 0.10 0.09 0.08 0.09 0.10 0.11 0.15 0.21 0.28 0.33 0.37 0.42 0.43 0.41 0.44 0.43 0.42 0.42 0.42 0.40 0.38 0.38 0.39 0.41 0.44 0.48 0.51

GEFSSGP_prec_meanprecacc_132.txt.gz
Total_Precipitation_Accumulation
0.23 0.27 0.33 0.41 0.35 0.24 0.11 0.03 0.01 0.01 0.01 0.02 0.02 0.02 0.02 0.03 0.04 0.07 0.05 0.03 0.03 0.04 0.05 0.10 0.18 0.20 0.16 0.12 0.08 0.05 0.05 0.06 0.08 0.11 0.13 0.12 0.12 0.13 0.18 0.21 0.21 0.23 0.24 0.28 0.34 0.34 0.28 0.26 0.21
0.27 0.39 0.53 0.59 0.39 0.24 0.11 0.03 0.01 0.01 0.01 0.01 0.02 0.02 0.02 0.02 0.04 0.05 0.05 0.04 0.05 0.05 0.06 0.09 0.16 0.18 0.15 0.11 0.06 0.04 0.05 0.07 0.09 0.11 0.13 0.15 0.14 0.17 0.20 0.22 0.20 0.20 0.22 0.24 0.21 0.15 0.12 0.13 0.11
0.44 0.60 0.74 0.66 0.47 0.25 0.11 0.03 0.02 0.02 0.02 0.02 0.02 0.03 0.04 0.05 0.04 0.07 0.07 0.05 0.07 0.08 0.08 0.11 0.15 0.18 0.16 0.11 0.07 0.06 0.06 0.07 0.09 0.11 0.14 0.17 0.16 0.17 0.19 0.19 0.16 0.16 0.16 0.13 0.08 0.06 0.05 0.05 0.05
0.68 0.89 0.92 0.73 0.44 0.20 0.08 0.04 0.03 0.04 0.03 0.02 0.03 0.05 0.07 0.05 0.06 0.07 0.11 0.10 0.08 0.12 0.15 0.18 0.19 0.19 0.17 0.13 0.09 0.08 0.08 0.07 0.08 0.09 0.12 0.16 0.17 0.16 0.16 0.14 0.10 0.10 0.09 0.06 0.04 0.04 0.03 0.02 0.02
0.92 1.04 0.96 0.70 0.34 0.14 0.07 0.06 0.05 0.05 0.05 0.05 0.06 0.07 0.12 0.10 0.10 0.14 0.15 0.14 0.12 0.15 0.19 0.25 0.25 0.22 0.19 0.15 0.13 0.12 0.11 0.08 0.08 0.09 0.11 0.15 0.17 0.15 0.12 0.09 0.08 0.06 0.06 0.05 0.04 0.03 0.02 0.01 0.01
1.06 1.13 0.94 0.58 0.25 0.10 0.06 0.07 0.08 0.07 0.06 0.09 0.11 0.15 0.20 0.19 0.19 0.22 0.25 0.20 0.14 0.15 0.25 0.33 0.36 0.29 0.21 0.16 0.16 0.15 0.14 0.12 0.10 0.10 0.13 0.15 0.16 0.14 0.10 0.09 0.08 0.06 0.06 0.05 0.04 0.03 0.02 0.01 0.01
0.98 1.00 0.75 0.42 0.20 0.11 0.07 0.08 0.11 0.11 0.10 0.12 0.14 0.21 0.32 0.35 0.34 0.32 0.35 0.33 0.25 0.23 0.32 0.39 0.45 0.40 0.30 0.25 0.21 0.17 0.17 0.16 0.14 0.14 0.15 0.14 0.14 0.12 0.09 0.08 0.08 0.07 0.05 0.05 0.04 0.03 0.02 0.02 0.01
0.93 1.08 0.64 0.39 0.22 0.14 0.09 0.10 0.11 0.16 0.16 0.13 0.18 0.26 0.35 0.41 0.48 0.49 0.51 0.55 0.49 0.41 0.43 0.47 0.51 0.45 0.36 0.29 0.24 0.19 0.16 0.15 0.16 0.15 0.12 0.12 0.11 0.11 0.09 0.06 0.07 0.05 0.04 0.04 0.03 0.03 0.03 0.02 0.01
0.90 1.13 0.68 0.32 0.25 0.18 0.13 0.14 0.14 0.18 0.24 0.20 0.20 0.26 0.35 0.49 0.65 0.69 0.75 0.76 0.75 0.69 0.60 0.56 0.57 0.53 0.41 0.32 0.27 0.22 0.18 0.16 0.15 0.13 0.12 0.11 0.12 0.10 0.08 0.05 0.04 0.03 0.03 0.03 0.02 0.02 0.02 0.01 0.01
0.86 0.86 0.57 0.33 0.28 0.25 0.21 0.22 0.24 0.30 0.36 0.33 0.29 0.39 0.53 0.76 0.92 0.90 0.76 0.79 0.78 0.82 0.77 0.68 0.60 0.56 0.50 0.40 0.31 0.27 0.22 0.18 0.16 0.13 0.13 0.12 0.12 0.09 0.05 0.05 0.05 0.03 0.02 0.02 0.02 0.01 0.01 0.00 0.00
0.58 0.50 0.41 0.39 0.36 0.33 0.32 0.30 0.28 0.36 0.37 0.38 0.30 0.39 0.60 0.90 1.11 1.15 1.05 0.89 0.85 0.87 0.90 0.85 0.74 0.61 0.53 0.47 0.36 0.29 0.23 0.18 0.16 0.14 0.13 0.13 0.13 0.09 0.06 0.05 0.06 0.04 0.02 0.03 0.03 0.01 0.00 0.00 0.00
0.39 0.34 0.39 0.47 0.44 0.38 0.37 0.35 0.33 0.37 0.35 0.35 0.35 0.38 0.56 0.84 1.06 1.17 1.28 1.17 1.10 1.05 0.98 0.98 0.90 0.75 0.58 0.49 0.40 0.34 0.28 0.21 0.16 0.13 0.12 0.12 0.11 0.08 0.05 0.03 0.03 0.03 0.02 0.03 0.02 0.01 0.00 0.00 0.00
0.32 0.34 0.38 0.44 0.45 0.39 0.40 0.40 0.39 0.36 0.38 0.42 0.47 0.54 0.62 0.86 1.13 1.28 1.45 1.53 1.41 1.21 1.12 1.13 1.02 0.85 0.70 0.58 0.44 0.38 0.35 0.27 0.18 0.14 0.13 0.11 0.09 0.06 0.04 0.03 0.02 0.02 0.01 0.02 0.01 0.01 0.00 0.00 0.00
0.29 0.35 0.42 0.46 0.46 0.41 0.44 0.41 0.39 0.37 0.42 0.53 0.55 0.57 0.64 0.90 1.14 1.30 1.48 1.59 1.49 1.40 1.36 1.35 1.24 1.06 0.85 0.70 0.53 0.39 0.37 0.33 0.27 0.20 0.15 0.14 0.11 0.07 0.04 0.03 0.03 0.02 0.02 0.02 0.01 0.01 0.01 0.01 0.01
0.36 0.46 0.51 0.52 0.49 0.45 0.46 0.49 0.37 0.36 0.46 0.56 0.55 0.55 0.60 0.79 1.08 1.20 1.30 1.40 1.49 1.44 1.49 1.52 1.45 1.34 1.07 0.87 0.74 0.54 0.43 0.40 0.33 0.26 0.20 0.17 0.14 0.11 0.07 0.05 0.04 0.03 0.04 0.03 0.03 0.03 0.02 0.01 0.01
0.60 0.66 0.61 0.46 0.47 0.45 0.53 0.50 0.30 0.34 0.43 0.51 0.53 0.53 0.58 0.68 0.95 1.16 1.25 1.39 1.57 1.57 1.52 1.65 1.66 1.55 1.37 1.14 0.96 0.78 0.60 0.49 0.39 0.30 0.22 0.19 0.17 0.13 0.10 0.07 0.05 0.05 0.05 0.04 0.03 0.03 0.02 0.02 0.02
0.85 0.67 0.44 0.37 0.42 0.44 0.46 0.44 0.30 0.30 0.35 0.39 0.47 0.51 0.56 0.63 0.80 1.08 1.24 1.34 1.53 1.65 1.67 1.70 1.78 1.78 1.73 1.60 1.41 1.15 0.91 0.72 0.58 0.46 0.32 0.23 0.20 0.17 0.13 0.10 0.08 0.07 0.05 0.04 0.03 0.02 0.02 0.02 0.02
0.55 0.38 0.30 0.34 0.36 0.35 0.34 0.36 0.31 0.28 0.31 0.32 0.39 0.49 0.55 0.59 0.66 0.85 1.12 1.29 1.59 1.86 1.92 1.81 1.88 2.01 2.08 2.10 1.90 1.66 1.34 1.05 0.80 0.61 0.49 0.37 0.29 0.25 0.19 0.14 0.11 0.10 0.09 0.07 0.05 0.04 0.03 0.03 0.03
0.41 0.34 0.30 0.32 0.31 0.34 0.31 0.34 0.33 0.30 0.28 0.30 0.36 0.46 0.54 0.53 0.59 0.75 0.95 1.21 1.52 1.86 2.03 1.97 1.90 2.05 2.28 2.11 1.86 1.62 1.41 1.26 1.06 0.86 0.72 0.57 0.44 0.37 0.29 0.21 0.17 0.15 0.13 0.12 0.11 0.10 0.09 0.07 0.06
0.55 0.47 0.37 0.35 0.33 0.36 0.32 0.32 0.30 0.30 0.26 0.26 0.33 0.42 0.46 0.42 0.50 0.67 0.80 0.99 1.22 1.68 1.93 1.94 1.97 2.10 2.27 2.13 1.98 1.89 1.82 1.66 1.49 1.33 1.02 0.77 0.59 0.48 0.40 0.31 0.25 0.22 0.21 0.20 0.19 0.18 0.16 0.14 0.13
0.64 0.54 0.42 0.39 0.41 0.38 0.37 0.37 0.26 0.25 0.23 0.24 0.32 0.39 0.40 0.38 0.44 0.56 0.66 0.80 0.94 1.27 1.65 1.78 1.80 1.92 2.06 2.21 2.47 2.43 2.26 1.95 1.57 1.29 1.16 1.02 0.90 0.77 0.63 0.56 0.45 0.36 0.31 0.28 0.27 0.26 0.24 0.22 0.20
0.65 0.43 0.43 0.43 0.53 0.53 0.41 0.48 0.29 0.26 0.27 0.27 0.34 0.38 0.38 0.37 0.41 0.47 0.52 0.62 0.75 0.94 1.26 1.56 1.74 1.83 1.86 1.95 2.17 2.28 2.12 1.77 1.48 1.33 1.29 1.29 1.18 1.06 0.96 0.83 0.70 0.55 0.46 0.39 0.41 0.39 0.37 0.37 0.34
0.59 0.41 0.49 0.55 0.61 0.59 0.41 0.43 0.34 0.28 0.31 0.32 0.35 0.38 0.37 0.35 0.37 0.39 0.38 0.44 0.54 0.71 0.97 1.26 1.52 1.73 1.74 1.69 1.77 1.98 2.06 1.96 1.82 1.67 1.48 1.32 1.24 1.15 1.07 0.97 0.87 0.73 0.64 0.58 0.57 0.55 0.54 0.53 0.50
0.66 0.68 0.78 0.86 1.01 0.95 0.40 0.36 0.31 0.28 0.34 0.33 0.31 0.37 0.37 0.37 0.37 0.35 0.32 0.35 0.40 0.49 0.65 0.91 1.18 1.48 1.66 1.67 1.68 1.72 1.77 1.86 1.80 1.66 1.59 1.42 1.29 1.19 1.10 1.03 0.96 0.89 0.82 0.75 0.72 0.73 0.69 0.66 0.63
1.06 1.39 1.68 1.64 1.44 0.80 0.23 0.23 0.30 0.25 0.30 0.30 0.31 0.34 0.33 0.32 0.31 0.28 0.28 0.28 0.32 0.38 0.46 0.63 0.77 1.02 1.32 1.48 1.55 1.57 1.60 1.67 1.68 1.63 1.57 1.52 1.35 1.18 1.10 1.10 1.05 1.00 0.93 0.89 0.89 0.83 0.76 0.75 0.72
1.07 1.24 1.27 1.08 0.71 0.34 0.18 0.27 0.32 0.24 0.25 0.27 0.28 0.30 0.34 0.35 0.33 0.28 0.26 0.26 0.30 0.33 0.36 0.44 0.53 0.69 0.92 1.10 1.19 1.23 1.35 1.41 1.41 1.45 1.41 1.36 1.29 1.21 1.19 1.18 1.12 1.06 0.99 0.93 0.88 0.84 0.78 0.78 0.78
1.00 0.90 0.69 0.81 0.58 0.39 0.27 0.23 0.24 0.22 0.24 0.27 0.26 0.26 0.29 0.30 0.28 0.27 0.26 0.27 0.29 0.29 0.29 0.34 0.41 0.47 0.61 0.74 0.88 0.97 1.03 1.05 1.07 1.11 1.10 1.12 1.13 1.11 1.06 1.03 1.01 0.98 0.93 0.91 0.89 0.82 0.76 0.76 0.75
0.89 0.75 0.79 1.02 0.81 0.55 0.27 0.20 0.29 0.28 0.27 0.26 0.23 0.21 0.24 0.27 0.26 0.26 0.26 0.25 0.26 0.25 0.24 0.26 0.28 0.31 0.37 0.46 0.60 0.71 0.77 0.81 0.88 0.92 0.89 0.83 0.85 0.90 0.91 0.90 0.88 0.86 0.84 0.82 0.82 0.78 0.76 0.75 0.70
0.70 0.79 0.83 0.82 0.63 0.63 0.41 0.29 0.29 0.28 0.29 0.26 0.25 0.23 0.24 0.26 0.29 0.30 0.29 0.27 0.26 0.25 0.23 0.23 0.21 0.22 0.23 0.29 0.40 0.46 0.52 0.59 0.68 0.74 0.73 0.72 0.66 0.65 0.68 0.68 0.68 0.68 0.70 0.70 0.69 0.68 0.68 0.68 0.66
0.53 0.53 0.64 0.84 0.64 0.52 0.47 0.31 0.20 0.22 0.23 0.24 0.26 0.23 0.22 0.23 0.27 0.30 0.30 0.26 0.24 0.25 0.25 0.23 0.21 0.20 0.19 0.21 0.25 0.31 0.39 0.46 0.49 0.58 0.59 0.58 0.58 0.53 0.52 0.52 0.51 0.49 0.46 0.47 0.48 0.49 0.52 0.56 0.58

GEFSSGP_prec_meanprecacc_138.txt.gz
Total_Precipitation_Accumulation
0.23 0.28 0.33 0.42 0.36 0.24 0.11 0.03 0.01 0.01 0.01 0.02 0.02 0.03 0.02 0.03 0.04 0.07 0.05 0.03 0.04 0.05 0.07 0.13 0.22 0.24 0.19 0.14 0.09 0.06 0.06 0.07 0.09 0.12 0.13 0.13 0.13 0.14 0.19 0.22 0.22 0.24 0.25 0.29 0.35 0.35 0.29 0.27 0.21
0.27 0.39 0.54 0.60 0.40 0.24 0.11 0.03 0.01 0.01 0.01 0.01 0.02 0.02 0.02 0.02 0.04 0.05 0.05 0.04 0.06 0.07 0.08 0.13 0.22 0.25 0.21 0.16 0.09 0.06 0.06 0.07 0.10 0.12 0.14 0.16 0.16 0.18 0.21 0.22 0.21 0.21 0.23 0.26 0.22 0.16 0.13 0.13 0.11
0.44 0.60 0.75 0.67 0.47 0.25 0.12 0.03 0.02 0.02 0.02 0.02 0.03 0.03 0.04 0.05 0.04 0.07 0.07 0.05 0.08 0.11 0.12 0.17 0.22 0.26 0.24 0.20 0.14 0.10 0.09 0.08 0.10 0.12 0.16 0.18 0.18 0.19 0.20 0.20 0.17 0.16 0.17 0.14 0.09 0.06 0.06 0.06 0.05
0.68 0.89 0.93 0.74 0.44 0.20 0.09 0.04 0.03 0.04 0.03 0.03 0.04 0.06 0.08 0.06 0.06 0.07 0.12 0.11 0.10 0.16 0.19 0.25 0.28 0.29 0.28 0.24 0.18 0.16 0.14 0.10 0.10 0.12 0.14 0.18 0.20 0.17 0.17 0.15 0.11 0.10 0.09 0.08 0.05 0.04 0.04 0.03 0.02
0.92 1.05 0.97 0.71 0.34 0.14 0.07 0.06 0.05 0.05 0.05 0.05 0.07 0.08 0.13 0.10 0.11 0.15 0.16 0.16 0.14 0.18 0.24 0.32 0.36 0.35 0.32 0.28 0.25 0.21 0.20 0.15 0.12 0.11 0.13 0.17 0.20 0.17 0.14 0.10 0.08 0.07 0.07 0.06 0.05 0.03 0.02 0.01 0.01
1.06 1.14 0.94 0.59 0.25 0.10 0.06 0.07 0.08 0.08 0.07 0.10 0.13 0.17 0.21 0.20 0.21 0.24 0.26 0.22 0.16 0.18 0.30 0.40 0.47 0.43 0.36 0.29 0.27 0.26 0.25 0.22 0.17 0.15 0.16 0.18 0.19 0.17 0.12 0.10 0.08 0.07 0.07 0.06 0.05 0.03 0.02 0.01 0.01
0.98 1.00 0.75 0.42 0.20 0.11 0.07 0.08 0.11 0.12 0.11 0.13 0.16 0.23 0.33 0.36 0.36 0.35 0.37 0.36 0.28 0.26 0.36 0.46 0.55 0.54 0.48 0.42 0.34 0.29 0.27 0.27 0.25 0.23 0.21 0.18 0.17 0.15 0.11 0.10 0.09 0.08 0.07 0.06 0.05 0.04 0.03 0.02 0.01
0.93 1.08 0.64 0.39 0.22 0.14 0.09 0.10 0.12 0.16 0.17 0.15 0.21 0.28 0.37 0.45 0.52 0.52 0.55 0.59 0.53 0.45 0.47 0.54 0.61 0.59 0.52 0.47 0.42 0.35 0.30 0.28 0.29 0.28 0.23 0.20 0.17 0.15 0.12 0.09 0.09 0.07 0.05 0.06 0.05 0.03 0.03 0.02 0.01
0.90 1.14 0.68 0.33 0.25 0.18 0.13 0.14 0.14 0.19 0.25 0.22 0.23 0.30 0.41 0.55 0.71 0.74 0.81 0.82 0.80 0.73 0.66 0.63 0.66 0.65 0.58 0.51 0.46 0.41 0.34 0.30 0.29 0.28 0.25 0.22 0.20 0.15 0.11 0.07 0.07 0.06 0.05 0.04 0.04 0.03 0.02 0.01 0.01
0.87 0.86 0.57 0.33 0.28 0.25 0.22 0.22 0.24 0.31 0.37 0.34 0.32 0.42 0.58 0.84 1.01 0.97 0.81 0.84 0.83 0.87 0.83 0.75 0.70 0.66 0.65 0.59 0.51 0.47 0.39 0.32 0.31 0.27 0.26 0.25 0.21 0.16 0.09 0.08 0.08 0.07 0.05 0.04 0.04 0.02 0.01 0.00 0.00
0.59 0.50 0.42 0.40 0.36 0.33 0.33 0.30 0.29 0.37 0.38 0.39 0.32 0.42 0.65 1.00 1.24 1.23 1.12 0.94 0.90 0.92 0.97 0.94 0.84 0.72 0.65 0.65 0.54 0.48 0.41 0.35 0.32 0.27 0.25 0.24 0.24 0.19 0.14 0.10 0.11 0.09 0.06 0.06 0.05 0.03 0.00 0.00 0.00
0.39 0.34 0.39 0.48 0.45 0.39 0.38 0.36 0.34 0.38 0.36 0.36 0.37 0.43 0.62 0.92 1.21 1.27 1.37 1.26 1.16 1.10 1.04 1.06 1.00 0.87 0.70 0.64 0.58 0.51 0.44 0.38 0.34 0.28 0.24 0.23 0.21 0.17 0.13 0.10 0.08 0.07 0.05 0.06 0.04 0.02 0.01 0.00 0.00
0.32 0.34 0.39 0.45 0.46 0.41 0.42 0.42 0.41 0.38 0.40 0.45 0.50 0.60 0.70 0.94 1.27 1.41 1.56 1.64 1.48 1.27 1.19 1.21 1.12 0.97 0.83 0.71 0.62 0.55 0.51 0.41 0.35 0.33 0.28 0.22 0.17 0.13 0.12 0.10 0.08 0.07 0.05 0.05 0.04 0.02 0.01 0.01 0.00
0.29 0.36 0.42 0.46 0.47 0.42 0.47 0.44 0.41 0.39 0.46 0.58 0.60 0.65 0.76 1.00 1.26 1.46 1.61 1.71 1.58 1.48 1.43 1.44 1.33 1.17 0.97 0.83 0.69 0.57 0.55 0.49 0.44 0.39 0.32 0.27 0.21 0.15 0.11 0.10 0.08 0.07 0.05 0.04 0.03 0.03 0.02 0.01 0.01
0.36 0.46 0.52 0.53 0.51 0.47 0.49 0.51 0.39 0.37 0.51 0.62 0.61 0.64 0.72 0.90 1.19 1.36 1.46 1.52 1.60 1.54 1.61 1.62 1.55 1.45 1.19 1.00 0.88 0.71 0.61 0.57 0.49 0.45 0.39 0.32 0.27 0.21 0.15 0.11 0.09 0.08 0.07 0.06 0.05 0.04 0.03 0.02 0.01
0.61 0.67 0.62 0.48 0.50 0.48 0.57 0.54 0.34 0.37 0.49 0.60 0.62 0.63 0.68 0.76 1.04 1.29 1.42 1.52 1.68 1.67 1.66 1.78 1.78 1.66 1.49 1.27 1.10 0.93 0.76 0.67 0.54 0.47 0.43 0.36 0.31 0.25 0.20 0.14 0.11 0.10 0.09 0.07 0.06 0.05 0.03 0.02 0.02
0.86 0.69 0.45 0.40 0.44 0.47 0.50 0.49 0.37 0.35 0.43 0.52 0.59 0.60 0.64 0.70 0.89 1.18 1.37 1.45 1.62 1.75 1.79 1.83 1.91 1.90 1.85 1.73 1.54 1.31 1.05 0.90 0.76 0.62 0.52 0.43 0.36 0.29 0.23 0.17 0.13 0.12 0.11 0.08 0.06 0.04 0.03 0.02 0.02
0.57 0.40 0.31 0.37 0.38 0.37 0.38 0.43 0.40 0.34 0.39 0.43 0.53 0.61 0.66 0.68 0.74 0.95 1.24 1.39 1.66 1.95 2.03 1.94 2.01 2.13 2.19 2.22 2.04 1.83 1.48 1.17 0.95 0.76 0.65 0.58 0.49 0.40 0.31 0.24 0.19 0.16 0.15 0.13 0.10 0.07 0.05 0.03 0.03
0.43 0.35 0.31 0.33 0.33 0.36 0.35 0.39 0.41 0.38 0.38 0.42 0.51 0.59 0.65 0.63 0.67 0.86 1.08 1.35 1.60 1.95 2.15 2.12 2.05 2.18 2.40 2.23 1.98 1.78 1.56 1.37 1.17 0.97 0.84 0.74 0.65 0.58 0.44 0.33 0.27 0.23 0.20 0.18 0.15 0.14 0.11 0.08 0.07
0.56 0.49 0.39 0.38 0.36 0.40 0.37 0.39 0.39 0.39 0.36 0.39 0.47 0.54 0.54 0.50 0.59 0.78 0.95 1.17 1.35 1.78 2.06 2.08 2.13 2.24 2.40 2.26 2.10 2.03 1.98 1.78 1.57 1.43 1.12 0.88 0.75 0.67 0.59 0.47 0.37 0.32 0.29 0.26 0.24 0.22 0.20 0.16 0.15
0.65 0.55 0.44 0.43 0.45 0.42 0.40 0.42 0.35 0.34 0.31 0.33 0.42 0.49 0.48 0.46 0.54 0.66 0.81 0.99 1.07 1.37 1.76 1.91 1.94 2.07 2.20 2.37 2.61 2.57 2.43 2.11 1.68 1.39 1.27 1.14 1.04 0.93 0.80 0.73 0.59 0.47 0.40 0.34 0.33 0.31 0.28 0.26 0.22
0.66 0.44 0.44 0.45 0.56 0.56 0.44 0.55 0.37 0.33 0.34 0.35 0.43 0.47 0.47 0.48 0.51 0.60 0.70 0.80 0.89 1.04 1.37 1.70 1.88 1.99 2.01 2.10 2.32 2.43 2.27 1.92 1.59 1.40 1.38 1.40 1.31 1.22 1.13 0.99 0.86 0.70 0.57 0.48 0.47 0.44 0.41 0.41 0.38
0.60 0.42 0.50 0.56 0.62 0.62 0.44 0.51 0.42 0.35 0.41 0.42 0.45 0.49 0.49 0.51 0.53 0.57 0.60 0.63 0.71 0.85 1.14 1.47 1.72 1.93 1.92 1.85 1.93 2.13 2.22 2.11 1.94 1.76 1.58 1.47 1.41 1.30 1.25 1.15 1.04 0.91 0.78 0.70 0.67 0.62 0.59 0.57 0.54
0.67 0.69 0.79 0.87 1.03 0.98 0.44 0.43 0.38 0.39 0.48 0.47 0.45 0.52 0.54 0.59 0.60 0.59 0.56 0.56 0.63 0.70 0.86 1.16 1.43 1.72 1.87 1.82 1.84 1.89 1.94 2.04 1.96 1.79 1.70 1.56 1.50 1.41 1.27 1.21 1.15 1.06 0.98 0.90 0.85 0.84 0.78 0.72 0.68
1.08 1.41 1.71 1.67 1.47 0.84 0.27 0.29 0.39 0.38 0.43 0.45 0.46 0.50 0.50 0.49 0.49 0.49 0.49 0.49 0.56 0.62 0.68 0.89 1.04 1.30 1.55 1.68 1.72 1.76 1.80 1.86 1.85 1.76 1.69 1.66 1.51 1.39 1.32 1.28 1.24 1.20 1.11 1.06 1.03 0.97 0.89 0.84 0.79
1.08 1.26 1.30 1.10 0.73 0.37 0.21 0.32 0.40 0.35 0.36 0.39 0.42 0.45 0.48 0.50 0.49 0.47 0.47 0.50 0.58 0.59 0.64 0.74 0.84 0.98 1.19 1.35 1.42 1.46 1.56 1.62 1.60 1.60 1.54 1.51 1.45 1.37 1.38 1.39 1.31 1.26 1.21 1.12 1.05 0.98 0.91 0.90 0.87
1.01 0.92 0.71 0.84 0.60 0.41 0.29 0.26 0.28 0.28 0.32 0.35 0.35 0.36 0.41 0.43 0.43 0.44 0.44 0.49 0.54 0.56 0.58 0.64 0.72 0.76 0.85 0.99 1.14 1.23 1.26 1.26 1.25 1.27 1.25 1.27 1.29 1.25 1.21 1.22 1.20 1.16 1.12 1.09 1.05 0.96 0.88 0.88 0.87
0.90 0.76 0.81 1.04 0.83 0.56 0.29 0.22 0.33 0.33 0.33 0.32 0.31 0.30 0.35 0.39 0.41 0.41 0.41 0.43 0.46 0.48 0.48 0.53 0.58 0.57 0.61 0.69 0.81 0.92 1.01 1.02 1.05 1.07 1.03 0.98 1.01 1.04 1.05 1.05 1.04 1.02 1.00 0.98 0.97 0.92 0.89 0.88 0.83
0.70 0.80 0.85 0.84 0.65 0.64 0.42 0.31 0.32 0.33 0.35 0.34 0.33 0.32 0.34 0.36 0.40 0.41 0.41 0.42 0.42 0.42 0.41 0.43 0.42 0.43 0.45 0.52 0.61 0.64 0.74 0.81 0.86 0.88 0.84 0.82 0.78 0.79 0.81 0.80 0.81 0.83 0.85 0.84 0.81 0.80 0.81 0.81 0.78
0.54 0.54 0.65 0.86 0.66 0.53 0.48 0.32 0.23 0.26 0.29 0.32 0.35 0.32 0.31 0.33 0.37 0.40 0.42 0.40 0.40 0.40 0.40 0.41 0.38 0.37 0.37 0.43 0.48 0.49 0.56 0.65 0.67 0.72 0.70 0.68 0.68 0.64 0.64 0.63 0.61 0.61 0.61 0.62 0.62 0.62 0.64 0.68 0.69

GEFSSGP_prec_meanprecacc_144.txt.gz
Total_Precipitation_Accumulation
0.23 0.28 0.33 0.42 0.36 0.24 0.11 0.03 0.01 0.01 0.01 0.02 0.02 0.03 0.02 0.03 0.04 0.07 0.05 0.04 0.04 0.05 0.09 0.17 0.27 0.28 0.23 0.19 0.13 0.10 0.09 0.10 0.12 0.15 0.16 0.15 0.14 0.16 0.20 0.23 0.23 0.25 0.26 0.31 0.36 0.36 0.31 0.29 0.22
0.27 0.39 0.54 0.60 0.40 0.24 0.11 0.03 0.01 0.01 0.01 0.01 0.02 0.02 0.02 0.02 0.04 0.05 0.05 0.05 0.07 0.08 0.10 0.17 0.27 0.30 0.26 0.20 0.13 0.11 0.11 0.12 0.14 0.17 0.19 0.21 0.19 0.20 0.23 0.25 0.22 0.22 0.24 0.27 0.23 0.17 0.13 0.14 0.12
0.44 0.60 0.76 0.67 0.47 0.26 0.12 0.03 0.02 0.02 0.02 0.02 0.03 0.03 0.04 0.05 0.04 0.07 0.07 0.05 0.08 0.12 0.14 0.19 0.27 0.32 0.30 0.25 0.18 0.15 0.14 0.15 0.16 0.19 0.22 0.25 0.25 0.24 0.23 0.24 0.19 0.17 0.18 0.15 0.10 0.07 0.06 0.06 0.05
0.68 0.90 0.93 0.74 0.44 0.20 0.09 0.04 0.03 0.04 0.03 0.03 0.04 0.06 0.08 0.06 0.07 0.07 0.12 0.11 0.10 0.16 0.21 0.28 0.33 0.35 0.35 0.30 0.24 0.21 0.21 0.18 0.18 0.19 0.22 0.26 0.28 0.26 0.23 0.19 0.13 0.11 0.10 0.08 0.06 0.05 0.04 0.03 0.02
0.92 1.05 0.97 0.71 0.34 0.14 0.07 0.06 0.05 0.05 0.05 0.05 0.07 0.08 0.13 0.10 0.11 0.15 0.17 0.16 0.14 0.18 0.25 0.35 0.41 0.41 0.39 0.36 0.33 0.29 0.28 0.24 0.22 0.20 0.22 0.26 0.28 0.25 0.20 0.13 0.10 0.08 0.07 0.06 0.05 0.04 0.03 0.02 0.01
1.06 1.14 0.94 0.59 0.25 0.10 0.06 0.07 0.08 0.08 0.07 0.10 0.13 0.17 0.21 0.21 0.22 0.24 0.27 0.22 0.16 0.19 0.30 0.42 0.52 0.50 0.44 0.40 0.38 0.35 0.32 0.30 0.28 0.26 0.27 0.28 0.28 0.24 0.18 0.13 0.10 0.08 0.07 0.07 0.06 0.04 0.02 0.02 0.01
0.98 1.00 0.75 0.42 0.20 0.11 0.07 0.08 0.11 0.12 0.11 0.13 0.16 0.23 0.33 0.37 0.37 0.35 0.38 0.37 0.29 0.26 0.37 0.48 0.60 0.61 0.56 0.51 0.46 0.41 0.36 0.35 0.34 0.33 0.34 0.30 0.26 0.23 0.18 0.14 0.12 0.10 0.08 0.07 0.06 0.04 0.03 0.02 0.02
0.93 1.08 0.64 0.39 0.22 0.14 0.09 0.10 0.12 0.16 0.17 0.15 0.21 0.29 0.37 0.46 0.53 0.54 0.57 0.61 0.54 0.46 0.49 0.56 0.65 0.65 0.59 0.55 0.53 0.49 0.43 0.40 0.40 0.39 0.35 0.32 0.27 0.24 0.21 0.15 0.12 0.10 0.08 0.07 0.06 0.05 0.03 0.03 0.02
0.90 1.14 0.68 0.33 0.25 0.18 0.14 0.14 0.14 0.19 0.25 0.22 0.24 0.30 0.41 0.56 0.73 0.78 0.85 0.86 0.84 0.76 0.68 0.67 0.71 0.71 0.65 0.60 0.56 0.54 0.49 0.44 0.42 0.39 0.35 0.33 0.31 0.26 0.20 0.13 0.10 0.09 0.08 0.07 0.07 0.05 0.03 0.02 0.01
0.87 0.86 0.57 0.33 0.28 0.25 0.22 0.22 0.24 0.31 0.37 0.34 0.32 0.42 0.59 0.85 1.03 1.00 0.86 0.89 0.88 0.91 0.86 0.78 0.74 0.72 0.72 0.67 0.60 0.60 0.53 0.47 0.44 0.38 0.36 0.35 0.32 0.27 0.17 0.14 0.12 0.09 0.08 0.08 0.07 0.05 0.03 0.01 0.00
0.59 0.50 0.42 0.40 0.36 0.33 0.33 0.30 0.29 0.37 0.38 0.39 0.32 0.42 0.65 1.01 1.27 1.27 1.17 1.00 0.96 0.97 1.01 0.97 0.89 0.78 0.72 0.73 0.63 0.58 0.53 0.49 0.45 0.38 0.36 0.35 0.35 0.31 0.25 0.19 0.19 0.15 0.10 0.09 0.08 0.06 0.03 0.01 0.00
0.39 0.34 0.39 0.48 0.45 0.39 0.38 0.36 0.34 0.38 0.36 0.36 0.37 0.43 0.62 0.93 1.25 1.32 1.41 1.30 1.22 1.16 1.08 1.10 1.04 0.92 0.78 0.72 0.67 0.60 0.54 0.50 0.46 0.39 0.34 0.32 0.30 0.27 0.22 0.18 0.17 0.15 0.10 0.09 0.07 0.05 0.03 0.01 0.01
0.32 0.34 0.39 0.45 0.46 0.41 0.42 0.42 0.41 0.38 0.40 0.45 0.50 0.60 0.70 0.96 1.32 1.49 1.62 1.68 1.54 1.33 1.24 1.25 1.16 1.01 0.89 0.79 0.70 0.63 0.60 0.53 0.47 0.44 0.40 0.31 0.24 0.20 0.18 0.15 0.14 0.13 0.11 0.09 0.06 0.04 0.03 0.02 0.01
0.29 0.36 0.42 0.46 0.47 0.42 0.47 0.44 0.42 0.39 0.46 0.58 0.60 0.65 0.77 1.04 1.32 1.57 1.72 1.80 1.65 1.54 1.48 1.48 1.37 1.21 1.02 0.89 0.76 0.65 0.62 0.61 0.59 0.49 0.43 0.40 0.31 0.23 0.19 0.16 0.14 0.12 0.10 0.09 0.07 0.05 0.03 0.03 0.02
0.36 0.46 0.52 0.53 0.51 0.47 0.49 0.52 0.40 0.38 0.51 0.63 0.61 0.64 0.72 0.95 1.26 1.47 1.57 1.64 1.67 1.58 1.65 1.66 1.60 1.49 1.24 1.05 0.94 0.78 0.69 0.66 0.64 0.59 0.48 0.42 0.37 0.31 0.26 0.21 0.16 0.13 0.12 0.11 0.11 0.09 0.05 0.03 0.02
0.61 0.67 0.62 0.48 0.50 0.48 0.57 0.54 0.35 0.38 0.49 0.61 0.63 0.64 0.70 0.81 1.13 1.39 1.51 1.60 1.73 1.70 1.69 1.81 1.82 1.72 1.55 1.33 1.17 1.00 0.84 0.76 0.66 0.62 0.55 0.45 0.41 0.36 0.33 0.27 0.20 0.17 0.15 0.12 0.12 0.11 0.07 0.04 0.03
0.87 0.69 0.45 0.40 0.45 0.47 0.51 0.51 0.39 0.36 0.45 0.54 0.61 0.61 0.66 0.73 0.95 1.27 1.45 1.50 1.66 1.78 1.82 1.87 1.98 1.97 1.92 1.80 1.62 1.38 1.13 0.99 0.88 0.76 0.66 0.55 0.46 0.40 0.38 0.32 0.25 0.21 0.18 0.14 0.10 0.09 0.08 0.05 0.03
0.57 0.41 0.32 0.37 0.39 0.38 0.39 0.45 0.41 0.37 0.42 0.47 0.58 0.64 0.69 0.71 0.79 1.03 1.32 1.45 1.71 2.00 2.08 1.99 2.12 2.24 2.29 2.31 2.14 1.92 1.57 1.27 1.06 0.89 0.79 0.71 0.60 0.49 0.42 0.38 0.32 0.27 0.24 0.21 0.17 0.12 0.09 0.06 0.05
0.43 0.36 0.31 0.33 0.33 0.37 0.36 0.41 0.43 0.41 0.42 0.49 0.59 0.65 0.70 0.69 0.75 0.97 1.19 1.44 1.70 2.07 2.24 2.19 2.16 2.33 2.54 2.37 2.13 1.90 1.66 1.47 1.28 1.11 0.98 0.87 0.76 0.67 0.54 0.44 0.39 0.34 0.30 0.27 0.24 0.22 0.19 0.14 0.12
0.56 0.49 0.39 0.38 0.37 0.41 0.39 0.41 0.41 0.42 0.40 0.47 0.56 0.62 0.63 0.58 0.66 0.87 1.07 1.29 1.47 1.89 2.15 2.16 2.23 2.36 2.53 2.40 2.24 2.16 2.09 1.88 1.67 1.52 1.24 1.01 0.87 0.77 0.69 0.58 0.48 0.43 0.40 0.37 0.35 0.32 0.28 0.24 0.22
0.65 0.55 0.45 0.44 0.47 0.44 0.42 0.45 0.37 0.37 0.36 0.39 0.52 0.59 0.56 0.53 0.60 0.74 0.90 1.10 1.20 1.47 1.85 2.00 2.06 2.20 2.31 2.47 2.71 2.68 2.54 2.20 1.77 1.47 1.35 1.24 1.17 1.05 0.89 0.84 0.73 0.59 0.51 0.45 0.44 0.41 0.37 0.33 0.29
0.67 0.45 0.45 0.46 0.58 0.58 0.46 0.57 0.40 0.35 0.38 0.39 0.50 0.56 0.55 0.54 0.57 0.67 0.78 0.89 1.01 1.14 1.47 1.81 1.99 2.10 2.11 2.19 2.42 2.53 2.38 2.02 1.67 1.47 1.44 1.46 1.40 1.34 1.26 1.10 0.99 0.86 0.72 0.60 0.58 0.55 0.51 0.50 0.45
0.61 0.43 0.51 0.57 0.63 0.63 0.45 0.52 0.44 0.37 0.43 0.45 0.50 0.56 0.57 0.58 0.61 0.65 0.69 0.73 0.82 0.95 1.25 1.57 1.81 2.01 2.02 1.93 2.01 2.23 2.32 2.20 2.02 1.84 1.65 1.52 1.48 1.41 1.38 1.28 1.16 1.04 0.94 0.86 0.80 0.73 0.70 0.67 0.63
0.69 0.71 0.81 0.88 1.04 1.00 0.45 0.44 0.40 0.41 0.51 0.51 0.49 0.57 0.62 0.67 0.67 0.66 0.67 0.68 0.73 0.80 0.96 1.25 1.53 1.83 1.99 1.92 1.92 1.99 2.04 2.12 2.03 1.86 1.78 1.62 1.56 1.50 1.37 1.33 1.26 1.16 1.10 1.03 1.00 0.98 0.91 0.85 0.79
1.10 1.43 1.73 1.69 1.48 0.86 0.27 0.29 0.41 0.39 0.46 0.48 0.50 0.55 0.59 0.59 0.59 0.57 0.57 0.58 0.67 0.74 0.80 0.99 1.15 1.40 1.68 1.81 1.84 1.86 1.92 1.95 1.94 1.89 1.84 1.77 1.59 1.47 1.41 1.37 1.36 1.31 1.21 1.17 1.16 1.11 1.02 0.97 0.91
1.10 1.27 1.31 1.11 0.74 0.38 0.21 0.33 0.41 0.36 0.39 0.42 0.45 0.50 0.57 0.60 0.62 0.59 0.56 0.60 0.69 0.71 0.77 0.88 0.97 1.10 1.32 1.51 1.59 1.60 1.71 1.77 1.71 1.73 1.70 1.64 1.55 1.44 1.44 1.47 1.41 1.38 1.33 1.25 1.20 1.14 1.07 1.05 1.01
1.04 0.93 0.72 0.85 0.61 0.42 0.30 0.27 0.29 0.30 0.34 0.38 0.38 0.41 0.50 0.54 0.54 0.56 0.57 0.63 0.66 0.68 0.73 0.81 0.88 0.92 1.03 1.19 1.32 1.41 1.44 1.43 1.37 1.37 1.37 1.39 1.39 1.33 1.28 1.29 1.30 1.28 1.25 1.22 1.21 1.14 1.06 1.04 1.02
0.91 0.77 0.82 1.06 0.84 0.58 0.29 0.23 0.35 0.35 0.36 0.36 0.35 0.36 0.43 0.50 0.53 0.55 0.57 0.58 0.58 0.60 0.63 0.70 0.74 0.74 0.80 0.90 0.97 1.11 1.21 1.19 1.19 1.19 1.16 1.11 1.11 1.11 1.11 1.11 1.12 1.11 1.11 1.10 1.09 1.06 1.03 1.01 0.95
0.71 0.81 0.87 0.85 0.66 0.66 0.43 0.32 0.34 0.36 0.38 0.38 0.39 0.39 0.43 0.47 0.54 0.59 0.61 0.60 0.57 0.58 0.59 0.61 0.57 0.58 0.63 0.71 0.77 0.81 0.92 0.99 1.01 1.01 0.95 0.95 0.90 0.87 0.86 0.85 0.86 0.90 0.93 0.94 0.92 0.91 0.92 0.94 0.92
0.54 0.54 0.66 0.88 0.67 0.55 0.50 0.34 0.25 0.29 0.33 0.36 0.41 0.40 0.41 0.44 0.49 0.53 0.59 0.57 0.56 0.57 0.58 0.59 0.52 0.51 0.53 0.59 0.63 0.65 0.73 0.82 0.84 0.88 0.84 0.79 0.79 0.73 0.71 0.69 0.66 0.66 0.68 0.71 0.71 0.71 0.74 0.80 0.81

GEFSSGP_prec_meanprecacc_150.txt.gz
Total_Precipitation_Accumulation
0.23 0.28 0.33 0.42 0.36 0.24 0.11 0.03 0.01 0.01 0.01 0.02 0.02 0.03 0.02 0.03 0.04 0.07 0.05 0.04 0.04 0.06 0.10 0.18 0.28 0.30 0.25 0.21 0.17 0.13 0.14 0.15 0.16 0.18 0.18 0.17 0.16 0.18 0.22 0.25 0.25 0.27 0.28 0.33 0.38 0.37 0.34 0.31 0.23
0.27 0.39 0.55 0.61 0.40 0.24 0.11 0.03 0.01 0.01 0.01 0.01 0.02 0.02 0.02 0.02 0.04 0.05 0.05 0.05 0.07 0.08 0.11 0.19 0.28 0.31 0.28 0.23 0.16 0.14 0.16 0.18 0.21 0.22 0.23 0.25 0.22 0.23 0.25 0.28 0.25 0.24 0.26 0.29 0.26 0.18 0.15 0.15 0.12
0.44 0.60 0.76 0.67 0.47 0.26 0.12 0.03 0.02 0.02 0.02 0.02 0.03 0.03 0.04 0.05 0.04 0.07 0.07 0.05 0.09 0.12 0.14 0.20 0.29 0.33 0.32 0.27 0.21 0.18 0.19 0.21 0.22 0.25 0.29 0.31 0.31 0.30 0.27 0.27 0.22 0.19 0.20 0.18 0.12 0.09 0.07 0.07 0.06
0.68 0.90 0.93 0.74 0.44 0.20 0.09 0.04 0.03 0.04 0.03 0.03 0.04 0.06 0.08 0.06 0.07 0.07 0.12 0.11 0.10 0.17 0.22 0.29 0.34 0.37 0.38 0.33 0.27 0.24 0.25 0.24 0.25 0.25 0.28 0.33 0.36 0.37 0.33 0.26 0.17 0.14 0.12 0.11 0.08 0.06 0.05 0.04 0.03
0.92 1.05 0.97 0.71 0.34 0.14 0.07 0.06 0.05 0.05 0.05 0.05 0.07 0.08 0.13 0.10 0.11 0.15 0.17 0.16 0.14 0.19 0.26 0.36 0.43 0.44 0.42 0.39 0.36 0.34 0.32 0.30 0.28 0.27 0.29 0.33 0.36 0.34 0.29 0.20 0.14 0.10 0.10 0.09 0.07 0.06 0.05 0.03 0.02
1.06 1.14 0.94 0.59 0.25 0.10 0.06 0.07 0.08 0.08 0.07 0.10 0.13 0.17 0.21 0.21 0.22 0.24 0.27 0.22 0.16 0.19 0.32 0.43 0.52 0.51 0.47 0.42 0.41 0.39 0.37 0.36 0.34 0.32 0.34 0.35 0.35 0.32 0.25 0.19 0.14 0.11 0.11 0.10 0.08 0.06 0.04 0.04 0.03
0.98 1.00 0.75 0.42 0.20 0.11 0.07 0.08 0.11 0.12 0.11 0.13 0.16 0.23 0.33 0.37 0.37 0.35 0.38 0.37 0.29 0.27 0.39 0.50 0.62 0.62 0.58 0.54 0.48 0.43 0.41 0.41 0.42 0.42 0.42 0.38 0.32 0.30 0.26 0.21 0.16 0.13 0.11 0.11 0.08 0.06 0.04 0.04 0.03
0.93 1.08 0.64 0.39 0.22 0.14 0.09 0.10 0.12 0.16 0.17 0.15 0.21 0.29 0.37 0.46 0.53 0.54 0.57 0.61 0.55 0.47 0.51 0.59 0.68 0.68 0.62 0.58 0.55 0.51 0.46 0.44 0.46 0.47 0.44 0.39 0.34 0.31 0.27 0.21 0.17 0.13 0.11 0.11 0.09 0.07 0.05 0.04 0.03
0.91 1.14 0.68 0.33 0.25 0.18 0.14 0.14 0.14 0.19 0.25 0.22 0.24 0.30 0.41 0.57 0.73 0.78 0.85 0.87 0.85 0.78 0.71 0.70 0.75 0.75 0.69 0.64 0.60 0.58 0.53 0.48 0.47 0.46 0.41 0.39 0.39 0.35 0.27 0.18 0.14 0.13 0.11 0.10 0.09 0.07 0.05 0.03 0.02
0.88 0.87 0.57 0.33 0.28 0.25 0.22 0.22 0.24 0.31 0.37 0.34 0.32 0.42 0.59 0.85 1.03 1.00 0.86 0.90 0.90 0.93 0.89 0.82 0.79 0.77 0.77 0.72 0.66 0.66 0.59 0.51 0.48 0.42 0.41 0.40 0.40 0.36 0.26 0.21 0.16 0.14 0.11 0.11 0.11 0.09 0.06 0.04 0.02
0.60 0.50 0.42 0.40 0.36 0.33 0.33 0.30 0.29 0.37 0.38 0.39 0.32 0.42 0.65 1.01 1.27 1.27 1.17 1.01 0.97 0.99 1.04 1.01 0.94 0.83 0.77 0.79 0.70 0.65 0.61 0.54 0.49 0.42 0.41 0.42 0.46 0.44 0.39 0.31 0.26 0.23 0.16 0.14 0.13 0.11 0.06 0.04 0.02
0.40 0.34 0.39 0.48 0.45 0.39 0.38 0.36 0.34 0.38 0.36 0.36 0.37 0.43 0.62 0.93 1.25 1.32 1.42 1.31 1.24 1.19 1.12 1.14 1.09 0.98 0.83 0.79 0.73 0.66 0.62 0.57 0.50 0.42 0.39 0.39 0.40 0.39 0.35 0.28 0.24 0.23 0.17 0.15 0.13 0.10 0.06 0.05 0.03
0.33 0.34 0.39 0.45 0.46 0.41 0.42 0.42 0.41 0.38 0.40 0.45 0.50 0.60 0.70 0.96 1.32 1.49 1.62 1.70 1.57 1.36 1.27 1.29 1.20 1.06 0.94 0.85 0.76 0.69 0.67 0.59 0.52 0.49 0.45 0.37 0.30 0.28 0.29 0.24 0.23 0.21 0.16 0.13 0.11 0.08 0.07 0.06 0.04
0.30 0.36 0.42 0.46 0.47 0.42 0.47 0.44 0.42 0.39 0.46 0.58 0.60 0.66 0.77 1.04 1.33 1.57 1.72 1.81 1.67 1.58 1.53 1.52 1.42 1.25 1.06 0.94 0.80 0.70 0.69 0.67 0.65 0.56 0.47 0.45 0.37 0.29 0.28 0.25 0.22 0.20 0.17 0.14 0.10 0.07 0.07 0.07 0.06
0.37 0.47 0.52 0.53 0.51 0.47 0.49 0.52 0.40 0.38 0.51 0.63 0.61 0.64 0.72 0.95 1.27 1.47 1.57 1.65 1.71 1.62 1.69 1.71 1.66 1.54 1.28 1.09 0.98 0.82 0.75 0.74 0.70 0.64 0.53 0.49 0.45 0.38 0.34 0.30 0.24 0.21 0.20 0.19 0.18 0.14 0.10 0.08 0.06
0.63 0.68 0.63 0.49 0.50 0.49 0.57 0.55 0.35 0.38 0.49 0.61 0.63 0.64 0.70 0.81 1.13 1.39 1.51 1.62 1.80 1.75 1.72 1.85 1.86 1.76 1.58 1.36 1.20 1.03 0.89 0.82 0.72 0.68 0.62 0.53 0.48 0.43 0.41 0.35 0.29 0.24 0.23 0.21 0.21 0.20 0.16 0.10 0.07
0.89 0.71 0.46 0.41 0.45 0.48 0.51 0.52 0.39 0.36 0.45 0.54 0.61 0.62 0.67 0.74 0.95 1.27 1.45 1.53 1.75 1.83 1.86 1.91 2.01 2.00 1.95 1.83 1.66 1.42 1.19 1.05 0.95 0.83 0.73 0.63 0.54 0.47 0.45 0.40 0.35 0.33 0.27 0.22 0.18 0.18 0.16 0.13 0.10
0.59 0.41 0.32 0.37 0.39 0.38 0.39 0.45 0.42 0.37 0.42 0.47 0.58 0.65 0.70 0.72 0.79 1.03 1.32 1.48 1.79 2.05 2.12 2.04 2.14 2.26 2.32 2.35 2.18 1.97 1.63 1.33 1.13 0.97 0.88 0.79 0.68 0.58 0.51 0.46 0.40 0.38 0.38 0.31 0.25 0.21 0.18 0.15 0.13
0.44 0.36 0.32 0.33 0.34 0.38 0.36 0.42 0.44 0.41 0.42 0.50 0.59 0.66 0.71 0.70 0.75 0.98 1.20 1.46 1.75 2.12 2.29 2.25 2.20 2.36 2.57 2.40 2.16 1.94 1.71 1.53 1.35 1.19 1.07 0.97 0.87 0.77 0.64 0.54 0.49 0.45 0.42 0.38 0.33 0.32 0.29 0.25 0.23
0.57 0.50 0.41 0.39 0.37 0.42 0.39 0.42 0.42 0.42 0.41 0.47 0.57 0.63 0.63 0.58 0.67 0.89 1.09 1.33 1.51 1.95 2.21 2.22 2.27 2.41 2.57 2.44 2.29 2.22 2.14 1.94 1.75 1.61 1.33 1.11 0.98 0.89 0.80 0.68 0.58 0.53 0.51 0.48 0.44 0.41 0.39 0.36 0.36
0.67 0.57 0.46 0.45 0.47 0.45 0.43 0.46 0.38 0.37 0.37 0.40 0.53 0.60 0.57 0.54 0.62 0.77 0.94 1.14 1.24 1.52 1.90 2.05 2.12 2.28 2.38 2.52 2.76 2.74 2.60 2.28 1.85 1.57 1.46 1.33 1.27 1.16 1.01 0.95 0.85 0.69 0.61 0.57 0.54 0.49 0.46 0.43 0.40
0.68 0.46 0.46 0.47 0.60 0.60 0.47 0.59 0.41 0.36 0.39 0.41 0.51 0.57 0.56 0.55 0.60 0.71 0.82 0.93 1.06 1.20 1.54 1.87 2.07 2.20 2.21 2.27 2.48 2.59 2.44 2.09 1.75 1.56 1.55 1.58 1.50 1.45 1.39 1.24 1.15 1.01 0.84 0.72 0.69 0.64 0.60 0.59 0.55
0.62 0.44 0.52 0.58 0.65 0.65 0.45 0.53 0.45 0.38 0.44 0.47 0.52 0.58 0.58 0.59 0.63 0.69 0.73 0.77 0.85 1.01 1.33 1.65 1.88 2.10 2.12 2.03 2.10 2.30 2.39 2.27 2.10 1.93 1.77 1.66 1.61 1.53 1.50 1.44 1.34 1.22 1.10 0.99 0.93 0.85 0.81 0.77 0.72
0.70 0.72 0.82 0.90 1.07 1.03 0.46 0.45 0.41 0.43 0.53 0.52 0.50 0.59 0.64 0.70 0.71 0.71 0.71 0.71 0.76 0.83 1.00 1.29 1.58 1.90 2.07 2.01 2.02 2.08 2.12 2.20 2.12 1.96 1.91 1.78 1.74 1.65 1.50 1.47 1.43 1.36 1.29 1.20 1.16 1.13 1.03 0.94 0.87
1.11 1.46 1.78 1.73 1.52 0.88 0.28 0.30 0.42 0.40 0.47 0.50 0.52 0.58 0.62 0.64 0.64 0.62 0.60 0.61 0.70 0.78 0.84 1.03 1.19 1.46 1.75 1.87 1.90 1.91 1.98 2.02 2.03 1.99 1.97 1.92 1.75 1.63 1.53 1.47 1.48 1.47 1.38 1.32 1.30 1.25 1.15 1.09 1.01
1.11 1.30 1.36 1.16 0.76 0.39 0.22 0.34 0.42 0.37 0.40 0.44 0.47 0.53 0.61 0.66 0.67 0.64 0.60 0.64 0.74 0.76 0.82 0.92 1.02 1.14 1.37 1.57 1.63 1.65 1.76 1.82 1.78 1.82 1.82 1.77 1.68 1.57 1.56 1.55 1.49 1.49 1.47 1.38 1.33 1.27 1.18 1.15 1.11
1.05 0.96 0.74 0.89 0.63 0.43 0.31 0.27 0.30 0.30 0.34 0.39 0.39 0.43 0.54 0.59 0.60 0.62 0.63 0.67 0.72 0.75 0.79 0.87 0.93 0.96 1.08 1.25 1.37 1.47 1.49 1.50 1.45 1.47 1.49 1.50 1.51 1.46 1.38 1.37 1.37 1.36 1.36 1.34 1.31 1.25 1.16 1.13 1.11
0.93 0.78 0.84 1.09 0.87 0.59 0.30 0.23 0.36 0.36 0.37 0.37 0.37 0.39 0.47 0.55 0.58 0.62 0.65 0.64 0.65 0.68 0.71 0.79 0.81 0.80 0.86 0.96 1.03 1.18 1.27 1.27 1.30 1.30 1.27 1.24 1.23 1.23 1.21 1.19 1.19 1.18 1.19 1.18 1.17 1.13 1.10 1.09 1.02
0.72 0.82 0.88 0.87 0.68 0.68 0.45 0.34 0.35 0.37 0.39 0.40 0.41 0.43 0.48 0.53 0.60 0.65 0.68 0.66 0.64 0.67 0.69 0.71 0.66 0.67 0.71 0.79 0.83 0.88 1.00 1.07 1.12 1.12 1.05 1.06 1.02 0.97 0.95 0.92 0.92 0.96 1.00 1.00 0.99 0.98 0.99 1.01 0.98
0.54 0.55 0.67 0.90 0.68 0.56 0.51 0.35 0.26 0.30 0.34 0.38 0.43 0.43 0.45 0.49 0.54 0.58 0.64 0.64 0.64 0.66 0.68 0.70 0.63 0.60 0.63 0.69 0.70 0.72 0.81 0.91 0.96 1.00 0.94 0.89 0.90 0.84 0.79 0.75 0.72 0.71 0.74 0.77 0.77 0.77 0.81 0.86 0.87

GEFSSGP_prec_meanprecacc_156.txt.gz
Total_Precipitation_Accumulation
0.23 0.28 0.33 0.42 0.36 0.24 0.11 0.03 0.01 0.01 0.01 0.02 0.02 0.03 0.02 0.03 0.04 0.07 0.05 0.04 0.05 0.06 0.10 0.19 0.30 0.31 0.26 0.22 0.18 0.15 0.15 0.17 0.17 0.19 0.19 0.18 0.17 0.18 0.23 0.26 0.26 0.28 0.29 0.35 0.42 0.40 0.35 0.32 0.23
0.27 0.39 0.55 0.61 0.40 0.24 0.11 0.03 0.01 0.01 0.01 0.01 0.02 0.02 0.02 0.02 0.04 0.05 0.05 0.05 0.08 0.09 0.11 0.19 0.29 0.32 0.28 0.24 0.17 0.16 0.18 0.20 0.22 0.23 0.24 0.26 0.24 0.24 0.27 0.29 0.26 0.25 0.27 0.30 0.28 0.22 0.17 0.16 0.13
0.44 0.60 0.76 0.68 0.47 0.26 0.12 0.03 0.02 0.02 0.02 0.02 0.03 0.03 0.04 0.05 0.04 0.07 0.07 0.06 0.10 0.13 0.15 0.21 0.29 0.35 0.34 0.28 0.22 0.19 0.21 0.23 0.24 0.27 0.31 0.33 0.33 0.32 0.30 0.29 0.25 0.22 0.21 0.19 0.14 0.11 0.10 0.09 0.07
0.68 0.90 0.93 0.74 0.44 0.20 0.09 0.04 0.03 0.04 0.03 0.03 0.04 0.06 0.08 0.06 0.07 0.07 0.12 0.11 0.11 0.18 0.22 0.30 0.35 0.39 0.40 0.35 0.29 0.26 0.27 0.26 0.28 0.28 0.32 0.36 0.39 0.39 0.36 0.29 0.20 0.15 0.13 0.12 0.09 0.08 0.08 0.06 0.05
0.92 1.05 0.97 0.71 0.34 0.14 0.07 0.06 0.05 0.05 0.05 0.05 0.07 0.08 0.13 0.10 0.11 0.15 0.17 0.16 0.15 0.20 0.27 0.37 0.44 0.45 0.44 0.41 0.38 0.36 0.35 0.33 0.31 0.30 0.33 0.37 0.39 0.38 0.34 0.23 0.16 0.12 0.11 0.11 0.08 0.07 0.07 0.05 0.04
1.07 1.14 0.95 0.59 0.25 0.10 0.06 0.07 0.08 0.08 0.07 0.10 0.13 0.17 0.21 0.21 0.22 0.24 0.27 0.22 0.17 0.21 0.33 0.44 0.54 0.52 0.48 0.44 0.43 0.42 0.40 0.40 0.38 0.36 0.37 0.38 0.39 0.36 0.29 0.22 0.17 0.13 0.12 0.12 0.10 0.07 0.05 0.05 0.04
0.99 1.00 0.75 0.42 0.20 0.11 0.07 0.08 0.11 0.12 0.11 0.13 0.16 0.23 0.33 0.37 0.37 0.35 0.38 0.37 0.30 0.29 0.40 0.51 0.63 0.64 0.60 0.55 0.51 0.46 0.44 0.44 0.45 0.46 0.46 0.40 0.35 0.33 0.29 0.24 0.19 0.15 0.13 0.13 0.11 0.09 0.07 0.06 0.04
0.94 1.08 0.64 0.39 0.22 0.14 0.09 0.10 0.12 0.16 0.17 0.15 0.21 0.29 0.37 0.46 0.53 0.54 0.58 0.62 0.56 0.49 0.53 0.60 0.69 0.70 0.63 0.59 0.57 0.54 0.49 0.46 0.48 0.50 0.47 0.42 0.36 0.33 0.30 0.23 0.20 0.16 0.13 0.13 0.11 0.10 0.08 0.06 0.04
0.91 1.15 0.69 0.33 0.26 0.18 0.14 0.14 0.14 0.19 0.25 0.22 0.24 0.30 0.41 0.57 0.73 0.78 0.85 0.88 0.86 0.79 0.74 0.73 0.77 0.77 0.70 0.65 0.62 0.61 0.56 0.51 0.49 0.48 0.43 0.41 0.41 0.36 0.29 0.20 0.16 0.15 0.13 0.12 0.12 0.10 0.08 0.05 0.04
0.89 0.89 0.59 0.35 0.29 0.26 0.22 0.22 0.24 0.31 0.37 0.34 0.32 0.42 0.59 0.85 1.03 1.00 0.86 0.90 0.90 0.93 0.90 0.84 0.81 0.79 0.78 0.74 0.68 0.69 0.63 0.55 0.51 0.43 0.42 0.42 0.41 0.37 0.27 0.22 0.18 0.16 0.13 0.13 0.15 0.14 0.10 0.07 0.04
0.61 0.51 0.43 0.42 0.37 0.34 0.33 0.30 0.29 0.37 0.38 0.39 0.32 0.42 0.65 1.01 1.27 1.27 1.17 1.01 0.98 0.99 1.05 1.02 0.96 0.86 0.80 0.81 0.73 0.70 0.66 0.60 0.52 0.45 0.43 0.45 0.48 0.46 0.41 0.32 0.28 0.26 0.18 0.17 0.17 0.17 0.11 0.07 0.05
0.41 0.35 0.40 0.48 0.45 0.40 0.38 0.36 0.34 0.38 0.36 0.36 0.37 0.43 0.62 0.93 1.25 1.32 1.42 1.31 1.24 1.19 1.13 1.15 1.11 1.00 0.86 0.82 0.78 0.73 0.69 0.65 0.55 0.46 0.42 0.42 0.42 0.41 0.37 0.30 0.27 0.26 0.19 0.18 0.16 0.14 0.10 0.08 0.06
0.34 0.35 0.39 0.45 0.46 0.41 0.42 0.42 0.41 0.38 0.40 0.45 0.50 0.60 0.70 0.96 1.32 1.49 1.62 1.70 1.57 1.36 1.27 1.29 1.21 1.07 0.97 0.88 0.80 0.76 0.75 0.70 0.59 0.54 0.49 0.40 0.33 0.30 0.30 0.27 0.26 0.24 0.19 0.16 0.16 0.12 0.10 0.08 0.07
0.30 0.36 0.43 0.47 0.48 0.42 0.47 0.44 0.42 0.39 0.46 0.58 0.60 0.66 0.77 1.04 1.33 1.57 1.72 1.81 1.67 1.58 1.53 1.53 1.43 1.26 1.08 0.97 0.85 0.76 0.76 0.77 0.76 0.62 0.52 0.51 0.41 0.32 0.30 0.28 0.26 0.23 0.20 0.18 0.16 0.14 0.12 0.11 0.08
0.39 0.48 0.53 0.54 0.52 0.48 0.49 0.52 0.40 0.38 0.51 0.63 0.61 0.64 0.72 0.95 1.27 1.47 1.57 1.65 1.71 1.62 1.69 1.72 1.67 1.55 1.31 1.12 1.04 0.88 0.82 0.82 0.78 0.69 0.58 0.55 0.50 0.43 0.39 0.34 0.29 0.25 0.23 0.23 0.24 0.22 0.17 0.13 0.10
0.65 0.70 0.65 0.50 0.51 0.49 0.58 0.55 0.35 0.38 0.49 0.61 0.63 0.64 0.70 0.81 1.13 1.39 1.51 1.62 1.80 1.75 1.72 1.86 1.89 1.78 1.61 1.39 1.26 1.10 0.96 0.89 0.78 0.72 0.66 0.58 0.54 0.49 0.47 0.41 0.35 0.31 0.30 0.27 0.26 0.26 0.23 0.17 0.13
0.93 0.74 0.48 0.42 0.45 0.48 0.52 0.52 0.39 0.36 0.45 0.54 0.61 0.62 0.67 0.74 0.95 1.27 1.45 1.53 1.75 1.83 1.86 1.92 2.05 2.04 1.99 1.86 1.71 1.49 1.26 1.12 1.00 0.87 0.77 0.67 0.59 0.53 0.51 0.46 0.41 0.41 0.37 0.29 0.24 0.24 0.23 0.20 0.16
0.61 0.43 0.33 0.39 0.40 0.39 0.40 0.45 0.42 0.37 0.42 0.48 0.58 0.65 0.70 0.72 0.79 1.03 1.32 1.48 1.79 2.05 2.12 2.05 2.17 2.30 2.36 2.38 2.23 2.05 1.71 1.41 1.20 1.02 0.92 0.84 0.75 0.65 0.58 0.55 0.49 0.46 0.48 0.44 0.35 0.27 0.24 0.21 0.19
0.45 0.38 0.34 0.35 0.34 0.39 0.37 0.42 0.44 0.41 0.42 0.50 0.60 0.66 0.71 0.70 0.75 0.98 1.21 1.47 1.76 2.13 2.29 2.26 2.21 2.38 2.59 2.43 2.21 2.00 1.78 1.60 1.41 1.24 1.12 1.03 0.94 0.85 0.74 0.65 0.62 0.56 0.52 0.50 0.49 0.44 0.37 0.32 0.31
0.59 0.52 0.42 0.40 0.37 0.43 0.40 0.43 0.42 0.42 0.41 0.48 0.57 0.63 0.64 0.59 0.67 0.90 1.11 1.34 1.52 1.96 2.22 2.23 2.29 2.42 2.59 2.47 2.33 2.27 2.20 1.99 1.79 1.64 1.37 1.17 1.06 0.97 0.92 0.81 0.72 0.67 0.62 0.59 0.58 0.56 0.51 0.45 0.45
0.68 0.58 0.47 0.46 0.48 0.46 0.44 0.47 0.38 0.38 0.37 0.41 0.53 0.60 0.57 0.54 0.62 0.77 0.95 1.16 1.25 1.53 1.90 2.06 2.13 2.29 2.41 2.55 2.80 2.78 2.66 2.34 1.90 1.61 1.50 1.39 1.35 1.25 1.12 1.09 1.00 0.83 0.73 0.66 0.64 0.62 0.58 0.53 0.49
0.69 0.46 0.47 0.48 0.61 0.61 0.48 0.60 0.41 0.36 0.39 0.41 0.52 0.58 0.56 0.56 0.60 0.72 0.83 0.94 1.07 1.20 1.54 1.88 2.08 2.22 2.25 2.32 2.54 2.63 2.49 2.15 1.80 1.59 1.59 1.63 1.58 1.55 1.48 1.34 1.28 1.15 0.98 0.83 0.79 0.77 0.74 0.72 0.67
0.63 0.44 0.53 0.60 0.67 0.66 0.46 0.54 0.46 0.39 0.45 0.47 0.53 0.58 0.59 0.60 0.64 0.70 0.74 0.78 0.86 1.01 1.34 1.65 1.89 2.12 2.15 2.08 2.17 2.38 2.45 2.32 2.15 1.96 1.80 1.73 1.69 1.59 1.57 1.53 1.44 1.35 1.25 1.14 1.06 0.99 0.95 0.91 0.85
0.71 0.73 0.83 0.91 1.09 1.05 0.47 0.45 0.42 0.43 0.53 0.53 0.51 0.60 0.65 0.70 0.71 0.72 0.73 0.72 0.77 0.85 1.01 1.31 1.60 1.92 2.10 2.05 2.07 2.15 2.19 2.26 2.16 1.99 1.94 1.85 1.82 1.72 1.57 1.55 1.53 1.46 1.43 1.37 1.33 1.28 1.18 1.10 1.02
1.12 1.47 1.80 1.75 1.54 0.89 0.28 0.31 0.43 0.41 0.47 0.50 0.53 0.59 0.63 0.65 0.65 0.63 0.62 0.62 0.71 0.79 0.86 1.05 1.22 1.49 1.77 1.90 1.93 1.95 2.02 2.06 2.07 2.02 2.00 1.97 1.83 1.70 1.62 1.57 1.57 1.57 1.49 1.47 1.47 1.41 1.30 1.22 1.14
1.12 1.31 1.38 1.18 0.78 0.40 0.22 0.34 0.43 0.37 0.40 0.44 0.48 0.55 0.63 0.68 0.68 0.65 0.61 0.64 0.75 0.77 0.83 0.94 1.04 1.17 1.40 1.60 1.67 1.69 1.80 1.87 1.81 1.85 1.84 1.80 1.74 1.65 1.65 1.65 1.59 1.60 1.58 1.53 1.49 1.43 1.32 1.26 1.21
1.06 0.97 0.76 0.91 0.66 0.44 0.31 0.28 0.31 0.31 0.35 0.40 0.41 0.45 0.56 0.61 0.61 0.64 0.65 0.68 0.73 0.76 0.81 0.88 0.95 0.98 1.10 1.27 1.41 1.50 1.53 1.54 1.49 1.50 1.52 1.54 1.57 1.55 1.49 1.48 1.49 1.47 1.46 1.45 1.45 1.40 1.30 1.25 1.20
0.94 0.79 0.85 1.11 0.90 0.61 0.31 0.24 0.37 0.37 0.38 0.38 0.39 0.41 0.50 0.57 0.60 0.64 0.67 0.65 0.66 0.70 0.73 0.81 0.83 0.82 0.88 0.98 1.06 1.21 1.31 1.30 1.33 1.33 1.31 1.29 1.28 1.31 1.31 1.30 1.32 1.30 1.30 1.30 1.30 1.26 1.23 1.20 1.12
0.73 0.82 0.89 0.88 0.70 0.71 0.47 0.35 0.36 0.38 0.40 0.41 0.43 0.45 0.50 0.55 0.63 0.68 0.71 0.68 0.66 0.70 0.72 0.74 0.69 0.71 0.74 0.81 0.86 0.91 1.02 1.10 1.15 1.15 1.08 1.10 1.06 1.03 1.04 1.02 1.04 1.08 1.11 1.12 1.13 1.12 1.11 1.11 1.07
0.55 0.55 0.68 0.91 0.70 0.57 0.53 0.36 0.26 0.31 0.35 0.39 0.45 0.45 0.47 0.51 0.56 0.61 0.67 0.67 0.66 0.69 0.72 0.75 0.68 0.65 0.67 0.73 0.73 0.76 0.84 0.95 0.99 1.03 0.98 0.93 0.95 0.89 0.87 0.85 0.83 0.83 0.85 0.87 0.88 0.89 0.92 0.95 0.95

GEFSSGP_prec_meanprecacc_162.txt.gz
Total_Precipitation_Accumulation
0.23 0.28 0.33 0.42 0.36 0.24 0.11 0.03 0.01 0.01 0.01 0.02 0.02 0.03 0.02 0.03 0.04 0.07 0.05 0.04 0.05 0.07 0.11 0.21 0.32 0.33 0.28 0.24 0.20 0.17 0.17 0.18 0.19 0.20 0.20 0.19 0.18 0.19 0.25 0.28 0.29 0.30 0.31 0.37 0.43 0.42 0.37 0.35 0.24
0.27 0.39 0.55 0.61 0.41 0.24 0.11 0.03 0.01 0.01 0.01 0.01 0.02 0.02 0.02 0.02 0.04 0.05 0.05 0.06 0.09 0.10 0.12 0.20 0.31 0.35 0.31 0.26 0.20 0.19 0.21 0.22 0.24 0.25 0.26 0.28 0.26 0.26 0.28 0.31 0.30 0.28 0.29 0.32 0.30 0.24 0.20 0.18 0.14
0.44 0.60 0.76 0.68 0.48 0.26 0.12 0.03 0.02 0.02 0.02 0.02 0.03 0.03 0.04 0.05 0.04 0.07 0.07 0.06 0.11 0.15 0.16 0.22 0.31 0.38 0.37 0.31 0.25 0.22 0.24 0.26 0.28 0.30 0.34 0.36 0.36 0.35 0.32 0.32 0.28 0.25 0.23 0.20 0.15 0.12 0.12 0.11 0.09
0.68 0.90 0.94 0.74 0.45 0.20 0.09 0.04 0.03 0.04 0.03 0.03 0.04 0.06 0.08 0.06 0.07 0.08 0.12 0.11 0.11 0.18 0.23 0.31 0.38 0.42 0.43 0.38 0.31 0.29 0.30 0.30 0.32 0.32 0.36 0.40 0.44 0.44 0.40 0.33 0.23 0.18 0.15 0.13 0.11 0.09 0.09 0.07 0.06
0.92 1.05 0.98 0.71 0.34 0.15 0.07 0.06 0.05 0.05 0.05 0.05 0.07 0.08 0.13 0.11 0.12 0.15 0.17 0.16 0.15 0.20 0.28 0.38 0.46 0.48 0.47 0.45 0.41 0.39 0.38 0.36 0.35 0.34 0.38 0.42 0.44 0.42 0.38 0.28 0.20 0.15 0.14 0.13 0.10 0.09 0.08 0.07 0.05
1.07 1.15 0.95 0.59 0.25 0.10 0.06 0.07 0.08 0.08 0.07 0.10 0.13 0.17 0.21 0.21 0.22 0.25 0.27 0.23 0.18 0.21 0.33 0.45 0.55 0.55 0.51 0.48 0.47 0.46 0.44 0.44 0.42 0.40 0.41 0.43 0.44 0.41 0.35 0.27 0.20 0.16 0.15 0.15 0.13 0.10 0.08 0.08 0.07
0.99 1.01 0.76 0.43 0.20 0.11 0.07 0.09 0.11 0.12 0.11 0.13 0.16 0.23 0.33 0.37 0.37 0.36 0.39 0.38 0.31 0.30 0.42 0.53 0.64 0.65 0.62 0.57 0.53 0.49 0.48 0.49 0.50 0.50 0.50 0.44 0.39 0.37 0.34 0.29 0.23 0.18 0.16 0.16 0.14 0.12 0.10 0.10 0.08
0.95 1.09 0.65 0.39 0.22 0.15 0.10 0.10 0.12 0.16 0.17 0.15 0.21 0.29 0.37 0.46 0.53 0.55 0.59 0.63 0.57 0.51 0.56 0.63 0.73 0.72 0.65 0.61 0.58 0.55 0.50 0.49 0.52 0.55 0.51 0.46 0.40 0.37 0.34 0.27 0.23 0.19 0.16 0.15 0.13 0.13 0.12 0.11 0.09
0.93 1.16 0.69 0.34 0.26 0.19 0.15 0.14 0.14 0.19 0.25 0.22 0.24 0.30 0.42 0.57 0.73 0.78 0.86 0.88 0.87 0.80 0.75 0.76 0.81 0.82 0.74 0.67 0.63 0.62 0.57 0.52 0.52 0.51 0.46 0.45 0.45 0.40 0.32 0.22 0.18 0.17 0.16 0.15 0.15 0.14 0.12 0.09 0.08
0.91 0.90 0.61 0.36 0.30 0.26 0.23 0.23 0.24 0.31 0.37 0.34 0.32 0.42 0.59 0.85 1.04 1.00 0.87 0.91 0.90 0.94 0.91 0.86 0.84 0.83 0.83 0.78 0.71 0.70 0.63 0.56 0.53 0.46 0.45 0.45 0.44 0.40 0.30 0.24 0.20 0.18 0.16 0.16 0.18 0.18 0.15 0.10 0.07
0.62 0.53 0.44 0.43 0.38 0.34 0.33 0.31 0.29 0.37 0.38 0.39 0.32 0.43 0.65 1.02 1.27 1.28 1.17 1.01 0.98 1.00 1.06 1.03 0.97 0.88 0.83 0.85 0.77 0.72 0.67 0.60 0.54 0.47 0.47 0.49 0.53 0.50 0.44 0.34 0.30 0.28 0.21 0.20 0.19 0.20 0.14 0.09 0.07
0.43 0.36 0.41 0.49 0.45 0.40 0.39 0.36 0.34 0.38 0.36 0.36 0.37 0.43 0.62 0.94 1.25 1.32 1.42 1.31 1.24 1.19 1.13 1.15 1.11 1.02 0.88 0.85 0.81 0.76 0.71 0.66 0.57 0.48 0.46 0.46 0.46 0.45 0.41 0.33 0.29 0.27 0.21 0.20 0.18 0.16 0.12 0.10 0.08
0.36 0.37 0.40 0.47 0.47 0.41 0.42 0.43 0.42 0.38 0.40 0.45 0.50 0.61 0.70 0.96 1.32 1.49 1.62 1.70 1.57 1.36 1.27 1.29 1.21 1.08 0.98 0.91 0.83 0.78 0.77 0.72 0.62 0.58 0.54 0.45 0.37 0.33 0.34 0.31 0.30 0.27 0.22 0.19 0.18 0.15 0.13 0.12 0.10
0.32 0.38 0.44 0.48 0.50 0.43 0.47 0.44 0.42 0.40 0.46 0.58 0.60 0.66 0.77 1.04 1.33 1.57 1.73 1.81 1.67 1.58 1.53 1.53 1.43 1.26 1.09 0.98 0.87 0.78 0.78 0.78 0.78 0.66 0.57 0.56 0.46 0.36 0.34 0.33 0.30 0.28 0.24 0.21 0.19 0.16 0.16 0.15 0.13
0.40 0.49 0.53 0.54 0.53 0.49 0.50 0.53 0.40 0.38 0.51 0.63 0.61 0.65 0.73 0.95 1.27 1.47 1.57 1.65 1.71 1.62 1.69 1.72 1.67 1.55 1.31 1.13 1.04 0.89 0.84 0.83 0.83 0.74 0.64 0.61 0.56 0.47 0.42 0.39 0.33 0.29 0.28 0.28 0.28 0.26 0.21 0.18 0.14
0.67 0.71 0.65 0.50 0.52 0.50 0.59 0.56 0.36 0.38 0.49 0.61 0.63 0.64 0.70 0.82 1.13 1.39 1.51 1.62 1.80 1.75 1.72 1.86 1.89 1.79 1.61 1.39 1.26 1.10 0.97 0.90 0.83 0.78 0.72 0.65 0.61 0.54 0.51 0.45 0.39 0.36 0.35 0.32 0.32 0.32 0.29 0.23 0.19
0.96 0.75 0.48 0.42 0.46 0.49 0.53 0.53 0.40 0.36 0.45 0.54 0.61 0.62 0.67 0.74 0.95 1.27 1.45 1.53 1.75 1.83 1.86 1.92 2.05 2.04 1.99 1.87 1.72 1.50 1.27 1.13 1.04 0.93 0.83 0.75 0.68 0.60 0.56 0.49 0.45 0.46 0.44 0.36 0.30 0.30 0.28 0.25 0.21
0.63 0.44 0.34 0.39 0.41 0.40 0.41 0.46 0.43 0.37 0.42 0.48 0.58 0.65 0.70 0.72 0.79 1.03 1.32 1.48 1.79 2.05 2.12 2.05 2.17 2.30 2.36 2.38 2.23 2.05 1.72 1.43 1.24 1.08 0.99 0.91 0.83 0.73 0.64 0.58 0.52 0.52 0.55 0.50 0.42 0.35 0.32 0.29 0.25
0.47 0.38 0.34 0.35 0.35 0.39 0.38 0.42 0.45 0.42 0.43 0.50 0.60 0.66 0.71 0.70 0.75 0.98 1.21 1.47 1.76 2.13 2.29 2.26 2.22 2.38 2.59 2.43 2.21 2.01 1.80 1.63 1.45 1.29 1.17 1.09 0.99 0.90 0.79 0.69 0.66 0.61 0.58 0.57 0.56 0.53 0.49 0.45 0.43
0.60 0.53 0.43 0.42 0.38 0.43 0.41 0.44 0.43 0.43 0.42 0.48 0.57 0.63 0.64 0.59 0.67 0.90 1.11 1.34 1.52 1.96 2.22 2.24 2.30 2.43 2.59 2.47 2.33 2.29 2.22 2.01 1.82 1.68 1.41 1.22 1.11 1.01 0.95 0.85 0.76 0.73 0.70 0.67 0.65 0.65 0.62 0.58 0.61
0.69 0.59 0.48 0.47 0.50 0.47 0.44 0.48 0.39 0.38 0.37 0.41 0.54 0.60 0.57 0.54 0.63 0.78 0.96 1.16 1.26 1.53 1.91 2.07 2.14 2.29 2.41 2.55 2.80 2.80 2.70 2.36 1.92 1.63 1.52 1.42 1.39 1.29 1.15 1.12 1.04 0.89 0.82 0.76 0.72 0.70 0.69 0.67 0.64
0.70 0.48 0.48 0.49 0.62 0.63 0.48 0.61 0.42 0.37 0.39 0.41 0.53 0.58 0.57 0.56 0.60 0.72 0.84 0.95 1.07 1.21 1.55 1.89 2.09 2.23 2.25 2.32 2.55 2.65 2.52 2.17 1.83 1.62 1.62 1.67 1.62 1.58 1.52 1.39 1.33 1.20 1.05 0.92 0.88 0.85 0.84 0.86 0.82
0.64 0.45 0.54 0.61 0.68 0.68 0.47 0.55 0.46 0.39 0.45 0.47 0.53 0.59 0.59 0.60 0.64 0.70 0.75 0.79 0.87 1.02 1.35 1.66 1.90 2.12 2.16 2.09 2.19 2.40 2.47 2.35 2.18 2.00 1.86 1.79 1.73 1.63 1.61 1.57 1.50 1.40 1.29 1.19 1.14 1.07 1.04 1.03 0.99
0.71 0.73 0.84 0.91 1.10 1.06 0.47 0.46 0.42 0.43 0.53 0.53 0.51 0.60 0.65 0.70 0.72 0.72 0.73 0.73 0.79 0.86 1.02 1.32 1.61 1.92 2.10 2.06 2.09 2.17 2.22 2.28 2.20 2.05 2.01 1.90 1.86 1.74 1.59 1.57 1.56 1.50 1.47 1.41 1.38 1.35 1.25 1.18 1.13
1.12 1.48 1.82 1.76 1.55 0.90 0.28 0.31 0.43 0.41 0.47 0.50 0.53 0.61 0.65 0.66 0.66 0.64 0.62 0.63 0.73 0.81 0.87 1.07 1.24 1.49 1.78 1.91 1.94 1.97 2.05 2.10 2.12 2.10 2.07 2.03 1.88 1.74 1.65 1.59 1.59 1.59 1.52 1.51 1.52 1.47 1.37 1.29 1.23
1.13 1.32 1.39 1.19 0.78 0.40 0.22 0.34 0.43 0.37 0.40 0.44 0.49 0.56 0.65 0.69 0.69 0.66 0.62 0.65 0.76 0.79 0.85 0.96 1.06 1.18 1.41 1.61 1.69 1.72 1.84 1.92 1.89 1.95 1.92 1.86 1.78 1.69 1.69 1.69 1.61 1.61 1.60 1.55 1.53 1.48 1.38 1.33 1.28
1.07 0.97 0.76 0.92 0.67 0.45 0.32 0.28 0.32 0.32 0.36 0.40 0.42 0.47 0.58 0.62 0.62 0.64 0.65 0.69 0.74 0.77 0.82 0.90 0.97 1.00 1.11 1.30 1.43 1.54 1.58 1.59 1.55 1.56 1.57 1.60 1.62 1.59 1.54 1.56 1.52 1.48 1.48 1.47 1.49 1.45 1.35 1.31 1.26
0.94 0.79 0.86 1.12 0.92 0.62 0.32 0.25 0.38 0.38 0.39 0.40 0.41 0.43 0.52 0.58 0.61 0.64 0.67 0.66 0.66 0.70 0.74 0.82 0.84 0.83 0.90 1.00 1.07 1.23 1.33 1.34 1.36 1.37 1.34 1.32 1.31 1.33 1.33 1.33 1.34 1.31 1.32 1.33 1.33 1.31 1.30 1.28 1.19
0.73 0.83 0.90 0.90 0.71 0.72 0.48 0.36 0.37 0.39 0.41 0.43 0.46 0.47 0.52 0.56 0.63 0.69 0.72 0.69 0.67 0.71 0.73 0.75 0.70 0.72 0.75 0.82 0.87 0.93 1.05 1.12 1.18 1.19 1.11 1.12 1.09 1.05 1.06 1.04 1.06 1.10 1.12 1.15 1.15 1.15 1.17 1.19 1.16
0.56 0.56 0.69 0.93 0.71 0.58 0.54 0.37 0.27 0.31 0.36 0.41 0.48 0.47 0.48 0.52 0.57 0.62 0.69 0.68 0.67 0.70 0.73 0.75 0.68 0.66 0.68 0.73 0.74 0.77 0.85 0.97 1.01 1.06 1.01 0.95 0.97 0.91 0.89 0.87 0.85 0.84 0.87 0.91 0.93 0.94 0.98 1.02 1.03

GEFSSGP_prec_meanprecacc_168.txt.gz
Total_Precipitation_Accumulation
0.24 0.28 0.33 0.42 0.36 0.24 0.11 0.03 0.01 0.01 0.01 0.02 0.02 0.03 0.02 0.03 0.04 0.07 0.05 0.04 0.05 0.07 0.11 0.22 0.33 0.34 0.30 0.27 0.22 0.19 0.20 0.21 0.21 0.22 0.22 0.22 0.20 0.22 0.28 0.31 0.32 0.33 0.33 0.39 0.45 0.43 0.39 0.36 0.25
0.28 0.39 0.55 0.61 0.41 0.24 0.11 0.03 0.01 0.01 0.01 0.01 0.02 0.02 0.02 0.02 0.04 0.05 0.05 0.06 0.09 0.11 0.13 0.21 0.33 0.36 0.32 0.28 0.23 0.21 0.23 0.25 0.28 0.29 0.30 0.31 0.29 0.28 0.31 0.35 0.33 0.31 0.31 0.34 0.32 0.26 0.21 0.18 0.14
0.44 0.61 0.76 0.68 0.48 0.26 0.12 0.03 0.02 0.02 0.02 0.02 0.03 0.03 0.04 0.05 0.05 0.08 0.07 0.06 0.12 0.17 0.17 0.24 0.34 0.40 0.38 0.32 0.26 0.24 0.26 0.28 0.30 0.34 0.38 0.40 0.40 0.39 0.36 0.35 0.31 0.27 0.25 0.22 0.17 0.14 0.13 0.12 0.10
0.69 0.90 0.94 0.74 0.45 0.20 0.09 0.05 0.03 0.04 0.03 0.03 0.04 0.06 0.08 0.06 0.07 0.08 0.12 0.11 0.12 0.20 0.25 0.33 0.40 0.45 0.46 0.40 0.33 0.30 0.32 0.32 0.33 0.35 0.39 0.45 0.50 0.50 0.45 0.37 0.26 0.21 0.18 0.15 0.12 0.11 0.11 0.09 0.07
0.93 1.06 0.98 0.71 0.34 0.15 0.07 0.06 0.05 0.05 0.05 0.05 0.07 0.08 0.13 0.11 0.12 0.16 0.17 0.17 0.15 0.21 0.29 0.40 0.48 0.50 0.50 0.48 0.44 0.41 0.40 0.38 0.37 0.37 0.41 0.47 0.49 0.47 0.43 0.32 0.23 0.18 0.16 0.14 0.11 0.10 0.11 0.10 0.08
1.09 1.16 0.95 0.59 0.25 0.10 0.06 0.07 0.08 0.08 0.07 0.10 0.13 0.17 0.21 0.21 0.22 0.25 0.28 0.23 0.19 0.22 0.34 0.47 0.58 0.57 0.53 0.50 0.49 0.49 0.47 0.46 0.44 0.42 0.44 0.47 0.48 0.45 0.39 0.31 0.24 0.20 0.18 0.17 0.14 0.12 0.10 0.11 0.10
1.01 1.02 0.76 0.43 0.20 0.11 0.07 0.09 0.11 0.12 0.11 0.13 0.16 0.23 0.33 0.37 0.37 0.36 0.41 0.40 0.33 0.32 0.43 0.54 0.67 0.69 0.65 0.60 0.55 0.51 0.51 0.52 0.53 0.52 0.52 0.47 0.42 0.41 0.37 0.33 0.26 0.22 0.19 0.19 0.16 0.14 0.12 0.12 0.12
0.96 1.11 0.66 0.39 0.22 0.15 0.10 0.10 0.12 0.16 0.17 0.15 0.21 0.29 0.37 0.46 0.54 0.56 0.60 0.65 0.59 0.53 0.59 0.67 0.76 0.75 0.69 0.65 0.62 0.57 0.52 0.52 0.55 0.57 0.52 0.47 0.41 0.39 0.36 0.29 0.26 0.22 0.20 0.19 0.16 0.15 0.13 0.13 0.11
0.94 1.18 0.70 0.34 0.26 0.19 0.15 0.15 0.15 0.19 0.25 0.22 0.24 0.30 0.42 0.57 0.75 0.80 0.88 0.90 0.89 0.82 0.78 0.80 0.85 0.86 0.78 0.71 0.67 0.65 0.59 0.55 0.55 0.54 0.48 0.47 0.48 0.43 0.35 0.24 0.20 0.20 0.19 0.18 0.17 0.16 0.14 0.11 0.09
0.92 0.92 0.61 0.36 0.30 0.27 0.24 0.23 0.25 0.31 0.37 0.34 0.32 0.42 0.59 0.86 1.06 1.02 0.88 0.92 0.92 0.96 0.93 0.89 0.88 0.86 0.87 0.81 0.74 0.74 0.67 0.58 0.54 0.48 0.48 0.48 0.47 0.43 0.33 0.27 0.22 0.21 0.19 0.20 0.21 0.21 0.17 0.12 0.09
0.64 0.54 0.45 0.43 0.38 0.35 0.33 0.31 0.29 0.38 0.39 0.39 0.32 0.43 0.66 1.03 1.30 1.31 1.20 1.03 1.00 1.02 1.08 1.05 1.00 0.91 0.87 0.89 0.80 0.75 0.70 0.63 0.55 0.48 0.48 0.51 0.55 0.53 0.48 0.39 0.34 0.31 0.24 0.24 0.23 0.24 0.17 0.12 0.09
0.45 0.37 0.42 0.50 0.46 0.40 0.39 0.37 0.35 0.39 0.37 0.37 0.38 0.43 0.63 0.95 1.27 1.35 1.45 1.34 1.26 1.21 1.15 1.17 1.14 1.05 0.91 0.88 0.85 0.80 0.74 0.67 0.58 0.49 0.46 0.47 0.47 0.47 0.44 0.37 0.33 0.31 0.25 0.24 0.22 0.19 0.15 0.13 0.10
0.38 0.38 0.41 0.49 0.47 0.41 0.42 0.43 0.42 0.39 0.40 0.46 0.51 0.61 0.71 0.98 1.34 1.52 1.66 1.73 1.60 1.39 1.30 1.32 1.24 1.10 1.01 0.94 0.86 0.81 0.81 0.75 0.63 0.58 0.54 0.46 0.38 0.35 0.36 0.33 0.34 0.32 0.26 0.22 0.23 0.19 0.16 0.15 0.13
0.33 0.39 0.44 0.50 0.52 0.44 0.48 0.44 0.42 0.40 0.47 0.59 0.61 0.66 0.78 1.05 1.34 1.59 1.75 1.84 1.70 1.60 1.54 1.54 1.45 1.28 1.10 1.01 0.90 0.81 0.81 0.82 0.81 0.67 0.58 0.57 0.48 0.38 0.36 0.35 0.33 0.31 0.28 0.26 0.25 0.20 0.20 0.19 0.16
0.41 0.50 0.55 0.56 0.56 0.50 0.51 0.53 0.41 0.38 0.52 0.63 0.62 0.65 0.73 0.96 1.28 1.48 1.58 1.67 1.72 1.63 1.70 1.73 1.68 1.56 1.31 1.13 1.06 0.91 0.86 0.86 0.86 0.77 0.65 0.61 0.57 0.50 0.46 0.43 0.37 0.32 0.30 0.32 0.34 0.33 0.27 0.22 0.19
0.68 0.73 0.67 0.52 0.54 0.52 0.60 0.58 0.36 0.38 0.50 0.61 0.64 0.65 0.71 0.82 1.14 1.40 1.52 1.63 1.81 1.75 1.72 1.86 1.89 1.79 1.61 1.39 1.26 1.11 0.99 0.93 0.85 0.81 0.75 0.67 0.62 0.55 0.54 0.49 0.44 0.40 0.39 0.36 0.37 0.38 0.37 0.31 0.26
0.98 0.76 0.49 0.43 0.48 0.51 0.54 0.55 0.41 0.37 0.46 0.55 0.62 0.63 0.68 0.74 0.95 1.27 1.46 1.53 1.76 1.83 1.86 1.92 2.05 2.04 1.99 1.87 1.72 1.50 1.27 1.14 1.05 0.94 0.84 0.77 0.69 0.61 0.57 0.53 0.50 0.50 0.47 0.40 0.34 0.34 0.34 0.32 0.29
0.65 0.45 0.34 0.40 0.42 0.42 0.42 0.48 0.44 0.39 0.44 0.49 0.59 0.66 0.70 0.72 0.79 1.04 1.33 1.48 1.79 2.06 2.12 2.05 2.17 2.30 2.36 2.38 2.23 2.05 1.72 1.43 1.24 1.08 1.00 0.92 0.83 0.74 0.65 0.62 0.57 0.56 0.58 0.54 0.45 0.38 0.36 0.34 0.31
0.47 0.39 0.35 0.36 0.36 0.40 0.39 0.44 0.47 0.44 0.44 0.51 0.61 0.67 0.72 0.70 0.76 0.99 1.22 1.47 1.77 2.13 2.30 2.27 2.22 2.38 2.59 2.43 2.21 2.01 1.80 1.63 1.45 1.29 1.17 1.10 1.00 0.91 0.81 0.71 0.70 0.66 0.62 0.60 0.59 0.56 0.52 0.50 0.49
0.61 0.53 0.44 0.42 0.39 0.44 0.42 0.45 0.44 0.45 0.44 0.50 0.59 0.65 0.65 0.59 0.68 0.91 1.12 1.35 1.53 1.96 2.22 2.24 2.30 2.43 2.59 2.47 2.33 2.29 2.22 2.01 1.82 1.68 1.41 1.22 1.11 1.02 0.97 0.87 0.79 0.76 0.74 0.70 0.69 0.69 0.67 0.63 0.66
0.70 0.61 0.49 0.48 0.50 0.47 0.45 0.49 0.40 0.39 0.39 0.43 0.56 0.62 0.59 0.56 0.64 0.79 0.97 1.17 1.26 1.53 1.91 2.08 2.14 2.29 2.41 2.55 2.80 2.80 2.70 2.36 1.92 1.63 1.53 1.43 1.39 1.29 1.16 1.13 1.06 0.91 0.84 0.78 0.74 0.73 0.73 0.72 0.71
0.71 0.49 0.49 0.50 0.62 0.63 0.49 0.61 0.43 0.38 0.41 0.43 0.55 0.60 0.58 0.57 0.62 0.74 0.85 0.96 1.08 1.21 1.55 1.90 2.09 2.23 2.25 2.32 2.55 2.65 2.52 2.18 1.83 1.62 1.63 1.68 1.63 1.59 1.53 1.40 1.34 1.22 1.06 0.93 0.90 0.87 0.86 0.89 0.86
0.65 0.45 0.54 0.61 0.68 0.68 0.47 0.55 0.47 0.40 0.46 0.49 0.55 0.61 0.61 0.61 0.65 0.72 0.76 0.80 0.88 1.03 1.35 1.67 1.90 2.12 2.16 2.09 2.19 2.40 2.48 2.35 2.19 2.01 1.88 1.81 1.75 1.64 1.62 1.59 1.51 1.41 1.30 1.21 1.15 1.09 1.06 1.05 1.01
0.72 0.74 0.84 0.91 1.10 1.07 0.47 0.46 0.43 0.43 0.54 0.53 0.52 0.62 0.67 0.71 0.73 0.73 0.74 0.74 0.80 0.87 1.03 1.34 1.62 1.93 2.11 2.06 2.09 2.17 2.22 2.29 2.21 2.06 2.02 1.93 1.90 1.77 1.62 1.59 1.58 1.52 1.48 1.43 1.40 1.37 1.27 1.20 1.15
1.13 1.49 1.82 1.77 1.56 0.90 0.28 0.31 0.43 0.41 0.47 0.50 0.53 0.61 0.65 0.66 0.66 0.64 0.63 0.63 0.73 0.83 0.89 1.09 1.25 1.51 1.78 1.91 1.95 1.98 2.06 2.11 2.15 2.12 2.09 2.07 1.93 1.77 1.68 1.62 1.62 1.62 1.55 1.53 1.53 1.49 1.38 1.31 1.25
1.13 1.33 1.40 1.19 0.79 0.41 0.22 0.34 0.43 0.37 0.40 0.44 0.49 0.57 0.65 0.70 0.69 0.66 0.62 0.66 0.77 0.80 0.87 0.98 1.08 1.20 1.42 1.62 1.69 1.73 1.85 1.93 1.90 1.97 1.96 1.91 1.84 1.75 1.73 1.73 1.65 1.64 1.62 1.57 1.55 1.50 1.40 1.35 1.31
1.07 0.98 0.77 0.93 0.67 0.45 0.32 0.28 0.32 0.32 0.36 0.40 0.42 0.48 0.59 0.64 0.62 0.65 0.66 0.69 0.74 0.78 0.83 0.91 1.00 1.02 1.13 1.31 1.44 1.55 1.59 1.61 1.56 1.58 1.60 1.63 1.65 1.64 1.60 1.60 1.55 1.51 1.49 1.48 1.50 1.46 1.37 1.32 1.27
0.95 0.80 0.86 1.13 0.93 0.63 0.32 0.25 0.38 0.39 0.40 0.41 0.42 0.44 0.53 0.59 0.62 0.65 0.68 0.66 0.67 0.71 0.74 0.82 0.86 0.86 0.91 1.01 1.08 1.24 1.34 1.35 1.38 1.39 1.36 1.34 1.33 1.35 1.37 1.38 1.38 1.35 1.35 1.34 1.34 1.32 1.31 1.29 1.21
0.73 0.83 0.91 0.91 0.72 0.73 0.48 0.36 0.37 0.40 0.42 0.43 0.47 0.48 0.53 0.57 0.64 0.69 0.72 0.70 0.68 0.72 0.74 0.76 0.72 0.73 0.77 0.84 0.88 0.94 1.05 1.13 1.19 1.20 1.13 1.14 1.10 1.07 1.09 1.07 1.08 1.12 1.14 1.16 1.17 1.17 1.18 1.21 1.17
0.56 0.57 0.70 0.95 0.72 0.60 0.55 0.38 0.27 0.32 0.36 0.41 0.49 0.49 0.49 0.52 0.57 0.62 0.69 0.69 0.68 0.71 0.73 0.76 0.70 0.67 0.69 0.74 0.75 0.78 0.86 0.97 1.02 1.07 1.02 0.96 0.98 0.92 0.91 0.89 0.86 0.86 0.88 0.92 0.94 0.95 0.99 1.04 1.05

GEFSSGP_prec_meanprecacc_174.txt.gz
Total_Precipitation_Accumulation
0.24 0.29 0.34 0.43 0.36 0.24 0.11 0.03 0.01 0.01 0.01 0.02 0.02 0.03 0.02 0.03 0.04 0.08 0.06 0.04 0.05 0.08 0.12 0.22 0.34 0.34 0.31 0.27 0.22 0.20 0.21 0.22 0.23 0.24 0.25 0.25 0.23 0.25 0.31 0.33 0.33 0.34 0.36 0.42 0.47 0.44 0.40 0.37 0.26
0.28 0.40 0.56 0.62 0.41 0.24 0.11 0.03 0.01 0.01 0.01 0.01 0.02 0.02 0.02 0.03 0.04 0.06 0.06 0.06 0.10 0.12 0.14 0.22 0.33 0.36 0.32 0.28 0.23 0.22 0.24 0.26 0.29 0.31 0.32 0.34 0.31 0.32 0.35 0.38 0.36 0.33 0.33 0.36 0.35 0.28 0.22 0.20 0.15
0.45 0.62 0.78 0.69 0.48 0.26 0.12 0.03 0.02 0.02 0.02 0.02 0.03 0.03 0.04 0.05 0.05 0.08 0.08 0.07 0.12 0.18 0.19 0.25 0.35 0.41 0.38 0.32 0.27 0.24 0.26 0.29 0.31 0.35 0.40 0.42 0.43 0.43 0.40 0.39 0.35 0.30 0.27 0.24 0.18 0.15 0.14 0.13 0.11
0.71 0.92 0.96 0.75 0.45 0.20 0.09 0.05 0.03 0.04 0.03 0.03 0.04 0.06 0.08 0.06 0.07 0.08 0.13 0.12 0.13 0.21 0.26 0.34 0.42 0.47 0.47 0.40 0.33 0.30 0.32 0.32 0.34 0.36 0.41 0.47 0.53 0.53 0.48 0.39 0.28 0.23 0.20 0.17 0.14 0.12 0.12 0.10 0.08
0.97 1.08 0.99 0.71 0.34 0.15 0.07 0.06 0.05 0.05 0.05 0.05 0.07 0.09 0.13 0.11 0.12 0.16 0.17 0.17 0.16 0.22 0.30 0.41 0.50 0.52 0.52 0.49 0.44 0.41 0.40 0.39 0.38 0.38 0.43 0.49 0.51 0.49 0.45 0.33 0.24 0.19 0.18 0.16 0.14 0.12 0.12 0.11 0.08
1.13 1.18 0.97 0.59 0.25 0.10 0.06 0.07 0.08 0.08 0.07 0.10 0.13 0.17 0.21 0.21 0.22 0.25 0.29 0.24 0.20 0.23 0.36 0.48 0.60 0.59 0.56 0.52 0.50 0.50 0.47 0.47 0.45 0.43 0.46 0.49 0.50 0.47 0.41 0.33 0.26 0.21 0.19 0.19 0.17 0.14 0.12 0.12 0.11
1.06 1.05 0.77 0.43 0.20 0.11 0.07 0.09 0.11 0.12 0.11 0.13 0.16 0.23 0.33 0.37 0.38 0.37 0.42 0.42 0.35 0.34 0.45 0.56 0.69 0.71 0.68 0.63 0.56 0.52 0.52 0.53 0.54 0.53 0.54 0.48 0.43 0.42 0.39 0.34 0.28 0.24 0.21 0.20 0.18 0.17 0.14 0.13 0.13
1.01 1.16 0.67 0.40 0.23 0.15 0.10 0.10 0.12 0.16 0.17 0.15 0.21 0.29 0.38 0.46 0.54 0.57 0.62 0.66 0.61 0.56 0.61 0.70 0.79 0.78 0.72 0.68 0.64 0.59 0.55 0.54 0.57 0.58 0.53 0.48 0.42 0.40 0.38 0.31 0.27 0.23 0.21 0.20 0.18 0.17 0.15 0.14 0.13
0.97 1.23 0.73 0.35 0.27 0.20 0.15 0.15 0.15 0.19 0.25 0.22 0.24 0.30 0.42 0.58 0.75 0.81 0.90 0.92 0.92 0.85 0.81 0.83 0.89 0.89 0.82 0.75 0.70 0.68 0.61 0.56 0.57 0.56 0.49 0.48 0.49 0.44 0.37 0.26 0.21 0.20 0.20 0.19 0.19 0.17 0.15 0.13 0.10
0.96 0.95 0.64 0.37 0.31 0.28 0.24 0.23 0.25 0.31 0.37 0.34 0.32 0.42 0.60 0.87 1.07 1.04 0.90 0.94 0.95 0.99 0.96 0.92 0.92 0.91 0.91 0.86 0.78 0.78 0.70 0.61 0.57 0.50 0.50 0.51 0.50 0.46 0.35 0.29 0.24 0.21 0.20 0.21 0.23 0.23 0.19 0.14 0.10
0.68 0.56 0.47 0.44 0.38 0.35 0.34 0.31 0.29 0.38 0.39 0.39 0.32 0.43 0.66 1.04 1.31 1.32 1.22 1.06 1.03 1.06 1.12 1.10 1.04 0.96 0.91 0.94 0.85 0.80 0.75 0.68 0.60 0.52 0.51 0.54 0.58 0.55 0.50 0.42 0.36 0.33 0.26 0.27 0.26 0.27 0.19 0.13 0.10
0.49 0.39 0.44 0.52 0.46 0.41 0.40 0.38 0.35 0.39 0.37 0.37 0.38 0.43 0.64 0.96 1.28 1.37 1.48 1.38 1.30 1.26 1.20 1.23 1.19 1.10 0.96 0.93 0.89 0.85 0.79 0.73 0.63 0.52 0.50 0.51 0.51 0.50 0.47 0.39 0.34 0.33 0.28 0.27 0.26 0.22 0.17 0.14 0.12
0.42 0.40 0.42 0.49 0.48 0.42 0.43 0.44 0.42 0.39 0.40 0.46 0.51 0.61 0.72 0.99 1.36 1.54 1.69 1.77 1.64 1.44 1.36 1.38 1.30 1.15 1.04 0.97 0.90 0.86 0.85 0.80 0.70 0.64 0.57 0.49 0.42 0.38 0.39 0.37 0.37 0.35 0.29 0.25 0.26 0.22 0.20 0.18 0.16
0.36 0.41 0.45 0.51 0.53 0.44 0.49 0.45 0.43 0.40 0.47 0.59 0.61 0.67 0.78 1.06 1.36 1.61 1.78 1.88 1.76 1.67 1.61 1.61 1.51 1.32 1.14 1.04 0.94 0.86 0.85 0.86 0.86 0.73 0.61 0.60 0.51 0.42 0.40 0.39 0.38 0.36 0.33 0.31 0.30 0.26 0.26 0.24 0.21
0.43 0.52 0.55 0.56 0.56 0.51 0.53 0.55 0.41 0.38 0.52 0.63 0.62 0.66 0.74 0.97 1.30 1.52 1.62 1.71 1.79 1.71 1.76 1.79 1.74 1.61 1.36 1.17 1.09 0.96 0.92 0.90 0.90 0.81 0.69 0.64 0.60 0.53 0.49 0.46 0.41 0.36 0.34 0.35 0.39 0.38 0.35 0.30 0.26
0.70 0.75 0.68 0.52 0.55 0.53 0.63 0.60 0.37 0.39 0.50 0.62 0.64 0.65 0.72 0.83 1.15 1.42 1.54 1.66 1.86 1.81 1.78 1.91 1.94 1.84 1.66 1.43 1.29 1.14 1.03 0.97 0.88 0.83 0.76 0.68 0.64 0.57 0.56 0.52 0.47 0.42 0.42 0.39 0.40 0.43 0.42 0.37 0.32
0.99 0.78 0.51 0.44 0.49 0.52 0.57 0.57 0.41 0.37 0.46 0.55 0.63 0.64 0.69 0.75 0.96 1.28 1.47 1.55 1.80 1.91 1.93 1.98 2.08 2.08 2.03 1.89 1.74 1.52 1.30 1.21 1.10 0.98 0.87 0.78 0.71 0.63 0.59 0.56 0.52 0.52 0.51 0.43 0.38 0.39 0.39 0.39 0.39
0.66 0.46 0.35 0.40 0.43 0.43 0.44 0.49 0.45 0.39 0.44 0.50 0.61 0.68 0.71 0.73 0.80 1.04 1.34 1.49 1.82 2.12 2.20 2.11 2.22 2.33 2.38 2.40 2.24 2.07 1.74 1.48 1.31 1.14 1.03 0.94 0.85 0.75 0.67 0.64 0.59 0.58 0.61 0.57 0.49 0.42 0.41 0.39 0.39
0.48 0.40 0.35 0.37 0.36 0.41 0.40 0.45 0.48 0.45 0.45 0.53 0.63 0.69 0.73 0.71 0.76 0.99 1.22 1.48 1.79 2.18 2.36 2.33 2.27 2.41 2.61 2.44 2.22 2.02 1.81 1.64 1.48 1.33 1.20 1.12 1.01 0.92 0.82 0.73 0.71 0.68 0.64 0.62 0.61 0.60 0.57 0.55 0.55
0.62 0.54 0.45 0.43 0.39 0.45 0.43 0.46 0.45 0.47 0.47 0.51 0.60 0.66 0.66 0.60 0.69 0.92 1.12 1.35 1.55 2.00 2.27 2.29 2.34 2.45 2.61 2.48 2.34 2.29 2.23 2.02 1.83 1.70 1.43 1.24 1.12 1.03 0.97 0.87 0.80 0.77 0.76 0.72 0.71 0.72 0.70 0.68 0.70
0.72 0.61 0.49 0.48 0.50 0.48 0.46 0.50 0.41 0.41 0.43 0.44 0.56 0.63 0.61 0.57 0.64 0.80 0.97 1.18 1.28 1.56 1.94 2.11 2.16 2.31 2.42 2.56 2.81 2.81 2.70 2.36 1.92 1.63 1.53 1.44 1.40 1.30 1.16 1.14 1.06 0.91 0.85 0.79 0.76 0.74 0.75 0.75 0.74
0.73 0.50 0.49 0.50 0.63 0.64 0.49 0.62 0.43 0.39 0.43 0.44 0.56 0.62 0.61 0.59 0.62 0.74 0.86 0.97 1.10 1.24 1.57 1.92 2.11 2.23 2.25 2.33 2.56 2.66 2.52 2.18 1.83 1.62 1.63 1.68 1.63 1.59 1.53 1.40 1.35 1.22 1.06 0.94 0.90 0.88 0.88 0.91 0.88
0.65 0.46 0.55 0.62 0.69 0.69 0.48 0.56 0.47 0.40 0.47 0.50 0.56 0.63 0.64 0.64 0.67 0.72 0.77 0.81 0.89 1.04 1.36 1.68 1.91 2.13 2.16 2.10 2.19 2.40 2.48 2.35 2.19 2.01 1.89 1.81 1.75 1.65 1.63 1.59 1.52 1.42 1.31 1.22 1.16 1.10 1.07 1.06 1.02
0.73 0.74 0.85 0.92 1.11 1.07 0.48 0.47 0.43 0.44 0.54 0.54 0.54 0.64 0.70 0.74 0.74 0.74 0.75 0.75 0.81 0.88 1.04 1.34 1.62 1.93 2.11 2.06 2.09 2.17 2.22 2.29 2.21 2.06 2.03 1.93 1.90 1.78 1.64 1.60 1.59 1.53 1.50 1.45 1.42 1.39 1.29 1.22 1.17
1.14 1.50 1.84 1.79 1.57 0.91 0.28 0.31 0.43 0.41 0.47 0.51 0.54 0.62 0.67 0.68 0.67 0.65 0.64 0.64 0.74 0.83 0.89 1.09 1.25 1.51 1.78 1.91 1.95 1.98 2.06 2.11 2.15 2.13 2.09 2.07 1.93 1.78 1.69 1.63 1.64 1.64 1.57 1.55 1.55 1.51 1.40 1.33 1.27
1.15 1.34 1.43 1.22 0.80 0.42 0.23 0.35 0.43 0.38 0.40 0.44 0.49 0.57 0.66 0.71 0.70 0.66 0.63 0.66 0.77 0.81 0.87 0.98 1.08 1.20 1.42 1.62 1.70 1.73 1.86 1.94 1.91 1.98 1.96 1.92 1.85 1.76 1.75 1.74 1.66 1.66 1.64 1.59 1.56 1.52 1.42 1.37 1.33
1.08 0.99 0.77 0.94 0.68 0.46 0.32 0.29 0.32 0.32 0.36 0.41 0.42 0.48 0.59 0.64 0.63 0.65 0.66 0.69 0.75 0.78 0.83 0.92 1.00 1.02 1.13 1.31 1.45 1.56 1.60 1.62 1.58 1.59 1.61 1.64 1.66 1.66 1.62 1.63 1.58 1.52 1.51 1.50 1.51 1.48 1.38 1.34 1.29
0.95 0.81 0.87 1.14 0.94 0.65 0.33 0.26 0.39 0.39 0.40 0.41 0.42 0.44 0.53 0.60 0.62 0.65 0.68 0.66 0.67 0.71 0.75 0.83 0.86 0.86 0.91 1.01 1.09 1.26 1.36 1.36 1.39 1.40 1.37 1.35 1.34 1.37 1.39 1.41 1.40 1.36 1.36 1.35 1.35 1.33 1.32 1.31 1.22
0.74 0.84 0.92 0.93 0.74 0.75 0.50 0.37 0.37 0.40 0.42 0.43 0.47 0.48 0.54 0.57 0.64 0.69 0.72 0.70 0.68 0.72 0.74 0.76 0.72 0.74 0.77 0.84 0.89 0.95 1.07 1.14 1.19 1.21 1.14 1.15 1.11 1.08 1.10 1.08 1.10 1.13 1.15 1.17 1.18 1.17 1.19 1.22 1.18
0.56 0.57 0.71 0.96 0.73 0.60 0.56 0.38 0.27 0.32 0.36 0.42 0.49 0.49 0.50 0.53 0.57 0.62 0.69 0.69 0.68 0.71 0.74 0.77 0.70 0.67 0.69 0.75 0.76 0.78 0.87 0.98 1.03 1.08 1.02 0.97 0.98 0.92 0.91 0.90 0.87 0.87 0.89 0.93 0.95 0.96 1.00 1.05 1.06

GEFSSGP_prec_meanprecacc_180.txt.gz
Total_Precipitation_Accumulation
0.24 0.29 0.35 0.44 0.38 0.25 0.11 0.03 0.01 0.01 0.01 0.02 0.02 0.03 0.02 0.03 0.05 0.09 0.07 0.05 0.06 0.08 0.13 0.24 0.35 0.36 0.32 0.28 0.23 0.20 0.21 0.22 0.23 0.25 0.26 0.26 0.24 0.26 0.33 0.34 0.34 0.35 0.37 0.43 0.49 0.46 0.41 0.38 0.26
0.29 0.41 0.57 0.64 0.42 0.25 0.11 0.03 0.01 0.01 0.01 0.01 0.02 0.02 0.02 0.03 0.04 0.06 0.07 0.08 0.10 0.13 0.14 0.23 0.35 0.38 0.34 0.30 0.24 0.23 0.24 0.26 0.29 0.31 0.32 0.34 0.32 0.33 0.36 0.39 0.37 0.34 0.34 0.38 0.36 0.29 0.24 0.21 0.16
0.46 0.63 0.80 0.71 0.49 0.26 0.12 0.03 0.02 0.02 0.02 0.02 0.03 0.03 0.05 0.06 0.05 0.08 0.09 0.09 0.14 0.19 0.19 0.26 0.37 0.43 0.41 0.34 0.28 0.25 0.26 0.29 0.31 0.35 0.41 0.43 0.43 0.43 0.41 0.39 0.36 0.31 0.28 0.25 0.19 0.16 0.15 0.14 0.12
0.73 0.95 0.98 0.77 0.46 0.21 0.09 0.05 0.03 0.04 0.03 0.03 0.04 0.06 0.09 0.07 0.07 0.09 0.14 0.13 0.14 0.22 0.27 0.35 0.43 0.49 0.50 0.43 0.36 0.32 0.32 0.33 0.34 0.36 0.41 0.48 0.54 0.54 0.48 0.39 0.29 0.24 0.21 0.17 0.15 0.13 0.13 0.11 0.09
1.01 1.13 1.02 0.73 0.35 0.15 0.07 0.06 0.05 0.05 0.05 0.05 0.07 0.09 0.13 0.12 0.12 0.17 0.19 0.18 0.17 0.23 0.31 0.42 0.52 0.54 0.55 0.53 0.48 0.43 0.41 0.39 0.38 0.38 0.43 0.50 0.52 0.49 0.45 0.34 0.25 0.20 0.18 0.17 0.14 0.13 0.13 0.12 0.09
1.18 1.24 1.00 0.60 0.26 0.11 0.07 0.07 0.08 0.08 0.07 0.10 0.13 0.17 0.22 0.22 0.24 0.27 0.30 0.26 0.21 0.24 0.37 0.49 0.62 0.61 0.58 0.56 0.55 0.53 0.50 0.48 0.45 0.44 0.47 0.50 0.51 0.47 0.41 0.33 0.26 0.21 0.20 0.19 0.18 0.15 0.13 0.14 0.12
1.10 1.10 0.82 0.44 0.21 0.12 0.07 0.09 0.11 0.12 0.11 0.13 0.17 0.24 0.35 0.39 0.40 0.38 0.44 0.43 0.36 0.35 0.46 0.57 0.71 0.73 0.69 0.65 0.61 0.56 0.55 0.55 0.55 0.55 0.55 0.49 0.44 0.42 0.39 0.34 0.28 0.24 0.22 0.21 0.19 0.18 0.15 0.14 0.14
1.07 1.23 0.74 0.42 0.24 0.15 0.10 0.10 0.12 0.16 0.17 0.15 0.22 0.29 0.39 0.49 0.57 0.59 0.64 0.68 0.62 0.57 0.62 0.71 0.80 0.79 0.73 0.71 0.68 0.63 0.58 0.57 0.59 0.60 0.55 0.48 0.43 0.41 0.38 0.32 0.28 0.23 0.21 0.21 0.19 0.18 0.16 0.15 0.14
1.03 1.29 0.79 0.39 0.29 0.20 0.15 0.15 0.15 0.19 0.25 0.22 0.24 0.30 0.44 0.61 0.78 0.84 0.93 0.95 0.94 0.86 0.83 0.86 0.91 0.90 0.83 0.77 0.73 0.71 0.64 0.60 0.59 0.57 0.51 0.49 0.50 0.45 0.37 0.27 0.22 0.21 0.20 0.20 0.20 0.18 0.16 0.13 0.11
1.01 1.00 0.68 0.40 0.34 0.29 0.25 0.24 0.25 0.32 0.37 0.35 0.32 0.43 0.62 0.90 1.11 1.08 0.94 0.97 0.98 1.01 0.98 0.95 0.95 0.92 0.93 0.87 0.81 0.82 0.74 0.64 0.59 0.51 0.51 0.53 0.52 0.46 0.35 0.30 0.25 0.23 0.21 0.21 0.24 0.24 0.20 0.15 0.10
0.72 0.59 0.49 0.46 0.40 0.37 0.36 0.33 0.31 0.39 0.39 0.39 0.33 0.44 0.68 1.06 1.35 1.37 1.27 1.10 1.07 1.08 1.14 1.12 1.06 0.98 0.94 0.96 0.88 0.84 0.79 0.71 0.63 0.53 0.53 0.56 0.60 0.56 0.51 0.42 0.37 0.35 0.27 0.27 0.26 0.28 0.20 0.14 0.11
0.51 0.42 0.46 0.54 0.48 0.42 0.42 0.40 0.38 0.41 0.38 0.37 0.38 0.44 0.64 0.97 1.31 1.40 1.52 1.42 1.34 1.29 1.23 1.27 1.23 1.13 0.99 0.95 0.92 0.89 0.84 0.77 0.66 0.54 0.51 0.52 0.53 0.53 0.48 0.40 0.35 0.34 0.28 0.27 0.27 0.23 0.18 0.15 0.12
0.43 0.43 0.45 0.52 0.51 0.44 0.44 0.45 0.45 0.42 0.42 0.47 0.52 0.62 0.72 1.00 1.37 1.57 1.72 1.81 1.68 1.49 1.41 1.43 1.36 1.20 1.09 1.01 0.93 0.89 0.90 0.85 0.74 0.67 0.59 0.51 0.43 0.39 0.41 0.39 0.38 0.35 0.30 0.26 0.27 0.23 0.21 0.19 0.17
0.39 0.45 0.49 0.53 0.55 0.46 0.49 0.46 0.44 0.42 0.49 0.60 0.62 0.67 0.79 1.07 1.37 1.63 1.82 1.92 1.79 1.72 1.67 1.67 1.58 1.40 1.21 1.09 0.96 0.88 0.91 0.93 0.91 0.76 0.64 0.63 0.54 0.45 0.42 0.42 0.41 0.37 0.34 0.32 0.31 0.27 0.27 0.25 0.22
0.45 0.55 0.59 0.58 0.58 0.53 0.54 0.55 0.42 0.39 0.52 0.65 0.63 0.66 0.74 0.97 1.30 1.53 1.64 1.75 1.82 1.75 1.82 1.85 1.80 1.69 1.46 1.25 1.13 0.98 0.97 0.99 0.97 0.86 0.73 0.69 0.64 0.56 0.52 0.49 0.44 0.37 0.35 0.37 0.40 0.40 0.37 0.32 0.28
0.72 0.77 0.71 0.54 0.57 0.55 0.64 0.61 0.38 0.39 0.51 0.62 0.65 0.65 0.72 0.83 1.16 1.43 1.56 1.69 1.90 1.85 1.84 1.97 2.00 1.92 1.77 1.55 1.36 1.18 1.06 1.03 0.96 0.88 0.80 0.73 0.69 0.62 0.60 0.55 0.50 0.45 0.43 0.40 0.41 0.44 0.43 0.39 0.34
1.02 0.80 0.52 0.45 0.51 0.54 0.58 0.58 0.42 0.37 0.46 0.56 0.64 0.64 0.69 0.75 0.97 1.29 1.49 1.56 1.83 1.95 1.97 2.04 2.15 2.16 2.14 2.03 1.86 1.58 1.34 1.23 1.15 1.02 0.89 0.81 0.75 0.67 0.63 0.60 0.56 0.55 0.53 0.45 0.39 0.39 0.40 0.40 0.40
0.69 0.48 0.37 0.42 0.44 0.44 0.45 0.50 0.45 0.39 0.44 0.50 0.62 0.69 0.72 0.73 0.81 1.06 1.36 1.51 1.85 2.16 2.25 2.18 2.28 2.42 2.50 2.54 2.39 2.15 1.79 1.51 1.34 1.18 1.06 0.96 0.88 0.79 0.71 0.67 0.62 0.62 0.65 0.60 0.51 0.44 0.43 0.41 0.40
0.50 0.41 0.36 0.37 0.37 0.42 0.41 0.45 0.48 0.45 0.45 0.53 0.65 0.71 0.74 0.72 0.77 1.01 1.25 1.50 1.81 2.22 2.41 2.40 2.34 2.49 2.71 2.58 2.35 2.12 1.87 1.69 1.52 1.36 1.23 1.14 1.05 0.96 0.85 0.75 0.73 0.71 0.68 0.66 0.64 0.62 0.60 0.57 0.58
0.64 0.56 0.46 0.43 0.40 0.46 0.44 0.46 0.45 0.47 0.47 0.51 0.60 0.67 0.67 0.61 0.70 0.93 1.14 1.37 1.56 2.03 2.31 2.34 2.40 2.53 2.69 2.59 2.46 2.38 2.30 2.07 1.87 1.73 1.46 1.26 1.15 1.06 1.00 0.90 0.81 0.79 0.78 0.75 0.74 0.75 0.73 0.71 0.74
0.73 0.62 0.50 0.49 0.53 0.49 0.46 0.50 0.41 0.41 0.43 0.44 0.56 0.64 0.61 0.57 0.65 0.81 0.98 1.19 1.29 1.58 1.97 2.14 2.20 2.37 2.49 2.65 2.91 2.89 2.77 2.42 1.96 1.67 1.56 1.46 1.42 1.32 1.17 1.15 1.07 0.93 0.87 0.80 0.78 0.76 0.77 0.77 0.78
0.74 0.51 0.50 0.50 0.64 0.65 0.50 0.63 0.43 0.39 0.43 0.44 0.56 0.62 0.62 0.59 0.63 0.75 0.87 0.98 1.11 1.25 1.59 1.94 2.14 2.27 2.31 2.39 2.64 2.74 2.59 2.24 1.88 1.65 1.65 1.70 1.64 1.60 1.53 1.41 1.36 1.23 1.07 0.95 0.92 0.89 0.88 0.91 0.89
0.66 0.46 0.56 0.62 0.69 0.69 0.48 0.57 0.48 0.40 0.47 0.50 0.56 0.64 0.65 0.64 0.67 0.73 0.78 0.83 0.90 1.05 1.37 1.69 1.93 2.16 2.20 2.14 2.24 2.47 2.55 2.41 2.23 2.04 1.90 1.82 1.76 1.65 1.63 1.59 1.52 1.42 1.32 1.22 1.17 1.11 1.07 1.07 1.03
0.74 0.76 0.87 0.94 1.12 1.08 0.48 0.47 0.44 0.44 0.54 0.55 0.55 0.64 0.70 0.74 0.75 0.75 0.75 0.76 0.82 0.89 1.05 1.35 1.63 1.95 2.14 2.09 2.12 2.21 2.27 2.34 2.25 2.09 2.05 1.94 1.91 1.79 1.64 1.60 1.59 1.53 1.50 1.45 1.43 1.40 1.30 1.23 1.18
1.15 1.53 1.87 1.81 1.58 0.92 0.28 0.31 0.45 0.42 0.48 0.51 0.54 0.63 0.68 0.68 0.68 0.65 0.64 0.64 0.75 0.84 0.90 1.10 1.26 1.52 1.80 1.94 1.98 2.00 2.08 2.13 2.17 2.15 2.11 2.08 1.94 1.78 1.69 1.63 1.64 1.64 1.57 1.55 1.56 1.52 1.41 1.34 1.28
1.15 1.36 1.45 1.25 0.82 0.42 0.23 0.35 0.44 0.38 0.40 0.45 0.49 0.57 0.67 0.72 0.71 0.67 0.63 0.67 0.78 0.81 0.88 0.99 1.09 1.21 1.43 1.63 1.71 1.75 1.88 1.94 1.91 1.99 1.97 1.92 1.85 1.76 1.75 1.74 1.66 1.66 1.65 1.59 1.57 1.52 1.43 1.38 1.34
1.10 1.00 0.78 0.95 0.70 0.48 0.33 0.30 0.33 0.32 0.36 0.41 0.42 0.48 0.59 0.65 0.64 0.65 0.66 0.70 0.75 0.79 0.84 0.92 1.00 1.03 1.13 1.32 1.45 1.57 1.62 1.64 1.58 1.59 1.61 1.64 1.66 1.66 1.63 1.63 1.58 1.53 1.51 1.51 1.52 1.49 1.40 1.35 1.30
0.96 0.82 0.88 1.15 0.96 0.69 0.36 0.27 0.40 0.40 0.40 0.41 0.42 0.45 0.53 0.60 0.63 0.65 0.68 0.66 0.67 0.71 0.75 0.83 0.87 0.86 0.92 1.02 1.09 1.26 1.36 1.37 1.40 1.40 1.37 1.35 1.34 1.37 1.39 1.41 1.41 1.37 1.37 1.36 1.36 1.34 1.34 1.32 1.23
0.75 0.85 0.92 0.93 0.75 0.78 0.51 0.38 0.38 0.40 0.42 0.43 0.47 0.48 0.54 0.57 0.64 0.69 0.72 0.70 0.68 0.72 0.75 0.76 0.72 0.74 0.77 0.85 0.89 0.95 1.07 1.14 1.20 1.21 1.14 1.15 1.11 1.08 1.10 1.09 1.10 1.13 1.16 1.18 1.19 1.18 1.20 1.23 1.19
0.57 0.58 0.72 0.97 0.74 0.61 0.56 0.38 0.27 0.32 0.36 0.42 0.49 0.49 0.50 0.53 0.58 0.63 0.69 0.69 0.68 0.71 0.74 0.77 0.70 0.68 0.70 0.75 0.76 0.79 0.87 0.99 1.03 1.08 1.02 0.97 0.99 0.93 0.91 0.90 0.88 0.87 0.89 0.93 0.95 0.96 1.00 1.05 1.06

GEFSSGP_prec_meanprecacc_186.txt.gz
Total_Precipitation_Accumulation
0.25 0.29 0.35 0.45 0.39 0.26 0.11 0.03 0.01 0.01 0.01 0.02 0.02 0.03 0.02 0.03 0.05 0.09 0.07 0.05 0.06 0.09 0.13 0.24 0.37 0.37 0.34 0.30 0.25 0.22 0.22 0.23 0.24 0.25 0.26 0.26 0.24 0.26 0.33 0.35 0.36 0.37 0.38 0.45 0.51 0.47 0.43 0.40 0.28
0.30 0.42 0.58 0.65 0.43 0.25 0.11 0.04 0.01 0.01 0.01 0.01 0.02 0.02 0.02 0.03 0.05 0.06 0.08 0.09 0.12 0.13 0.15 0.24 0.36 0.39 0.36 0.31 0.26 0.25 0.26 0.27 0.31 0.32 0.33 0.35 0.33 0.33 0.36 0.40 0.38 0.35 0.36 0.39 0.37 0.31 0.26 0.23 0.17
0.48 0.65 0.81 0.73 0.50 0.26 0.12 0.03 0.02 0.02 0.02 0.02 0.03 0.03 0.05 0.06 0.05 0.09 0.10 0.11 0.16 0.20 0.20 0.28 0.39 0.45 0.42 0.36 0.30 0.29 0.31 0.32 0.33 0.37 0.42 0.44 0.44 0.44 0.41 0.40 0.37 0.32 0.29 0.25 0.20 0.17 0.17 0.15 0.13
0.76 0.99 1.00 0.79 0.47 0.21 0.09 0.05 0.03 0.04 0.03 0.03 0.04 0.07 0.09 0.07 0.07 0.09 0.15 0.17 0.17 0.25 0.28 0.37 0.45 0.52 0.52 0.45 0.39 0.37 0.38 0.39 0.40 0.38 0.43 0.49 0.55 0.54 0.49 0.40 0.30 0.24 0.21 0.18 0.15 0.14 0.14 0.12 0.10
1.04 1.16 1.05 0.75 0.36 0.16 0.07 0.06 0.05 0.05 0.05 0.05 0.07 0.09 0.14 0.12 0.13 0.19 0.20 0.21 0.20 0.26 0.34 0.44 0.54 0.56 0.57 0.55 0.51 0.50 0.49 0.49 0.48 0.44 0.46 0.51 0.53 0.50 0.46 0.35 0.25 0.20 0.19 0.17 0.15 0.14 0.14 0.13 0.10
1.22 1.28 1.03 0.62 0.27 0.12 0.07 0.07 0.08 0.08 0.07 0.10 0.14 0.18 0.23 0.23 0.25 0.29 0.33 0.28 0.22 0.25 0.38 0.51 0.65 0.64 0.60 0.58 0.57 0.58 0.58 0.58 0.58 0.55 0.52 0.52 0.53 0.49 0.42 0.34 0.27 0.22 0.21 0.20 0.19 0.16 0.14 0.14 0.13
1.14 1.13 0.83 0.45 0.22 0.13 0.08 0.09 0.11 0.12 0.11 0.14 0.17 0.24 0.36 0.41 0.43 0.42 0.48 0.46 0.39 0.38 0.48 0.59 0.73 0.75 0.72 0.68 0.63 0.61 0.63 0.64 0.64 0.64 0.61 0.52 0.46 0.43 0.40 0.35 0.29 0.25 0.23 0.22 0.20 0.19 0.16 0.15 0.15
1.11 1.26 0.76 0.43 0.24 0.16 0.10 0.10 0.12 0.16 0.17 0.16 0.22 0.30 0.40 0.51 0.60 0.63 0.69 0.73 0.66 0.60 0.65 0.75 0.84 0.80 0.74 0.72 0.70 0.67 0.64 0.65 0.67 0.67 0.59 0.51 0.45 0.42 0.39 0.32 0.28 0.23 0.22 0.22 0.20 0.19 0.16 0.16 0.15
1.06 1.33 0.82 0.40 0.30 0.21 0.16 0.15 0.15 0.19 0.26 0.23 0.25 0.32 0.45 0.63 0.82 0.89 0.99 1.01 0.99 0.90 0.86 0.89 0.95 0.93 0.84 0.78 0.74 0.73 0.68 0.67 0.67 0.63 0.55 0.52 0.52 0.46 0.38 0.27 0.22 0.21 0.20 0.20 0.21 0.19 0.17 0.14 0.11
1.05 1.05 0.70 0.42 0.36 0.32 0.27 0.25 0.26 0.33 0.38 0.36 0.33 0.45 0.65 0.94 1.16 1.14 1.00 1.04 1.04 1.05 1.01 0.97 0.98 0.96 0.95 0.88 0.82 0.83 0.77 0.70 0.67 0.58 0.56 0.56 0.54 0.48 0.36 0.30 0.26 0.23 0.21 0.22 0.24 0.24 0.22 0.16 0.11
0.74 0.63 0.52 0.49 0.43 0.40 0.39 0.36 0.32 0.40 0.41 0.41 0.34 0.46 0.71 1.11 1.39 1.43 1.34 1.15 1.12 1.13 1.17 1.15 1.09 1.02 0.98 0.98 0.89 0.85 0.81 0.75 0.71 0.61 0.58 0.61 0.64 0.59 0.52 0.43 0.38 0.35 0.27 0.28 0.27 0.28 0.21 0.14 0.11
0.53 0.43 0.48 0.56 0.50 0.45 0.44 0.43 0.40 0.42 0.41 0.40 0.41 0.46 0.67 1.01 1.36 1.47 1.58 1.46 1.37 1.33 1.27 1.30 1.25 1.15 1.02 0.98 0.94 0.91 0.86 0.80 0.74 0.63 0.57 0.58 0.60 0.57 0.50 0.41 0.35 0.35 0.28 0.28 0.27 0.23 0.18 0.15 0.13
0.46 0.45 0.46 0.54 0.53 0.46 0.47 0.48 0.48 0.45 0.46 0.49 0.54 0.64 0.76 1.04 1.42 1.63 1.78 1.86 1.73 1.54 1.46 1.47 1.39 1.23 1.11 1.03 0.96 0.92 0.94 0.89 0.80 0.76 0.66 0.56 0.50 0.45 0.44 0.40 0.39 0.36 0.30 0.26 0.27 0.23 0.21 0.20 0.18
0.41 0.47 0.51 0.55 0.58 0.50 0.53 0.49 0.48 0.46 0.52 0.62 0.64 0.69 0.82 1.10 1.41 1.68 1.87 1.97 1.84 1.78 1.74 1.73 1.62 1.44 1.24 1.11 0.98 0.91 0.94 0.96 0.97 0.87 0.72 0.68 0.60 0.51 0.46 0.44 0.42 0.38 0.35 0.33 0.31 0.28 0.27 0.26 0.23
0.48 0.58 0.61 0.60 0.59 0.56 0.57 0.59 0.46 0.43 0.55 0.67 0.66 0.69 0.78 1.01 1.34 1.57 1.69 1.80 1.87 1.80 1.89 1.94 1.87 1.75 1.50 1.28 1.14 1.00 1.00 1.03 1.03 0.96 0.82 0.74 0.71 0.66 0.58 0.52 0.45 0.38 0.36 0.37 0.40 0.41 0.37 0.32 0.28
0.75 0.82 0.75 0.56 0.58 0.57 0.67 0.65 0.41 0.41 0.53 0.65 0.67 0.68 0.75 0.86 1.19 1.46 1.59 1.72 1.93 1.89 1.87 2.04 2.07 1.98 1.82 1.59 1.39 1.20 1.08 1.06 1.01 0.97 0.90 0.80 0.75 0.71 0.69 0.60 0.53 0.47 0.44 0.41 0.42 0.44 0.43 0.39 0.35
1.06 0.86 0.56 0.48 0.52 0.57 0.62 0.62 0.43 0.39 0.48 0.58 0.65 0.66 0.71 0.77 0.99 1.31 1.50 1.58 1.84 1.96 1.99 2.08 2.23 2.22 2.19 2.08 1.90 1.61 1.36 1.25 1.18 1.08 0.97 0.90 0.81 0.73 0.71 0.67 0.59 0.58 0.55 0.46 0.40 0.40 0.40 0.40 0.41
0.72 0.53 0.40 0.44 0.46 0.47 0.49 0.53 0.46 0.41 0.46 0.52 0.63 0.70 0.73 0.74 0.82 1.07 1.37 1.52 1.86 2.17 2.26 2.20 2.34 2.52 2.56 2.59 2.46 2.23 1.84 1.54 1.37 1.22 1.12 1.04 0.95 0.83 0.76 0.74 0.69 0.66 0.67 0.62 0.52 0.44 0.43 0.41 0.41
0.52 0.44 0.39 0.39 0.38 0.45 0.44 0.48 0.49 0.47 0.48 0.56 0.66 0.72 0.75 0.72 0.78 1.02 1.26 1.51 1.82 2.23 2.42 2.42 2.39 2.58 2.82 2.66 2.42 2.22 1.98 1.76 1.57 1.41 1.30 1.22 1.12 1.01 0.90 0.80 0.81 0.78 0.72 0.69 0.66 0.63 0.60 0.58 0.58
0.65 0.57 0.47 0.45 0.41 0.48 0.46 0.48 0.46 0.48 0.50 0.54 0.62 0.67 0.67 0.61 0.70 0.93 1.14 1.38 1.57 2.04 2.32 2.36 2.44 2.60 2.80 2.69 2.56 2.48 2.40 2.18 1.95 1.79 1.52 1.33 1.23 1.12 1.05 0.94 0.86 0.87 0.86 0.81 0.78 0.76 0.74 0.71 0.74
0.73 0.63 0.51 0.50 0.54 0.51 0.48 0.51 0.41 0.42 0.45 0.46 0.58 0.64 0.62 0.57 0.65 0.81 0.99 1.21 1.31 1.60 1.99 2.17 2.23 2.41 2.56 2.74 3.01 3.01 2.89 2.53 2.08 1.76 1.64 1.53 1.48 1.39 1.22 1.19 1.10 0.97 0.94 0.87 0.82 0.79 0.79 0.77 0.78
0.74 0.51 0.50 0.51 0.65 0.67 0.52 0.65 0.44 0.39 0.43 0.45 0.56 0.63 0.62 0.59 0.63 0.75 0.88 1.00 1.13 1.28 1.62 1.98 2.17 2.31 2.35 2.46 2.72 2.83 2.70 2.35 2.00 1.78 1.74 1.78 1.72 1.67 1.58 1.44 1.38 1.25 1.11 1.00 0.96 0.94 0.92 0.94 0.91
0.67 0.46 0.56 0.62 0.70 0.70 0.49 0.58 0.49 0.40 0.48 0.50 0.57 0.64 0.65 0.64 0.67 0.74 0.79 0.84 0.91 1.08 1.41 1.73 1.97 2.20 2.24 2.20 2.32 2.55 2.63 2.49 2.31 2.14 2.01 1.91 1.83 1.72 1.68 1.63 1.55 1.44 1.34 1.26 1.21 1.16 1.12 1.11 1.06
0.74 0.76 0.87 0.94 1.13 1.09 0.48 0.48 0.45 0.44 0.55 0.55 0.55 0.64 0.70 0.74 0.75 0.76 0.76 0.77 0.83 0.91 1.07 1.38 1.67 2.00 2.18 2.14 2.18 2.27 2.33 2.40 2.31 2.14 2.12 2.02 1.98 1.85 1.68 1.64 1.62 1.55 1.52 1.48 1.45 1.43 1.34 1.27 1.22
1.16 1.54 1.89 1.83 1.60 0.92 0.28 0.32 0.46 0.42 0.48 0.51 0.54 0.63 0.68 0.69 0.68 0.66 0.64 0.65 0.75 0.86 0.93 1.13 1.30 1.56 1.83 1.97 2.01 2.04 2.13 2.18 2.21 2.19 2.16 2.14 1.99 1.84 1.73 1.66 1.67 1.66 1.58 1.57 1.57 1.53 1.44 1.37 1.31
1.16 1.37 1.47 1.27 0.83 0.43 0.23 0.35 0.45 0.38 0.41 0.45 0.49 0.57 0.67 0.72 0.71 0.67 0.64 0.67 0.78 0.82 0.89 1.00 1.11 1.24 1.46 1.66 1.74 1.78 1.91 1.98 1.94 2.02 2.01 1.98 1.91 1.81 1.79 1.77 1.68 1.67 1.66 1.60 1.58 1.54 1.45 1.40 1.36
1.11 1.02 0.80 0.97 0.71 0.49 0.34 0.31 0.34 0.32 0.36 0.41 0.43 0.48 0.60 0.65 0.64 0.66 0.66 0.70 0.76 0.79 0.84 0.92 1.01 1.04 1.15 1.33 1.47 1.59 1.64 1.66 1.60 1.61 1.63 1.67 1.71 1.71 1.66 1.66 1.60 1.54 1.52 1.51 1.53 1.50 1.41 1.36 1.31
0.97 0.83 0.89 1.17 0.97 0.70 0.37 0.29 0.42 0.40 0.41 0.42 0.43 0.45 0.54 0.60 0.63 0.65 0.68 0.66 0.67 0.72 0.75 0.83 0.87 0.86 0.92 1.02 1.11 1.28 1.39 1.39 1.42 1.42 1.39 1.37 1.36 1.40 1.43 1.43 1.42 1.38 1.37 1.37 1.36 1.35 1.34 1.33 1.24
0.75 0.85 0.93 0.95 0.77 0.79 0.53 0.39 0.39 0.41 0.42 0.44 0.47 0.48 0.54 0.57 0.64 0.69 0.72 0.70 0.68 0.72 0.75 0.76 0.72 0.74 0.78 0.85 0.90 0.96 1.08 1.16 1.21 1.23 1.16 1.16 1.12 1.10 1.12 1.10 1.11 1.14 1.16 1.18 1.19 1.19 1.20 1.23 1.19
0.57 0.59 0.72 0.98 0.75 0.61 0.57 0.38 0.27 0.32 0.36 0.42 0.49 0.49 0.50 0.53 0.58 0.63 0.69 0.69 0.68 0.71 0.74 0.77 0.70 0.68 0.70 0.76 0.76 0.79 0.87 0.99 1.04 1.09 1.04 0.98 1.00 0.94 0.93 0.91 0.88 0.88 0.89 0.93 0.95 0.96 1.00 1.05 1.06

GEFSSGP_prec_meanprecacc_192.txt.gz
Total_Precipitation_Accumulation
0.27 0.32 0.37 0.46 0.40 0.27 0.11 0.03 0.01 0.01 0.01 0.02 0.02 0.03 0.02 0.03 0.05 0.09 0.08 0.05 0.06 0.09 0.13 0.25 0.38 0.39 0.35 0.31 0.26 0.23 0.23 0.24 0.25 0.27 0.28 0.27 0.24 0.26 0.34 0.36 0.36 0.38 0.39 0.45 0.51 0.48 0.45 0.41 0.29
0.31 0.43 0.61 0.67 0.44 0.26 0.12 0.04 0.01 0.01 0.02 0.02 0.02 0.02 0.02 0.03 0.05 0.06 0.08 0.09 0.12 0.13 0.15 0.25 0.37 0.41 0.38 0.33 0.27 0.27 0.27 0.28 0.32 0.34 0.36 0.38 0.34 0.34 0.37 0.41 0.39 0.36 0.36 0.40 0.38 0.31 0.27 0.24 0.18
0.50 0.67 0.85 0.75 0.51 0.27 0.12 0.04 0.02 0.02 0.03 0.02 0.03 0.03 0.05 0.06 0.05 0.09 0.11 0.13 0.18 0.22 0.21 0.29 0.41 0.46 0.44 0.38 0.32 0.30 0.32 0.34 0.35 0.39 0.45 0.47 0.47 0.46 0.43 0.42 0.38 0.33 0.30 0.26 0.21 0.17 0.17 0.16 0.14
0.78 1.01 1.04 0.82 0.47 0.21 0.09 0.05 0.03 0.04 0.03 0.03 0.04 0.07 0.09 0.07 0.08 0.10 0.16 0.19 0.19 0.27 0.30 0.38 0.48 0.55 0.55 0.48 0.41 0.39 0.40 0.41 0.42 0.42 0.47 0.53 0.58 0.58 0.51 0.42 0.32 0.26 0.22 0.19 0.16 0.15 0.14 0.13 0.10
1.07 1.20 1.09 0.78 0.37 0.16 0.07 0.06 0.05 0.05 0.05 0.05 0.07 0.09 0.14 0.12 0.14 0.19 0.22 0.23 0.22 0.27 0.35 0.46 0.57 0.60 0.61 0.58 0.55 0.53 0.52 0.50 0.50 0.47 0.50 0.56 0.57 0.54 0.49 0.37 0.27 0.22 0.20 0.19 0.16 0.15 0.15 0.14 0.11
1.24 1.32 1.06 0.65 0.29 0.12 0.07 0.07 0.08 0.08 0.07 0.10 0.14 0.18 0.23 0.24 0.26 0.31 0.36 0.31 0.24 0.27 0.41 0.55 0.69 0.68 0.63 0.60 0.59 0.61 0.61 0.60 0.59 0.57 0.56 0.57 0.58 0.53 0.45 0.36 0.29 0.24 0.22 0.22 0.20 0.17 0.15 0.15 0.14
1.17 1.17 0.86 0.46 0.24 0.13 0.08 0.09 0.11 0.12 0.11 0.14 0.17 0.25 0.36 0.42 0.45 0.44 0.51 0.50 0.42 0.41 0.52 0.64 0.78 0.80 0.76 0.70 0.64 0.63 0.65 0.67 0.67 0.65 0.62 0.54 0.49 0.47 0.43 0.37 0.30 0.27 0.24 0.23 0.21 0.20 0.17 0.16 0.16
1.13 1.30 0.79 0.45 0.26 0.17 0.10 0.10 0.12 0.16 0.17 0.16 0.23 0.30 0.40 0.53 0.62 0.66 0.74 0.79 0.72 0.65 0.72 0.81 0.89 0.85 0.78 0.75 0.71 0.68 0.67 0.69 0.71 0.69 0.61 0.52 0.46 0.44 0.41 0.34 0.30 0.25 0.23 0.23 0.21 0.20 0.18 0.17 0.15
1.08 1.37 0.84 0.42 0.32 0.23 0.17 0.16 0.15 0.19 0.26 0.23 0.25 0.32 0.45 0.65 0.85 0.94 1.06 1.09 1.06 0.95 0.93 0.96 1.01 0.97 0.88 0.80 0.76 0.74 0.70 0.70 0.70 0.66 0.57 0.53 0.53 0.47 0.39 0.29 0.24 0.23 0.22 0.21 0.22 0.20 0.18 0.15 0.12
1.07 1.08 0.72 0.43 0.38 0.33 0.29 0.26 0.27 0.33 0.39 0.36 0.34 0.46 0.66 0.97 1.20 1.19 1.07 1.13 1.14 1.11 1.08 1.05 1.04 1.01 1.00 0.92 0.84 0.84 0.78 0.71 0.69 0.60 0.58 0.58 0.55 0.49 0.37 0.31 0.27 0.24 0.22 0.23 0.25 0.25 0.23 0.16 0.11
0.76 0.65 0.54 0.50 0.44 0.42 0.41 0.37 0.33 0.41 0.42 0.42 0.35 0.47 0.75 1.14 1.44 1.50 1.41 1.24 1.25 1.22 1.22 1.20 1.15 1.08 1.03 1.04 0.93 0.87 0.82 0.76 0.73 0.63 0.62 0.63 0.65 0.59 0.53 0.44 0.39 0.36 0.29 0.29 0.28 0.29 0.21 0.14 0.11
0.54 0.44 0.50 0.59 0.51 0.47 0.46 0.45 0.42 0.45 0.43 0.41 0.42 0.48 0.71 1.05 1.41 1.54 1.65 1.53 1.50 1.45 1.34 1.36 1.31 1.23 1.10 1.06 1.00 0.95 0.88 0.81 0.75 0.64 0.60 0.62 0.62 0.58 0.52 0.42 0.36 0.36 0.29 0.29 0.28 0.24 0.19 0.16 0.13
0.47 0.46 0.48 0.57 0.54 0.48 0.49 0.49 0.50 0.49 0.49 0.51 0.55 0.67 0.80 1.07 1.47 1.70 1.85 1.93 1.84 1.68 1.56 1.54 1.44 1.30 1.19 1.12 1.03 0.97 0.97 0.91 0.82 0.78 0.68 0.61 0.55 0.48 0.46 0.42 0.40 0.37 0.31 0.27 0.28 0.24 0.22 0.20 0.18
0.43 0.49 0.53 0.57 0.61 0.52 0.55 0.51 0.51 0.51 0.55 0.64 0.66 0.73 0.86 1.14 1.46 1.75 1.94 2.03 1.92 1.90 1.86 1.82 1.68 1.50 1.31 1.19 1.06 0.97 0.99 1.00 1.00 0.90 0.73 0.71 0.64 0.55 0.49 0.47 0.46 0.41 0.36 0.33 0.32 0.28 0.28 0.26 0.23
0.49 0.59 0.63 0.62 0.62 0.58 0.60 0.62 0.50 0.47 0.57 0.69 0.68 0.72 0.81 1.05 1.39 1.63 1.77 1.86 1.94 1.89 2.01 2.04 1.95 1.81 1.57 1.37 1.24 1.08 1.05 1.07 1.07 1.01 0.85 0.78 0.76 0.71 0.62 0.55 0.48 0.41 0.38 0.38 0.41 0.41 0.38 0.33 0.28
0.76 0.83 0.77 0.57 0.59 0.58 0.69 0.68 0.44 0.44 0.55 0.67 0.69 0.70 0.78 0.90 1.23 1.52 1.65 1.78 1.99 1.95 1.97 2.13 2.16 2.04 1.88 1.66 1.48 1.29 1.16 1.11 1.06 1.03 0.95 0.84 0.81 0.77 0.75 0.64 0.55 0.49 0.46 0.42 0.43 0.45 0.44 0.39 0.35
1.07 0.87 0.58 0.49 0.53 0.57 0.63 0.65 0.47 0.41 0.51 0.60 0.68 0.68 0.73 0.80 1.03 1.38 1.57 1.63 1.89 2.00 2.04 2.14 2.27 2.27 2.23 2.13 1.97 1.68 1.43 1.31 1.23 1.14 1.04 0.95 0.87 0.80 0.78 0.73 0.63 0.61 0.57 0.47 0.41 0.41 0.40 0.41 0.41
0.73 0.53 0.41 0.45 0.47 0.48 0.51 0.55 0.49 0.44 0.49 0.54 0.65 0.72 0.75 0.78 0.87 1.14 1.45 1.58 1.90 2.20 2.29 2.23 2.36 2.54 2.59 2.61 2.49 2.29 1.90 1.59 1.42 1.28 1.19 1.10 1.01 0.91 0.83 0.79 0.73 0.69 0.71 0.64 0.53 0.45 0.43 0.41 0.41
0.53 0.45 0.39 0.39 0.39 0.47 0.46 0.50 0.51 0.50 0.50 0.57 0.69 0.75 0.77 0.75 0.82 1.07 1.33 1.56 1.86 2.26 2.45 2.44 2.41 2.60 2.84 2.67 2.44 2.24 2.03 1.80 1.60 1.46 1.37 1.29 1.19 1.09 0.98 0.86 0.85 0.82 0.77 0.72 0.68 0.64 0.61 0.58 0.58
0.66 0.59 0.48 0.45 0.42 0.50 0.47 0.49 0.48 0.51 0.52 0.55 0.64 0.70 0.69 0.63 0.73 0.96 1.19 1.43 1.61 2.07 2.35 2.38 2.47 2.63 2.84 2.73 2.58 2.50 2.42 2.22 1.99 1.83 1.58 1.40 1.29 1.20 1.15 1.02 0.91 0.91 0.91 0.85 0.81 0.79 0.76 0.72 0.75
0.75 0.64 0.51 0.52 0.57 0.52 0.48 0.52 0.43 0.44 0.47 0.48 0.59 0.66 0.63 0.59 0.67 0.83 1.01 1.24 1.34 1.63 2.02 2.19 2.26 2.46 2.61 2.81 3.07 3.05 2.91 2.55 2.12 1.82 1.70 1.59 1.55 1.46 1.32 1.30 1.18 1.02 0.98 0.92 0.86 0.82 0.80 0.79 0.79
0.75 0.52 0.52 0.53 0.67 0.68 0.52 0.66 0.45 0.40 0.45 0.46 0.58 0.64 0.63 0.60 0.64 0.77 0.90 1.01 1.14 1.29 1.64 1.99 2.19 2.34 2.39 2.50 2.79 2.91 2.76 2.39 2.03 1.81 1.80 1.85 1.80 1.75 1.69 1.56 1.47 1.31 1.16 1.05 1.01 0.96 0.93 0.95 0.92
0.67 0.47 0.57 0.63 0.71 0.71 0.49 0.59 0.49 0.41 0.48 0.51 0.58 0.65 0.66 0.65 0.69 0.76 0.81 0.85 0.92 1.08 1.42 1.73 1.98 2.21 2.26 2.22 2.35 2.59 2.71 2.59 2.39 2.18 2.04 1.95 1.89 1.79 1.77 1.74 1.66 1.53 1.41 1.31 1.26 1.20 1.14 1.12 1.07
0.75 0.77 0.88 0.95 1.14 1.10 0.48 0.48 0.45 0.45 0.55 0.55 0.56 0.65 0.71 0.75 0.76 0.77 0.78 0.77 0.83 0.91 1.08 1.38 1.68 2.01 2.19 2.15 2.19 2.28 2.36 2.47 2.40 2.21 2.17 2.06 2.02 1.90 1.75 1.73 1.73 1.67 1.62 1.56 1.52 1.49 1.38 1.29 1.23
1.16 1.54 1.90 1.84 1.61 0.93 0.28 0.32 0.46 0.43 0.49 0.51 0.55 0.63 0.69 0.69 0.69 0.67 0.65 0.65 0.75 0.86 0.93 1.13 1.31 1.57 1.85 1.98 2.02 2.05 2.14 2.21 2.28 2.28 2.23 2.19 2.03 1.88 1.78 1.72 1.75 1.76 1.68 1.67 1.66 1.60 1.49 1.40 1.34
1.17 1.38 1.49 1.28 0.84 0.43 0.23 0.36 0.45 0.39 0.41 0.45 0.49 0.58 0.68 0.73 0.72 0.68 0.64 0.67 0.79 0.82 0.89 1.01 1.12 1.25 1.47 1.68 1.75 1.78 1.92 1.99 1.97 2.08 2.08 2.05 1.98 1.87 1.85 1.82 1.73 1.73 1.73 1.67 1.65 1.60 1.50 1.44 1.39
1.12 1.03 0.81 0.99 0.72 0.50 0.34 0.31 0.34 0.33 0.37 0.41 0.43 0.48 0.60 0.66 0.65 0.66 0.67 0.70 0.76 0.80 0.84 0.93 1.01 1.05 1.16 1.36 1.50 1.60 1.65 1.67 1.61 1.62 1.66 1.70 1.75 1.76 1.72 1.72 1.65 1.57 1.56 1.56 1.57 1.55 1.46 1.40 1.33
0.98 0.84 0.90 1.18 0.98 0.70 0.37 0.29 0.42 0.41 0.42 0.42 0.43 0.45 0.54 0.61 0.63 0.65 0.68 0.66 0.67 0.72 0.76 0.83 0.87 0.87 0.93 1.04 1.13 1.30 1.41 1.41 1.43 1.43 1.40 1.38 1.38 1.43 1.46 1.49 1.48 1.42 1.40 1.40 1.39 1.38 1.37 1.36 1.26
0.76 0.86 0.94 0.95 0.78 0.80 0.53 0.39 0.39 0.41 0.43 0.45 0.49 0.50 0.55 0.58 0.65 0.69 0.72 0.70 0.68 0.72 0.75 0.77 0.72 0.75 0.78 0.86 0.92 0.99 1.11 1.19 1.24 1.25 1.17 1.18 1.13 1.11 1.15 1.14 1.15 1.18 1.19 1.21 1.21 1.21 1.23 1.25 1.21
0.57 0.59 0.73 0.99 0.76 0.62 0.57 0.38 0.28 0.33 0.37 0.43 0.51 0.50 0.51 0.53 0.58 0.63 0.69 0.69 0.68 0.71 0.74 0.77 0.70 0.68 0.70 0.76 0.77 0.81 0.90 1.03 1.07 1.12 1.06 1.00 1.01 0.94 0.94 0.93 0.92 0.91 0.93 0.96 0.98 0.98 1.02 1.07 1.08

GEFSSGP_prec_meanprecacc_198.txt.gz
Total_Precipitation_Accumulation
0.27 0.32 0.40 0.50 0.44 0.30 0.12 0.04 0.01 0.02 0.02 0.03 0.03 0.03 0.03 0.06 0.07 0.10 0.08 0.06 0.06 0.09 0.14 0.25 0.38 0.39 0.35 0.31 0.27 0.25 0.24 0.25 0.25 0.27 0.29 0.28 0.26 0.28 0.34 0.36 0.37 0.38 0.40 0.46 0.52 0.49 0.46 0.42 0.29
0.31 0.45 0.64 0.70 0.47 0.28 0.13 0.04 0.02 0.02 0.03 0.02 0.03 0.03 0.05 0.06 0.07 0.07 0.09 0.11 0.13 0.14 0.15 0.25 0.38 0.41 0.38 0.33 0.28 0.28 0.29 0.30 0.33 0.35 0.37 0.39 0.36 0.36 0.38 0.42 0.40 0.37 0.37 0.41 0.39 0.32 0.28 0.25 0.19
0.50 0.71 0.88 0.78 0.53 0.28 0.14 0.04 0.02 0.03 0.04 0.03 0.03 0.04 0.09 0.10 0.08 0.10 0.11 0.14 0.20 0.23 0.22 0.30 0.41 0.47 0.45 0.39 0.32 0.31 0.34 0.36 0.37 0.40 0.46 0.48 0.49 0.48 0.45 0.43 0.39 0.34 0.30 0.27 0.21 0.18 0.18 0.17 0.14
0.80 1.05 1.08 0.85 0.49 0.22 0.11 0.07 0.03 0.04 0.04 0.03 0.04 0.08 0.12 0.11 0.11 0.11 0.17 0.20 0.21 0.30 0.32 0.40 0.49 0.56 0.56 0.48 0.42 0.39 0.41 0.43 0.44 0.44 0.48 0.55 0.60 0.60 0.53 0.44 0.33 0.27 0.23 0.19 0.17 0.15 0.15 0.13 0.11
1.10 1.23 1.12 0.80 0.38 0.17 0.09 0.08 0.06 0.06 0.05 0.06 0.07 0.10 0.15 0.15 0.16 0.21 0.23 0.25 0.24 0.30 0.38 0.48 0.58 0.61 0.62 0.59 0.56 0.54 0.53 0.52 0.52 0.50 0.53 0.57 0.58 0.55 0.51 0.38 0.28 0.22 0.21 0.19 0.17 0.16 0.16 0.15 0.11
1.27 1.35 1.08 0.66 0.30 0.13 0.08 0.09 0.09 0.08 0.08 0.11 0.14 0.19 0.25 0.26 0.28 0.33 0.38 0.33 0.28 0.30 0.44 0.58 0.72 0.69 0.65 0.62 0.61 0.62 0.63 0.63 0.62 0.60 0.59 0.60 0.59 0.54 0.47 0.37 0.30 0.24 0.23 0.22 0.21 0.18 0.17 0.16 0.15
1.20 1.20 0.88 0.48 0.26 0.15 0.10 0.10 0.13 0.13 0.12 0.14 0.18 0.25 0.37 0.43 0.46 0.46 0.55 0.55 0.48 0.47 0.57 0.69 0.82 0.82 0.77 0.72 0.66 0.65 0.67 0.69 0.69 0.68 0.65 0.57 0.51 0.48 0.44 0.38 0.32 0.28 0.25 0.24 0.22 0.21 0.18 0.18 0.17
1.15 1.32 0.81 0.46 0.28 0.19 0.12 0.12 0.14 0.18 0.18 0.16 0.23 0.32 0.41 0.54 0.65 0.70 0.80 0.88 0.80 0.73 0.80 0.88 0.95 0.89 0.82 0.77 0.74 0.70 0.68 0.70 0.72 0.71 0.63 0.55 0.48 0.46 0.42 0.35 0.31 0.26 0.24 0.23 0.22 0.21 0.19 0.18 0.17
1.09 1.39 0.88 0.44 0.35 0.24 0.18 0.17 0.17 0.21 0.27 0.24 0.26 0.33 0.47 0.67 0.89 0.98 1.13 1.19 1.17 1.05 1.05 1.08 1.10 1.05 0.94 0.86 0.80 0.77 0.72 0.71 0.71 0.67 0.58 0.55 0.55 0.49 0.40 0.30 0.24 0.23 0.23 0.22 0.22 0.21 0.19 0.16 0.13
1.08 1.11 0.75 0.45 0.40 0.35 0.31 0.28 0.29 0.36 0.40 0.37 0.35 0.47 0.68 0.99 1.24 1.23 1.14 1.22 1.25 1.22 1.21 1.21 1.16 1.10 1.05 0.97 0.89 0.89 0.81 0.73 0.71 0.61 0.59 0.60 0.58 0.51 0.39 0.32 0.28 0.25 0.23 0.24 0.26 0.26 0.24 0.17 0.13
0.78 0.67 0.57 0.52 0.45 0.43 0.42 0.39 0.36 0.44 0.44 0.43 0.36 0.48 0.77 1.18 1.50 1.57 1.51 1.38 1.37 1.34 1.37 1.39 1.33 1.20 1.10 1.09 0.98 0.92 0.87 0.79 0.75 0.64 0.64 0.66 0.67 0.61 0.55 0.46 0.41 0.37 0.30 0.30 0.29 0.31 0.22 0.16 0.13
0.56 0.45 0.52 0.60 0.52 0.48 0.47 0.47 0.44 0.47 0.44 0.42 0.43 0.49 0.74 1.10 1.47 1.63 1.76 1.68 1.65 1.60 1.49 1.54 1.49 1.37 1.20 1.14 1.07 1.02 0.94 0.85 0.76 0.65 0.61 0.65 0.63 0.60 0.54 0.45 0.38 0.37 0.30 0.30 0.29 0.26 0.20 0.17 0.14
0.48 0.47 0.50 0.59 0.56 0.49 0.50 0.51 0.52 0.51 0.50 0.52 0.56 0.68 0.83 1.12 1.53 1.78 1.95 2.04 1.97 1.82 1.70 1.70 1.60 1.45 1.30 1.19 1.09 1.05 1.05 0.96 0.86 0.80 0.70 0.64 0.58 0.50 0.48 0.44 0.42 0.39 0.32 0.27 0.29 0.25 0.23 0.21 0.19
0.44 0.50 0.54 0.59 0.63 0.54 0.57 0.53 0.54 0.54 0.56 0.65 0.67 0.75 0.90 1.19 1.52 1.82 2.03 2.14 2.03 2.03 2.01 1.98 1.83 1.64 1.44 1.27 1.11 1.04 1.07 1.07 1.06 0.93 0.75 0.72 0.67 0.58 0.51 0.49 0.47 0.42 0.37 0.34 0.33 0.29 0.29 0.27 0.24
0.50 0.60 0.64 0.63 0.64 0.61 0.63 0.64 0.53 0.50 0.59 0.70 0.69 0.74 0.86 1.10 1.45 1.69 1.84 1.95 2.02 2.00 2.15 2.20 2.09 1.94 1.69 1.46 1.31 1.14 1.13 1.14 1.13 1.07 0.90 0.81 0.78 0.74 0.65 0.58 0.51 0.44 0.40 0.39 0.42 0.42 0.39 0.34 0.30
0.78 0.85 0.78 0.59 0.61 0.60 0.71 0.71 0.48 0.48 0.58 0.69 0.72 0.73 0.82 0.95 1.28 1.57 1.72 1.87 2.07 2.05 2.11 2.28 2.31 2.19 2.00 1.75 1.54 1.33 1.22 1.20 1.14 1.10 1.03 0.92 0.85 0.81 0.78 0.68 0.59 0.53 0.50 0.46 0.44 0.45 0.45 0.41 0.36
1.09 0.89 0.59 0.51 0.54 0.59 0.65 0.68 0.50 0.44 0.54 0.63 0.70 0.71 0.78 0.85 1.06 1.41 1.63 1.73 1.97 2.09 2.17 2.31 2.44 2.43 2.35 2.21 2.03 1.73 1.46 1.38 1.33 1.23 1.11 1.05 0.98 0.89 0.84 0.77 0.66 0.65 0.62 0.52 0.44 0.42 0.42 0.43 0.43
0.74 0.54 0.42 0.46 0.48 0.49 0.52 0.57 0.52 0.46 0.51 0.56 0.68 0.75 0.79 0.81 0.89 1.17 1.49 1.65 2.01 2.30 2.41 2.37 2.53 2.68 2.69 2.68 2.55 2.34 1.94 1.64 1.51 1.37 1.26 1.17 1.10 1.02 0.94 0.88 0.79 0.74 0.76 0.69 0.57 0.48 0.45 0.44 0.44
0.53 0.46 0.40 0.39 0.39 0.48 0.47 0.51 0.54 0.52 0.52 0.60 0.71 0.77 0.79 0.77 0.84 1.10 1.38 1.62 1.96 2.38 2.56 2.57 2.53 2.71 2.92 2.74 2.50 2.29 2.06 1.84 1.66 1.55 1.44 1.35 1.26 1.16 1.06 0.94 0.92 0.88 0.82 0.77 0.73 0.68 0.63 0.60 0.61
0.67 0.61 0.49 0.45 0.42 0.50 0.48 0.50 0.49 0.52 0.53 0.57 0.66 0.71 0.71 0.65 0.74 0.99 1.23 1.49 1.69 2.20 2.48 2.49 2.58 2.72 2.90 2.78 2.64 2.55 2.46 2.25 2.04 1.90 1.65 1.45 1.35 1.25 1.20 1.08 0.96 0.96 0.96 0.90 0.86 0.83 0.79 0.74 0.76
0.76 0.65 0.52 0.52 0.57 0.53 0.49 0.53 0.44 0.44 0.48 0.49 0.61 0.68 0.65 0.61 0.69 0.85 1.05 1.29 1.41 1.71 2.11 2.27 2.33 2.53 2.68 2.87 3.13 3.11 2.97 2.60 2.16 1.88 1.78 1.65 1.59 1.49 1.35 1.32 1.22 1.07 1.03 0.97 0.90 0.85 0.84 0.82 0.81
0.75 0.52 0.53 0.54 0.67 0.69 0.53 0.68 0.46 0.41 0.46 0.47 0.58 0.65 0.65 0.63 0.66 0.80 0.95 1.05 1.20 1.37 1.70 2.05 2.25 2.39 2.44 2.54 2.83 2.95 2.81 2.44 2.08 1.86 1.87 1.92 1.85 1.79 1.71 1.58 1.50 1.35 1.21 1.11 1.06 1.00 0.97 0.98 0.95
0.68 0.48 0.58 0.64 0.72 0.72 0.50 0.60 0.50 0.42 0.49 0.52 0.58 0.66 0.67 0.68 0.73 0.80 0.86 0.88 0.98 1.16 1.47 1.79 2.03 2.26 2.31 2.25 2.37 2.62 2.73 2.61 2.42 2.22 2.10 2.02 1.95 1.84 1.81 1.76 1.69 1.56 1.45 1.36 1.32 1.25 1.18 1.16 1.11
0.75 0.77 0.89 0.97 1.16 1.11 0.49 0.49 0.46 0.46 0.56 0.55 0.56 0.66 0.72 0.77 0.79 0.80 0.81 0.80 0.87 0.99 1.19 1.48 1.73 2.04 2.22 2.17 2.21 2.30 2.37 2.48 2.42 2.23 2.20 2.11 2.08 1.95 1.80 1.76 1.76 1.69 1.65 1.59 1.56 1.53 1.43 1.33 1.26
1.17 1.55 1.91 1.86 1.62 0.94 0.29 0.33 0.47 0.43 0.49 0.52 0.55 0.64 0.69 0.70 0.70 0.68 0.67 0.68 0.78 0.90 1.00 1.18 1.33 1.58 1.86 1.99 2.03 2.05 2.15 2.21 2.28 2.29 2.25 2.21 2.08 1.93 1.84 1.76 1.77 1.78 1.69 1.68 1.68 1.63 1.53 1.45 1.38
1.17 1.39 1.50 1.29 0.85 0.44 0.24 0.37 0.46 0.39 0.41 0.45 0.50 0.58 0.68 0.73 0.72 0.68 0.65 0.69 0.80 0.83 0.90 1.02 1.14 1.26 1.48 1.68 1.75 1.79 1.92 1.99 1.97 2.08 2.09 2.06 2.00 1.91 1.90 1.87 1.76 1.76 1.75 1.69 1.67 1.63 1.53 1.47 1.43
1.13 1.03 0.81 1.00 0.72 0.50 0.35 0.31 0.35 0.33 0.37 0.42 0.43 0.48 0.60 0.66 0.65 0.67 0.68 0.71 0.76 0.80 0.84 0.93 1.02 1.05 1.16 1.36 1.50 1.60 1.66 1.67 1.61 1.63 1.66 1.71 1.76 1.78 1.76 1.77 1.69 1.61 1.59 1.58 1.59 1.57 1.49 1.43 1.36
0.99 0.85 0.91 1.20 1.00 0.72 0.38 0.29 0.43 0.41 0.42 0.42 0.43 0.45 0.54 0.61 0.64 0.67 0.69 0.67 0.67 0.72 0.76 0.84 0.88 0.88 0.93 1.04 1.14 1.31 1.41 1.41 1.43 1.44 1.40 1.38 1.38 1.43 1.47 1.52 1.53 1.47 1.44 1.43 1.42 1.39 1.39 1.38 1.28
0.76 0.86 0.95 0.97 0.79 0.82 0.55 0.40 0.40 0.41 0.43 0.45 0.49 0.50 0.55 0.59 0.66 0.70 0.72 0.70 0.68 0.72 0.75 0.77 0.72 0.75 0.78 0.86 0.92 0.99 1.12 1.19 1.24 1.25 1.17 1.18 1.14 1.11 1.15 1.16 1.19 1.23 1.25 1.26 1.25 1.24 1.25 1.27 1.23
0.58 0.60 0.74 1.00 0.77 0.63 0.59 0.39 0.28 0.33 0.37 0.43 0.51 0.51 0.51 0.54 0.58 0.63 0.69 0.69 0.68 0.71 0.74 0.77 0.70 0.68 0.71 0.76 0.77 0.81 0.91 1.03 1.08 1.12 1.06 1.00 1.01 0.95 0.94 0.94 0.94 0.95 0.97 1.01 1.03 1.02 1.05 1.09 1.10

GEFSSGP_prec_meanprecacc_204.txt.gz
Total_Precipitation_Accumulation
0.27 0.32 0.42 0.54 0.46 0.32 0.14 0.04 0.01 0.02 0.03 0.03 0.03 0.04 0.04 0.07 0.10 0.13 0.10 0.08 0.08 0.09 0.14 0.26 0.39 0.40 0.36 0.32 0.28 0.25 0.25 0.26 0.26 0.28 0.29 0.29 0.27 0.28 0.35 0.37 0.38 0.39 0.40 0.47 0.53 0.50 0.46 0.43 0.30
0.32 0.46 0.66 0.74 0.50 0.29 0.14 0.05 0.02 0.02 0.03 0.03 0.03 0.04 0.06 0.08 0.10 0.10 0.11 0.13 0.16 0.15 0.17 0.27 0.39 0.42 0.39 0.34 0.28 0.28 0.30 0.31 0.34 0.35 0.37 0.39 0.36 0.36 0.39 0.43 0.40 0.37 0.37 0.41 0.40 0.33 0.28 0.25 0.19
0.51 0.71 0.90 0.81 0.56 0.30 0.14 0.05 0.03 0.03 0.04 0.03 0.04 0.06 0.12 0.12 0.12 0.14 0.15 0.19 0.24 0.26 0.24 0.33 0.43 0.49 0.46 0.40 0.33 0.32 0.34 0.37 0.38 0.41 0.46 0.49 0.49 0.48 0.46 0.44 0.39 0.34 0.30 0.27 0.22 0.18 0.18 0.17 0.14
0.82 1.06 1.10 0.87 0.51 0.23 0.11 0.08 0.04 0.05 0.04 0.04 0.05 0.10 0.15 0.13 0.15 0.18 0.22 0.27 0.27 0.34 0.37 0.44 0.53 0.59 0.58 0.50 0.43 0.40 0.42 0.44 0.45 0.45 0.49 0.56 0.61 0.61 0.55 0.45 0.34 0.27 0.23 0.20 0.17 0.15 0.15 0.13 0.11
1.12 1.25 1.14 0.81 0.39 0.18 0.09 0.08 0.07 0.07 0.07 0.07 0.09 0.12 0.18 0.17 0.21 0.32 0.30 0.32 0.30 0.35 0.43 0.54 0.64 0.65 0.66 0.61 0.57 0.55 0.55 0.54 0.53 0.51 0.54 0.59 0.59 0.57 0.52 0.39 0.28 0.23 0.21 0.20 0.17 0.16 0.16 0.15 0.11
1.29 1.37 1.10 0.67 0.31 0.15 0.09 0.09 0.11 0.10 0.09 0.12 0.16 0.21 0.28 0.30 0.36 0.44 0.46 0.41 0.33 0.35 0.50 0.64 0.78 0.74 0.69 0.65 0.63 0.64 0.65 0.65 0.64 0.62 0.61 0.62 0.61 0.55 0.47 0.38 0.30 0.25 0.23 0.23 0.22 0.19 0.17 0.17 0.15
1.22 1.22 0.89 0.49 0.27 0.17 0.11 0.11 0.15 0.15 0.13 0.16 0.20 0.28 0.40 0.48 0.59 0.59 0.64 0.63 0.53 0.51 0.63 0.76 0.89 0.89 0.83 0.76 0.69 0.67 0.70 0.71 0.71 0.70 0.68 0.59 0.53 0.50 0.46 0.39 0.32 0.29 0.26 0.25 0.23 0.22 0.19 0.18 0.18
1.18 1.35 0.82 0.47 0.30 0.21 0.13 0.13 0.16 0.20 0.20 0.18 0.25 0.33 0.44 0.59 0.78 0.84 0.91 0.96 0.84 0.77 0.85 0.95 1.01 0.96 0.88 0.82 0.77 0.72 0.71 0.73 0.74 0.73 0.65 0.57 0.50 0.48 0.44 0.36 0.31 0.27 0.25 0.25 0.23 0.22 0.19 0.19 0.17
1.12 1.42 0.89 0.46 0.36 0.27 0.21 0.19 0.19 0.23 0.29 0.26 0.28 0.35 0.49 0.72 1.02 1.13 1.26 1.28 1.20 1.08 1.10 1.16 1.18 1.13 1.02 0.92 0.84 0.80 0.74 0.74 0.75 0.70 0.61 0.58 0.57 0.51 0.42 0.31 0.25 0.24 0.24 0.23 0.23 0.22 0.20 0.17 0.14
1.10 1.13 0.77 0.47 0.41 0.38 0.35 0.30 0.31 0.38 0.43 0.39 0.36 0.50 0.72 1.05 1.36 1.38 1.27 1.32 1.29 1.25 1.25 1.28 1.27 1.20 1.15 1.05 0.94 0.93 0.84 0.75 0.74 0.64 0.62 0.63 0.60 0.53 0.39 0.33 0.28 0.26 0.24 0.25 0.27 0.27 0.24 0.18 0.13
0.80 0.69 0.58 0.53 0.47 0.47 0.45 0.42 0.38 0.47 0.46 0.44 0.37 0.51 0.82 1.25 1.59 1.72 1.67 1.49 1.44 1.39 1.41 1.45 1.42 1.34 1.22 1.20 1.05 0.96 0.90 0.81 0.76 0.66 0.66 0.68 0.70 0.63 0.56 0.47 0.41 0.38 0.31 0.31 0.30 0.31 0.23 0.16 0.13
0.58 0.47 0.53 0.62 0.55 0.50 0.49 0.49 0.46 0.50 0.46 0.44 0.44 0.51 0.79 1.17 1.56 1.78 1.96 1.81 1.75 1.67 1.54 1.59 1.57 1.50 1.36 1.25 1.16 1.06 0.97 0.88 0.79 0.67 0.63 0.67 0.66 0.62 0.56 0.46 0.40 0.38 0.31 0.30 0.30 0.26 0.20 0.17 0.14
0.48 0.48 0.51 0.61 0.58 0.50 0.51 0.52 0.53 0.53 0.52 0.53 0.58 0.71 0.87 1.18 1.60 1.91 2.20 2.22 2.09 1.92 1.78 1.77 1.69 1.59 1.47 1.32 1.18 1.09 1.07 1.00 0.89 0.84 0.74 0.68 0.61 0.52 0.49 0.45 0.44 0.41 0.33 0.28 0.29 0.25 0.23 0.21 0.19
0.44 0.50 0.54 0.59 0.63 0.56 0.58 0.53 0.54 0.55 0.58 0.67 0.69 0.77 0.93 1.24 1.59 1.93 2.22 2.34 2.17 2.14 2.11 2.06 1.91 1.78 1.64 1.44 1.22 1.10 1.10 1.11 1.10 0.98 0.80 0.77 0.71 0.61 0.53 0.50 0.49 0.44 0.40 0.36 0.34 0.30 0.29 0.27 0.24
0.50 0.61 0.64 0.64 0.64 0.62 0.64 0.65 0.54 0.52 0.61 0.72 0.71 0.76 0.88 1.14 1.52 1.80 1.98 2.11 2.16 2.13 2.27 2.30 2.18 2.07 1.89 1.68 1.47 1.22 1.18 1.17 1.15 1.09 0.94 0.86 0.83 0.79 0.69 0.60 0.53 0.45 0.43 0.44 0.44 0.43 0.40 0.34 0.30
0.78 0.85 0.79 0.60 0.62 0.61 0.72 0.72 0.50 0.50 0.60 0.70 0.73 0.75 0.85 0.98 1.35 1.69 1.83 1.98 2.18 2.15 2.20 2.36 2.38 2.30 2.18 1.97 1.75 1.44 1.27 1.23 1.16 1.11 1.05 0.95 0.89 0.85 0.83 0.72 0.62 0.56 0.53 0.51 0.51 0.49 0.46 0.41 0.37
1.10 0.89 0.60 0.52 0.55 0.59 0.65 0.68 0.51 0.45 0.55 0.63 0.72 0.74 0.81 0.89 1.12 1.53 1.74 1.83 2.09 2.17 2.23 2.38 2.49 2.52 2.54 2.43 2.24 1.87 1.53 1.42 1.35 1.24 1.12 1.06 1.01 0.93 0.89 0.81 0.70 0.68 0.66 0.57 0.52 0.50 0.46 0.45 0.44
0.76 0.56 0.44 0.48 0.49 0.50 0.52 0.58 0.53 0.47 0.52 0.58 0.70 0.78 0.83 0.86 0.95 1.26 1.62 1.74 2.11 2.38 2.47 2.45 2.59 2.76 2.86 2.90 2.74 2.50 2.03 1.68 1.54 1.39 1.27 1.19 1.13 1.06 0.99 0.94 0.85 0.80 0.82 0.76 0.66 0.58 0.54 0.49 0.46
0.55 0.49 0.41 0.40 0.40 0.48 0.47 0.51 0.54 0.53 0.53 0.61 0.73 0.79 0.82 0.82 0.89 1.16 1.48 1.70 2.03 2.44 2.62 2.63 2.60 2.80 3.04 2.93 2.68 2.43 2.16 1.90 1.70 1.57 1.46 1.37 1.28 1.20 1.10 0.97 0.96 0.94 0.89 0.84 0.81 0.78 0.74 0.69 0.67
0.68 0.62 0.49 0.46 0.43 0.50 0.48 0.50 0.49 0.53 0.54 0.59 0.67 0.73 0.73 0.68 0.78 1.04 1.30 1.56 1.75 2.25 2.56 2.57 2.66 2.83 3.03 2.94 2.79 2.68 2.55 2.31 2.08 1.92 1.66 1.46 1.36 1.28 1.24 1.12 0.99 0.98 0.98 0.94 0.91 0.90 0.87 0.83 0.84
0.76 0.65 0.52 0.52 0.57 0.53 0.49 0.53 0.44 0.45 0.49 0.50 0.62 0.69 0.67 0.63 0.71 0.89 1.09 1.33 1.47 1.76 2.17 2.35 2.41 2.64 2.80 3.01 3.28 3.23 3.06 2.66 2.21 1.91 1.79 1.65 1.60 1.50 1.38 1.36 1.25 1.10 1.05 0.98 0.92 0.88 0.89 0.88 0.87
0.76 0.52 0.53 0.54 0.67 0.69 0.53 0.69 0.47 0.41 0.46 0.48 0.59 0.67 0.67 0.64 0.68 0.83 0.98 1.08 1.25 1.41 1.73 2.11 2.33 2.47 2.52 2.64 2.96 3.08 2.91 2.52 2.13 1.89 1.88 1.92 1.85 1.80 1.72 1.60 1.53 1.38 1.24 1.12 1.07 1.02 0.99 1.01 0.98
0.68 0.49 0.58 0.64 0.72 0.72 0.50 0.60 0.51 0.42 0.49 0.52 0.59 0.67 0.69 0.70 0.75 0.83 0.89 0.90 1.00 1.20 1.51 1.83 2.09 2.32 2.36 2.31 2.45 2.71 2.82 2.69 2.48 2.26 2.12 2.03 1.95 1.85 1.81 1.78 1.71 1.58 1.47 1.37 1.32 1.26 1.19 1.17 1.13
0.75 0.78 0.90 0.98 1.17 1.12 0.49 0.49 0.47 0.46 0.56 0.56 0.56 0.66 0.73 0.79 0.81 0.82 0.84 0.83 0.89 1.02 1.25 1.51 1.76 2.09 2.26 2.21 2.26 2.36 2.44 2.54 2.47 2.27 2.22 2.13 2.09 1.96 1.81 1.77 1.77 1.72 1.66 1.60 1.56 1.53 1.43 1.34 1.27
1.17 1.56 1.92 1.87 1.65 0.95 0.29 0.34 0.48 0.43 0.49 0.52 0.56 0.64 0.69 0.71 0.71 0.70 0.69 0.70 0.80 0.93 1.04 1.24 1.37 1.63 1.91 2.02 2.06 2.09 2.19 2.25 2.32 2.32 2.27 2.23 2.09 1.94 1.85 1.78 1.79 1.79 1.71 1.69 1.69 1.64 1.54 1.46 1.39
1.18 1.39 1.51 1.30 0.86 0.45 0.24 0.38 0.47 0.39 0.41 0.45 0.50 0.58 0.68 0.73 0.73 0.70 0.66 0.71 0.82 0.85 0.92 1.06 1.18 1.30 1.53 1.72 1.78 1.81 1.95 2.02 1.99 2.09 2.10 2.07 2.01 1.92 1.91 1.89 1.80 1.79 1.77 1.70 1.68 1.63 1.54 1.48 1.44
1.13 1.04 0.82 1.01 0.73 0.51 0.36 0.32 0.35 0.34 0.37 0.42 0.44 0.49 0.60 0.66 0.65 0.67 0.69 0.74 0.79 0.82 0.86 0.94 1.04 1.08 1.19 1.40 1.52 1.62 1.68 1.69 1.63 1.63 1.66 1.71 1.77 1.79 1.76 1.78 1.71 1.65 1.63 1.62 1.61 1.57 1.49 1.43 1.37
0.99 0.86 0.92 1.21 1.01 0.73 0.39 0.30 0.44 0.42 0.42 0.42 0.43 0.45 0.54 0.61 0.65 0.67 0.69 0.68 0.69 0.74 0.77 0.84 0.88 0.89 0.95 1.07 1.16 1.32 1.43 1.42 1.44 1.44 1.40 1.39 1.38 1.43 1.48 1.52 1.53 1.49 1.47 1.46 1.45 1.42 1.40 1.39 1.29
0.77 0.87 0.96 0.97 0.80 0.83 0.56 0.40 0.40 0.42 0.43 0.45 0.50 0.50 0.55 0.59 0.66 0.70 0.73 0.70 0.68 0.73 0.76 0.77 0.73 0.75 0.79 0.87 0.93 1.00 1.13 1.20 1.24 1.26 1.18 1.18 1.14 1.11 1.15 1.16 1.19 1.24 1.26 1.28 1.27 1.26 1.27 1.28 1.24
0.58 0.60 0.75 1.01 0.77 0.64 0.59 0.40 0.28 0.33 0.37 0.43 0.51 0.51 0.51 0.54 0.58 0.63 0.69 0.69 0.69 0.72 0.75 0.78 0.71 0.69 0.71 0.76 0.78 0.82 0.91 1.03 1.08 1.12 1.06 1.00 1.01 0.95 0.94 0.94 0.94 0.95 0.98 1.03 1.06 1.05 1.07 1.11 1.11

GEFSSGP_prec_meanprecacc_210.txt.gz
Total_Precipitation_Accumulation
0.27 0.33 0.42 0.54 0.48 0.34 0.15 0.04 0.01 0.02 0.04 0.04 0.03 0.04 0.04 0.07 0.11 0.14 0.10 0.08 0.09 0.11 0.16 0.31 0.44 0.44 0.40 0.35 0.30 0.28 0.27 0.27 0.27 0.28 0.30 0.29 0.27 0.29 0.36 0.38 0.39 0.39 0.41 0.47 0.54 0.51 0.48 0.44 0.31
0.32 0.47 0.67 0.75 0.51 0.31 0.16 0.05 0.02 0.02 0.04 0.04 0.04 0.04 0.07 0.09 0.11 0.11 0.11 0.14 0.16 0.17 0.19 0.31 0.44 0.47 0.44 0.38 0.32 0.31 0.33 0.33 0.36 0.36 0.38 0.39 0.37 0.37 0.40 0.44 0.41 0.38 0.38 0.41 0.41 0.34 0.30 0.27 0.20
0.52 0.73 0.91 0.83 0.57 0.30 0.15 0.06 0.03 0.03 0.04 0.04 0.05 0.07 0.13 0.13 0.13 0.14 0.16 0.19 0.25 0.28 0.27 0.37 0.50 0.54 0.52 0.45 0.38 0.35 0.37 0.40 0.41 0.44 0.48 0.50 0.50 0.49 0.46 0.44 0.40 0.35 0.31 0.28 0.23 0.20 0.19 0.18 0.15
0.82 1.08 1.11 0.89 0.52 0.24 0.12 0.09 0.05 0.05 0.04 0.05 0.07 0.12 0.16 0.15 0.17 0.19 0.22 0.28 0.28 0.36 0.40 0.50 0.62 0.67 0.66 0.56 0.48 0.45 0.45 0.46 0.48 0.48 0.52 0.58 0.63 0.63 0.56 0.46 0.34 0.28 0.24 0.20 0.18 0.16 0.16 0.14 0.11
1.13 1.26 1.15 0.82 0.40 0.19 0.10 0.09 0.08 0.07 0.07 0.08 0.10 0.14 0.21 0.19 0.24 0.34 0.33 0.35 0.32 0.36 0.46 0.60 0.72 0.76 0.76 0.70 0.64 0.61 0.59 0.57 0.56 0.54 0.57 0.61 0.62 0.59 0.54 0.40 0.29 0.24 0.22 0.21 0.18 0.17 0.17 0.15 0.12
1.31 1.38 1.11 0.68 0.32 0.16 0.10 0.10 0.13 0.11 0.10 0.13 0.18 0.23 0.31 0.33 0.40 0.48 0.49 0.44 0.35 0.36 0.52 0.69 0.85 0.84 0.81 0.77 0.73 0.71 0.69 0.67 0.66 0.64 0.64 0.66 0.64 0.58 0.49 0.40 0.32 0.26 0.25 0.24 0.23 0.20 0.18 0.18 0.16
1.25 1.23 0.90 0.49 0.28 0.18 0.12 0.13 0.16 0.17 0.14 0.17 0.21 0.30 0.43 0.54 0.66 0.66 0.68 0.66 0.55 0.53 0.66 0.80 0.96 0.97 0.93 0.88 0.81 0.76 0.76 0.75 0.73 0.72 0.70 0.63 0.58 0.55 0.48 0.41 0.35 0.31 0.27 0.27 0.24 0.23 0.20 0.19 0.20
1.22 1.36 0.83 0.48 0.31 0.23 0.15 0.14 0.18 0.22 0.21 0.19 0.26 0.35 0.47 0.63 0.84 0.92 0.98 1.00 0.87 0.79 0.88 0.99 1.08 1.04 0.97 0.93 0.89 0.85 0.81 0.79 0.78 0.76 0.66 0.59 0.53 0.51 0.47 0.38 0.33 0.29 0.27 0.26 0.24 0.23 0.21 0.20 0.19
1.15 1.45 0.90 0.47 0.39 0.28 0.22 0.20 0.21 0.25 0.30 0.27 0.29 0.37 0.52 0.75 1.07 1.22 1.37 1.36 1.25 1.11 1.12 1.19 1.24 1.20 1.11 1.02 0.96 0.95 0.88 0.83 0.81 0.73 0.62 0.60 0.59 0.53 0.44 0.33 0.27 0.26 0.26 0.25 0.25 0.23 0.21 0.18 0.15
1.12 1.18 0.80 0.50 0.44 0.39 0.36 0.32 0.33 0.40 0.44 0.41 0.38 0.52 0.75 1.10 1.42 1.50 1.44 1.44 1.38 1.29 1.27 1.31 1.32 1.27 1.23 1.14 1.06 1.07 0.97 0.87 0.82 0.69 0.65 0.65 0.62 0.55 0.42 0.34 0.30 0.28 0.26 0.26 0.28 0.28 0.26 0.19 0.14
0.82 0.73 0.62 0.56 0.48 0.49 0.48 0.44 0.40 0.49 0.47 0.45 0.39 0.53 0.85 1.31 1.66 1.82 1.85 1.67 1.58 1.46 1.45 1.48 1.46 1.40 1.30 1.29 1.16 1.10 1.04 0.94 0.87 0.73 0.70 0.71 0.72 0.66 0.60 0.49 0.43 0.39 0.32 0.32 0.31 0.33 0.25 0.17 0.14
0.62 0.50 0.56 0.64 0.57 0.54 0.52 0.51 0.48 0.52 0.47 0.45 0.46 0.54 0.81 1.23 1.64 1.87 2.10 1.99 1.93 1.78 1.58 1.63 1.60 1.56 1.43 1.34 1.27 1.20 1.11 1.01 0.88 0.74 0.69 0.71 0.69 0.65 0.60 0.49 0.42 0.40 0.32 0.32 0.31 0.27 0.22 0.18 0.15
0.52 0.52 0.54 0.64 0.63 0.55 0.54 0.54 0.55 0.54 0.53 0.54 0.60 0.73 0.90 1.24 1.70 1.99 2.32 2.39 2.26 2.05 1.85 1.81 1.73 1.64 1.54 1.41 1.29 1.24 1.22 1.13 1.00 0.92 0.80 0.72 0.64 0.55 0.53 0.49 0.47 0.43 0.36 0.30 0.31 0.26 0.24 0.22 0.19
0.45 0.53 0.59 0.65 0.68 0.59 0.60 0.55 0.56 0.57 0.61 0.69 0.70 0.78 0.95 1.29 1.68 2.01 2.34 2.51 2.31 2.25 2.19 2.12 1.97 1.83 1.70 1.51 1.32 1.23 1.25 1.24 1.21 1.06 0.87 0.82 0.74 0.63 0.55 0.53 0.51 0.47 0.42 0.38 0.36 0.32 0.31 0.29 0.25
0.50 0.61 0.66 0.66 0.66 0.64 0.66 0.68 0.57 0.55 0.64 0.73 0.72 0.77 0.90 1.17 1.58 1.89 2.09 2.25 2.30 2.24 2.36 2.39 2.26 2.13 1.94 1.74 1.54 1.33 1.32 1.31 1.27 1.17 1.00 0.91 0.87 0.81 0.71 0.62 0.55 0.48 0.45 0.46 0.47 0.45 0.42 0.36 0.31
0.79 0.85 0.79 0.60 0.62 0.61 0.73 0.75 0.54 0.54 0.63 0.71 0.74 0.77 0.86 1.00 1.39 1.76 1.91 2.08 2.30 2.26 2.30 2.46 2.49 2.39 2.25 2.04 1.83 1.54 1.42 1.39 1.30 1.20 1.10 0.99 0.94 0.89 0.86 0.75 0.65 0.58 0.55 0.53 0.54 0.52 0.49 0.43 0.38
1.10 0.90 0.60 0.52 0.56 0.60 0.66 0.70 0.55 0.49 0.57 0.65 0.73 0.75 0.82 0.90 1.15 1.58 1.80 1.90 2.18 2.25 2.30 2.46 2.56 2.58 2.59 2.48 2.32 1.98 1.67 1.59 1.50 1.34 1.17 1.09 1.05 0.97 0.92 0.85 0.73 0.71 0.69 0.59 0.55 0.54 0.50 0.48 0.47
0.76 0.57 0.44 0.48 0.49 0.50 0.52 0.59 0.54 0.49 0.54 0.58 0.71 0.79 0.84 0.87 0.96 1.29 1.69 1.82 2.19 2.44 2.54 2.55 2.67 2.82 2.90 2.95 2.81 2.58 2.15 1.85 1.69 1.50 1.34 1.22 1.15 1.08 1.02 0.98 0.90 0.85 0.86 0.79 0.68 0.61 0.58 0.54 0.50
0.55 0.49 0.41 0.41 0.40 0.48 0.47 0.52 0.55 0.54 0.54 0.62 0.74 0.80 0.83 0.84 0.91 1.19 1.57 1.80 2.12 2.51 2.69 2.74 2.70 2.88 3.10 2.97 2.72 2.50 2.26 2.05 1.84 1.69 1.54 1.42 1.31 1.21 1.11 0.99 0.99 0.99 0.95 0.91 0.87 0.82 0.77 0.72 0.71
0.68 0.62 0.49 0.46 0.43 0.50 0.48 0.51 0.50 0.53 0.55 0.59 0.67 0.73 0.73 0.69 0.80 1.06 1.37 1.67 1.85 2.33 2.63 2.67 2.77 2.93 3.10 2.98 2.83 2.73 2.63 2.42 2.20 2.03 1.75 1.53 1.40 1.29 1.25 1.12 0.99 1.00 1.02 1.00 1.00 0.99 0.95 0.90 0.90
0.76 0.65 0.52 0.52 0.57 0.53 0.49 0.54 0.44 0.45 0.49 0.51 0.63 0.70 0.67 0.64 0.72 0.91 1.14 1.43 1.56 1.86 2.25 2.44 2.52 2.74 2.88 3.06 3.32 3.28 3.12 2.74 2.31 2.02 1.88 1.71 1.64 1.52 1.39 1.36 1.25 1.11 1.07 1.00 0.96 0.93 0.96 0.96 0.95
0.76 0.52 0.53 0.54 0.68 0.69 0.53 0.69 0.47 0.41 0.46 0.48 0.59 0.67 0.68 0.65 0.69 0.84 1.02 1.15 1.32 1.50 1.82 2.19 2.42 2.57 2.61 2.71 3.00 3.13 2.96 2.58 2.21 2.00 1.98 2.00 1.89 1.82 1.74 1.61 1.53 1.38 1.24 1.14 1.10 1.04 1.02 1.04 1.02
0.68 0.49 0.58 0.64 0.72 0.72 0.50 0.60 0.51 0.42 0.49 0.52 0.59 0.67 0.69 0.70 0.76 0.85 0.92 0.95 1.06 1.27 1.59 1.91 2.17 2.41 2.45 2.39 2.52 2.78 2.88 2.76 2.55 2.35 2.22 2.11 2.01 1.87 1.83 1.78 1.71 1.58 1.47 1.39 1.35 1.29 1.23 1.20 1.14
0.75 0.78 0.90 0.98 1.18 1.12 0.49 0.50 0.48 0.47 0.56 0.56 0.56 0.66 0.73 0.79 0.83 0.84 0.87 0.88 0.94 1.08 1.30 1.58 1.83 2.16 2.34 2.29 2.33 2.43 2.51 2.61 2.55 2.36 2.30 2.21 2.15 2.00 1.83 1.78 1.78 1.72 1.67 1.61 1.58 1.55 1.46 1.37 1.29
1.17 1.56 1.94 1.88 1.66 0.96 0.30 0.34 0.49 0.44 0.49 0.52 0.56 0.64 0.69 0.71 0.73 0.71 0.71 0.75 0.86 0.98 1.09 1.29 1.41 1.68 1.98 2.10 2.13 2.16 2.26 2.32 2.39 2.40 2.34 2.30 2.15 1.99 1.88 1.79 1.79 1.80 1.71 1.70 1.69 1.64 1.55 1.49 1.41
1.18 1.39 1.52 1.31 0.86 0.45 0.25 0.38 0.47 0.39 0.41 0.46 0.50 0.58 0.68 0.74 0.73 0.71 0.68 0.74 0.87 0.92 0.99 1.11 1.22 1.34 1.59 1.79 1.84 1.86 2.00 2.08 2.06 2.16 2.16 2.14 2.07 1.97 1.94 1.91 1.81 1.80 1.77 1.70 1.68 1.64 1.54 1.49 1.45
1.13 1.04 0.82 1.02 0.73 0.51 0.36 0.32 0.36 0.34 0.38 0.42 0.44 0.49 0.61 0.67 0.65 0.68 0.71 0.77 0.83 0.87 0.91 0.99 1.07 1.10 1.23 1.45 1.58 1.67 1.71 1.73 1.68 1.69 1.72 1.77 1.82 1.84 1.81 1.81 1.73 1.66 1.64 1.62 1.61 1.58 1.50 1.44 1.37
0.99 0.86 0.92 1.22 1.02 0.73 0.39 0.30 0.44 0.43 0.43 0.43 0.43 0.46 0.54 0.62 0.65 0.67 0.70 0.69 0.71 0.77 0.81 0.88 0.91 0.91 0.97 1.10 1.20 1.37 1.46 1.45 1.49 1.48 1.44 1.42 1.42 1.47 1.52 1.56 1.56 1.50 1.48 1.47 1.46 1.42 1.41 1.39 1.29
0.77 0.88 0.97 0.98 0.80 0.83 0.56 0.41 0.41 0.42 0.44 0.45 0.50 0.50 0.56 0.59 0.67 0.71 0.73 0.71 0.69 0.74 0.78 0.80 0.76 0.78 0.82 0.90 0.96 1.03 1.15 1.21 1.26 1.28 1.20 1.20 1.16 1.14 1.18 1.18 1.22 1.26 1.28 1.29 1.28 1.27 1.27 1.29 1.24
0.58 0.60 0.75 1.02 0.78 0.64 0.60 0.40 0.28 0.33 0.37 0.43 0.51 0.51 0.52 0.55 0.59 0.63 0.70 0.69 0.69 0.72 0.76 0.79 0.73 0.71 0.74 0.79 0.80 0.84 0.92 1.05 1.09 1.13 1.07 1.02 1.02 0.96 0.96 0.96 0.96 0.97 0.99 1.04 1.06 1.06 1.08 1.12 1.11

GEFSSGP_prec_meanprecacc_216.txt.gz
Total_Precipitation_Accumulation
0.27 0.33 0.42 0.55 0.48 0.35 0.15 0.05 0.01 0.02 0.04 0.04 0.05 0.05 0.05 0.08 0.11 0.14 0.10 0.08 0.09 0.11 0.17 0.32 0.47 0.49 0.45 0.40 0.35 0.32 0.31 0.30 0.30 0.30 0.31 0.30 0.28 0.30 0.38 0.40 0.41 0.42 0.42 0.49 0.56 0.53 0.50 0.46 0.32
0.32 0.47 0.67 0.75 0.52 0.32 0.16 0.05 0.02 0.02 0.04 0.04 0.05 0.06 0.09 0.10 0.11 0.11 0.11 0.14 0.16 0.17 0.19 0.32 0.47 0.52 0.50 0.44 0.36 0.35 0.37 0.37 0.40 0.39 0.40 0.41 0.38 0.38 0.41 0.45 0.43 0.39 0.39 0.43 0.42 0.35 0.31 0.28 0.21
0.52 0.73 0.92 0.83 0.58 0.31 0.16 0.06 0.03 0.03 0.04 0.05 0.06 0.09 0.15 0.15 0.13 0.14 0.16 0.19 0.25 0.28 0.27 0.38 0.53 0.59 0.58 0.51 0.43 0.40 0.41 0.43 0.45 0.48 0.52 0.52 0.53 0.51 0.48 0.46 0.41 0.36 0.32 0.28 0.24 0.21 0.20 0.19 0.16
0.83 1.08 1.12 0.89 0.52 0.24 0.12 0.10 0.06 0.05 0.04 0.05 0.08 0.13 0.18 0.17 0.18 0.19 0.23 0.28 0.28 0.37 0.40 0.51 0.65 0.73 0.73 0.62 0.55 0.51 0.51 0.51 0.52 0.52 0.56 0.61 0.65 0.65 0.57 0.47 0.35 0.29 0.25 0.21 0.19 0.17 0.17 0.14 0.12
1.13 1.27 1.16 0.83 0.40 0.19 0.10 0.10 0.09 0.08 0.07 0.08 0.11 0.16 0.24 0.20 0.25 0.35 0.33 0.35 0.32 0.37 0.47 0.61 0.76 0.81 0.83 0.76 0.71 0.68 0.66 0.63 0.61 0.58 0.60 0.65 0.65 0.61 0.55 0.41 0.30 0.25 0.24 0.22 0.19 0.18 0.18 0.16 0.12
1.32 1.38 1.11 0.68 0.32 0.16 0.10 0.10 0.13 0.13 0.11 0.13 0.18 0.24 0.33 0.36 0.43 0.50 0.50 0.45 0.36 0.37 0.53 0.70 0.88 0.89 0.85 0.82 0.79 0.79 0.79 0.77 0.73 0.70 0.68 0.70 0.68 0.61 0.51 0.41 0.33 0.27 0.26 0.26 0.24 0.21 0.19 0.19 0.16
1.27 1.24 0.90 0.50 0.28 0.19 0.13 0.13 0.17 0.18 0.16 0.18 0.22 0.31 0.46 0.57 0.71 0.70 0.70 0.67 0.57 0.55 0.67 0.82 0.98 1.00 0.97 0.93 0.87 0.84 0.85 0.87 0.84 0.81 0.74 0.66 0.61 0.59 0.52 0.43 0.36 0.32 0.29 0.28 0.25 0.24 0.21 0.20 0.20
1.24 1.39 0.83 0.48 0.31 0.23 0.15 0.15 0.18 0.23 0.24 0.20 0.27 0.36 0.49 0.67 0.92 1.00 1.03 1.04 0.90 0.82 0.90 1.01 1.10 1.07 1.01 0.98 0.95 0.93 0.91 0.93 0.94 0.88 0.73 0.63 0.56 0.55 0.51 0.41 0.35 0.30 0.28 0.27 0.25 0.24 0.22 0.21 0.20
1.18 1.50 0.91 0.47 0.39 0.29 0.23 0.21 0.22 0.26 0.32 0.29 0.30 0.38 0.53 0.78 1.13 1.31 1.45 1.43 1.31 1.16 1.17 1.23 1.27 1.24 1.15 1.07 1.03 1.03 0.97 0.95 0.96 0.90 0.72 0.65 0.63 0.58 0.49 0.37 0.29 0.27 0.26 0.26 0.26 0.24 0.23 0.20 0.16
1.17 1.26 0.83 0.50 0.44 0.40 0.38 0.34 0.35 0.41 0.46 0.43 0.40 0.54 0.77 1.12 1.48 1.60 1.53 1.51 1.45 1.36 1.34 1.35 1.35 1.30 1.27 1.19 1.13 1.15 1.05 0.96 0.93 0.83 0.75 0.71 0.67 0.59 0.48 0.41 0.34 0.29 0.26 0.27 0.29 0.30 0.27 0.21 0.15
0.85 0.76 0.63 0.56 0.49 0.50 0.50 0.46 0.42 0.50 0.48 0.46 0.40 0.54 0.86 1.34 1.71 1.94 1.97 1.73 1.66 1.55 1.52 1.54 1.50 1.42 1.32 1.33 1.23 1.19 1.13 1.02 0.95 0.84 0.82 0.80 0.78 0.70 0.64 0.55 0.50 0.42 0.33 0.33 0.32 0.34 0.26 0.18 0.15
0.65 0.52 0.58 0.65 0.58 0.55 0.54 0.52 0.49 0.53 0.48 0.45 0.46 0.55 0.83 1.26 1.69 1.95 2.20 2.07 2.03 1.89 1.68 1.69 1.65 1.59 1.46 1.37 1.33 1.28 1.21 1.10 0.95 0.81 0.78 0.83 0.77 0.70 0.63 0.53 0.47 0.44 0.33 0.32 0.32 0.28 0.23 0.19 0.16
0.55 0.55 0.56 0.66 0.64 0.56 0.55 0.54 0.56 0.55 0.54 0.55 0.61 0.75 0.92 1.26 1.73 2.05 2.39 2.46 2.36 2.19 1.98 1.89 1.76 1.66 1.57 1.44 1.35 1.33 1.33 1.24 1.08 0.97 0.87 0.83 0.75 0.62 0.56 0.52 0.50 0.47 0.37 0.31 0.31 0.27 0.25 0.23 0.20
0.47 0.55 0.61 0.68 0.70 0.60 0.60 0.55 0.58 0.58 0.62 0.70 0.71 0.81 0.98 1.32 1.71 2.06 2.40 2.57 2.38 2.37 2.33 2.22 2.02 1.86 1.72 1.55 1.37 1.30 1.37 1.37 1.32 1.12 0.92 0.92 0.85 0.72 0.60 0.56 0.54 0.50 0.45 0.40 0.37 0.32 0.31 0.29 0.26
0.51 0.63 0.69 0.69 0.68 0.65 0.66 0.70 0.60 0.56 0.65 0.75 0.75 0.82 0.93 1.22 1.64 1.93 2.13 2.29 2.36 2.35 2.48 2.49 2.32 2.17 1.98 1.79 1.59 1.39 1.42 1.46 1.42 1.26 1.05 0.99 0.98 0.91 0.78 0.67 0.59 0.51 0.49 0.49 0.49 0.47 0.43 0.37 0.32
0.79 0.86 0.81 0.62 0.64 0.63 0.75 0.78 0.57 0.56 0.65 0.74 0.77 0.81 0.89 1.05 1.46 1.83 1.98 2.13 2.36 2.35 2.43 2.57 2.55 2.44 2.31 2.09 1.87 1.61 1.50 1.50 1.44 1.30 1.17 1.06 1.02 0.98 0.93 0.80 0.69 0.62 0.59 0.57 0.58 0.55 0.50 0.44 0.39
1.11 0.90 0.62 0.55 0.58 0.62 0.68 0.73 0.57 0.51 0.60 0.67 0.76 0.79 0.84 0.94 1.21 1.63 1.87 1.98 2.26 2.34 2.42 2.56 2.62 2.62 2.64 2.54 2.37 2.04 1.75 1.69 1.60 1.45 1.27 1.16 1.11 1.04 0.99 0.91 0.80 0.77 0.72 0.62 0.58 0.59 0.53 0.50 0.47
0.77 0.57 0.45 0.52 0.54 0.53 0.56 0.64 0.60 0.55 0.58 0.61 0.73 0.81 0.85 0.89 0.99 1.31 1.74 1.89 2.28 2.54 2.65 2.65 2.73 2.86 2.94 3.02 2.87 2.66 2.23 1.94 1.77 1.59 1.44 1.31 1.22 1.15 1.09 1.03 0.97 0.92 0.92 0.84 0.72 0.64 0.61 0.56 0.52
0.55 0.49 0.42 0.42 0.42 0.51 0.51 0.57 0.61 0.59 0.58 0.65 0.76 0.82 0.85 0.85 0.92 1.20 1.60 1.84 2.18 2.60 2.78 2.83 2.77 2.92 3.13 3.02 2.80 2.59 2.34 2.12 1.92 1.77 1.62 1.50 1.39 1.29 1.19 1.05 1.04 1.05 1.02 0.99 0.94 0.89 0.83 0.76 0.73
0.68 0.62 0.49 0.46 0.43 0.51 0.49 0.53 0.52 0.56 0.57 0.60 0.68 0.74 0.74 0.70 0.80 1.08 1.39 1.71 1.91 2.42 2.71 2.75 2.85 2.98 3.14 3.03 2.92 2.84 2.70 2.48 2.26 2.10 1.81 1.61 1.48 1.37 1.34 1.20 1.04 1.03 1.05 1.04 1.05 1.07 1.06 1.01 0.98
0.76 0.66 0.52 0.52 0.57 0.53 0.50 0.55 0.46 0.47 0.50 0.51 0.63 0.70 0.68 0.64 0.73 0.92 1.16 1.46 1.60 1.93 2.32 2.50 2.58 2.79 2.93 3.11 3.39 3.37 3.19 2.79 2.36 2.07 1.93 1.77 1.71 1.60 1.47 1.44 1.30 1.14 1.09 1.02 0.97 0.97 1.01 1.03 1.05
0.76 0.53 0.53 0.54 0.68 0.69 0.54 0.69 0.47 0.42 0.46 0.48 0.60 0.67 0.68 0.65 0.69 0.85 1.03 1.17 1.36 1.56 1.89 2.23 2.46 2.60 2.65 2.75 3.05 3.18 3.02 2.63 2.26 2.04 2.02 2.04 1.95 1.89 1.81 1.67 1.57 1.40 1.26 1.15 1.10 1.06 1.04 1.07 1.07
0.68 0.49 0.58 0.64 0.72 0.73 0.50 0.60 0.51 0.42 0.49 0.52 0.59 0.67 0.70 0.71 0.77 0.86 0.93 0.96 1.09 1.31 1.65 1.95 2.20 2.44 2.48 2.43 2.57 2.82 2.93 2.81 2.61 2.38 2.24 2.15 2.06 1.94 1.90 1.84 1.76 1.60 1.48 1.39 1.35 1.29 1.24 1.22 1.17
0.75 0.78 0.90 0.98 1.18 1.13 0.49 0.50 0.48 0.47 0.56 0.56 0.56 0.66 0.73 0.80 0.83 0.85 0.88 0.90 0.96 1.10 1.34 1.62 1.86 2.20 2.38 2.32 2.37 2.47 2.55 2.66 2.61 2.38 2.32 2.24 2.20 2.06 1.90 1.84 1.82 1.74 1.67 1.61 1.58 1.56 1.47 1.39 1.31
1.17 1.56 1.94 1.89 1.67 0.97 0.30 0.34 0.49 0.44 0.49 0.52 0.56 0.64 0.69 0.71 0.73 0.73 0.72 0.76 0.87 1.00 1.12 1.34 1.46 1.72 2.01 2.14 2.16 2.19 2.29 2.37 2.45 2.42 2.36 2.32 2.18 2.03 1.93 1.86 1.85 1.83 1.72 1.70 1.69 1.65 1.55 1.49 1.43
1.18 1.39 1.52 1.32 0.87 0.46 0.25 0.38 0.47 0.40 0.41 0.46 0.50 0.58 0.68 0.74 0.74 0.72 0.70 0.75 0.88 0.94 1.01 1.14 1.27 1.39 1.63 1.83 1.88 1.90 2.04 2.12 2.12 2.20 2.18 2.16 2.09 2.00 1.98 1.96 1.86 1.84 1.80 1.71 1.68 1.64 1.54 1.49 1.46
1.13 1.04 0.82 1.03 0.74 0.52 0.36 0.32 0.36 0.35 0.38 0.42 0.44 0.49 0.61 0.67 0.66 0.70 0.72 0.78 0.84 0.88 0.94 1.02 1.12 1.15 1.27 1.50 1.62 1.70 1.75 1.77 1.73 1.74 1.75 1.80 1.86 1.88 1.85 1.86 1.78 1.69 1.67 1.64 1.62 1.58 1.50 1.44 1.37
0.99 0.86 0.93 1.23 1.03 0.73 0.39 0.30 0.44 0.43 0.43 0.43 0.43 0.46 0.55 0.62 0.66 0.69 0.71 0.71 0.73 0.78 0.83 0.91 0.94 0.93 1.00 1.14 1.24 1.41 1.49 1.48 1.53 1.52 1.47 1.46 1.46 1.52 1.58 1.61 1.61 1.54 1.51 1.50 1.48 1.43 1.41 1.39 1.30
0.77 0.88 0.97 0.98 0.81 0.84 0.56 0.41 0.41 0.42 0.44 0.45 0.50 0.50 0.56 0.60 0.68 0.72 0.74 0.72 0.70 0.75 0.80 0.82 0.79 0.80 0.84 0.93 1.00 1.06 1.18 1.25 1.30 1.31 1.23 1.23 1.19 1.17 1.22 1.23 1.26 1.30 1.31 1.32 1.31 1.29 1.28 1.30 1.25
0.58 0.60 0.75 1.02 0.79 0.65 0.61 0.41 0.29 0.33 0.37 0.43 0.51 0.51 0.52 0.55 0.60 0.64 0.70 0.69 0.70 0.73 0.77 0.80 0.74 0.73 0.75 0.81 0.83 0.86 0.95 1.07 1.12 1.16 1.10 1.04 1.05 0.99 0.99 1.00 0.99 1.00 1.02 1.06 1.09 1.08 1.09 1.13 1.12